Time,TemperatureF,DewpointF,PressureIn,WindDirection,WindDirectionDegrees,WindSpeedMPH,WindSpeedGustMPH,Humidity,HourlyPrecipIn,Conditions,Clouds,dailyrainin,SoftwareType,DateUTC
2013-05-13 00:00:00,71.8,38.7,30.03,ENE,67,0.0,14.0,30,0.00,,---,0.00,VWS V14.01,2013-05-13 04:00:00,
2013-05-13 00:01:00,71.9,38.8,30.04,ENE,66,0.0,0.0,30,0.00,,---,0.00,VWS V14.01,2013-05-13 04:01:00,
2013-05-13 00:02:00,72.0,38.9,30.04,ENE,63,3.0,10.0,30,0.00,,---,0.00,VWS V14.01,2013-05-13 04:02:00,
2013-05-13 00:03:00,72.0,38.9,30.04,SSE,159,0.0,10.0,30,0.00,,---,0.00,VWS V14.01,2013-05-13 04:03:00,
2013-05-13 00:04:00,72.0,38.9,30.04,East,90,10.0,10.0,30,0.00,,---,0.00,VWS V14.01,2013-05-13 04:04:00,
2013-05-13 00:05:00,71.9,38.8,30.04,ENE,61,10.0,14.0,30,0.00,,---,0.00,VWS V14.01,2013-05-13 04:05:00,
2013-05-13 00:06:00,71.8,37.9,30.04,NE,39,4.0,14.0,29,0.00,,---,0.00,VWS V14.01,2013-05-13 04:06:00,
2013-05-13 00:07:00,71.8,37.9,30.04,ENE,71,0.0,14.0,29,0.00,,---,0.00,VWS V14.01,2013-05-13 04:07:00,
2013-05-13 00:08:00,71.7,37.8,30.04,ENE,65,4.0,14.0,29,0.00,,---,0.00,VWS V14.01,2013-05-13 04:08:00,
2013-05-13 00:09:00,71.7,37.8,30.03,NE,53,0.0,14.0,29,0.00,,---,0.00,VWS V14.01,2013-05-13 04:09:00,
2013-05-13 00:10:00,71.8,37.9,30.03,ENE,71,0.0,14.0,29,0.00,,---,0.00,VWS V14.01,2013-05-13 04:10:00,
2013-05-13 00:11:00,71.8,38.7,30.03,ENE,74,2.0,14.0,30,0.00,,---,0.00,VWS V14.01,2013-05-13 04:11:00,
2013-05-13 00:12:00,71.9,38.8,30.03,East,82,6.0,14.0,30,0.00,,---,0.00,VWS V14.01,2013-05-13 04:12:00,
2013-05-13 00:13:00,71.9,38.0,30.04,ESE,105,1.0,14.0,29,0.00,,---,0.00,VWS V14.01,2013-05-13 04:13:00,
2013-05-13 00:14:00,71.9,38.0,30.04,NE,55,4.0,14.0,29,0.00,,---,0.00,VWS V14.01,2013-05-13 04:14:00,
2013-05-13 00:15:00,71.9,38.8,30.04,ENE,70,5.0,14.0,30,0.00,,---,0.00,VWS V14.01,2013-05-13 04:15:00,
2013-05-13 00:16:00,72.0,38.9,30.04,East,98,6.0,14.0,30,0.00,,---,0.00,VWS V14.01,2013-05-13 04:16:00,
2013-05-13 00:17:00,72.0,38.9,30.04,East,87,6.0,14.0,30,0.00,,---,0.00,VWS V14.01,2013-05-13 04:17:00,
2013-05-13 00:18:00,72.0,38.9,30.04,ENE,72,0.0,14.0,30,0.00,,---,0.00,VWS V14.01,2013-05-13 04:18:00,
2013-05-13 00:19:00,72.0,38.0,30.03,SE,127,4.0,14.0,29,0.00,,---,0.00,VWS V14.01,2013-05-13 04:19:00,
2013-05-13 00:20:00,72.0,38.9,30.03,SE,130,12.0,14.0,30,0.00,,---,0.00,VWS V14.01,2013-05-13 04:20:00,
2013-05-13 00:21:00,71.8,37.9,30.03,East,92,5.0,14.0,29,0.00,,---,0.00,VWS V14.01,2013-05-13 04:21:00,
2013-05-13 00:22:00,71.7,37.8,30.04,ESE,104,7.0,14.0,29,0.00,,---,0.00,VWS V14.01,2013-05-13 04:22:00,
2013-05-13 00:23:00,71.6,38.6,30.04,ESE,120,7.0,14.0,30,0.00,,---,0.00,VWS V14.01,2013-05-13 04:23:00,
2013-05-13 00:24:00,71.5,37.6,30.03,ENE,70,9.0,14.0,29,0.00,,---,0.00,VWS V14.01,2013-05-13 04:24:00,
2013-05-13 00:25:00,71.5,38.5,30.03,ENE,70,8.0,14.0,30,0.00,,---,0.00,VWS V14.01,2013-05-13 04:25:00,
2013-05-13 00:26:00,71.5,38.5,30.04,East,81,14.0,14.0,30,0.00,,---,0.00,VWS V14.01,2013-05-13 04:26:00,
2013-05-13 00:27:00,71.4,37.5,30.04,East,94,11.0,14.0,29,0.00,,---,0.00,VWS V14.01,2013-05-13 04:27:00,
2013-05-13 00:28:00,71.3,37.4,30.04,East,80,8.0,14.0,29,0.00,,---,0.00,VWS V14.01,2013-05-13 04:28:00,
2013-05-13 00:29:00,71.3,37.4,30.03,NNE,24,3.0,14.0,29,0.00,,---,0.00,VWS V14.01,2013-05-13 04:29:00,
2013-05-13 00:30:00,71.3,38.3,30.03,East,101,7.0,14.0,30,0.00,,---,0.00,VWS V14.01,2013-05-13 04:30:00,
2013-05-13 00:31:00,71.3,37.4,30.03,East,81,3.0,7.0,29,0.00,,---,0.00,VWS V14.01,2013-05-13 04:31:00,
2013-05-13 00:32:00,71.3,38.3,30.03,ENE,59,0.0,7.0,30,0.00,,---,0.00,VWS V14.01,2013-05-13 04:32:00,
2013-05-13 00:33:00,71.4,38.4,30.03,East,100,5.0,7.0,30,0.00,,---,0.00,VWS V14.01,2013-05-13 04:33:00,
2013-05-13 00:34:00,71.4,38.4,30.03,ESE,115,0.0,7.0,30,0.00,,---,0.00,VWS V14.01,2013-05-13 04:34:00,
2013-05-13 00:35:00,71.4,38.4,30.04,SW,230,3.0,7.0,30,0.00,,---,0.00,VWS V14.01,2013-05-13 04:35:00,
2013-05-13 00:36:00,71.4,37.5,30.04,SE,134,6.0,11.0,29,0.00,,---,0.00,VWS V14.01,2013-05-13 04:36:00,
2013-05-13 00:37:00,71.5,38.5,30.04,South,169,1.0,11.0,30,0.00,,---,0.00,VWS V14.01,2013-05-13 04:37:00,
2013-05-13 00:38:00,71.5,38.5,30.03,ENE,74,0.0,11.0,30,0.00,,---,0.00,VWS V14.01,2013-05-13 04:38:00,
2013-05-13 00:39:00,71.5,38.5,30.03,SSE,158,0.0,11.0,30,0.00,,---,0.00,VWS V14.01,2013-05-13 04:39:00,
2013-05-13 00:40:00,71.6,38.6,30.04,ENE,71,8.0,11.0,30,0.00,,---,0.00,VWS V14.01,2013-05-13 04:40:00,
2013-05-13 00:41:00,71.6,37.7,30.04,East,90,1.0,11.0,29,0.00,,---,0.00,VWS V14.01,2013-05-13 04:41:00,
2013-05-13 00:42:00,71.6,37.7,30.04,East,101,0.0,11.0,29,0.00,,---,0.00,VWS V14.01,2013-05-13 04:42:00,
2013-05-13 00:43:00,71.6,38.6,30.04,SE,134,7.0,11.0,30,0.00,,---,0.00,VWS V14.01,2013-05-13 04:43:00,
2013-05-13 00:44:00,71.5,37.6,30.04,ESE,115,0.0,11.0,29,0.00,,---,0.00,VWS V14.01,2013-05-13 04:44:00,
2013-05-13 00:45:00,71.5,38.5,30.04,ENE,60,0.0,11.0,30,0.00,,---,0.00,VWS V14.01,2013-05-13 04:45:00,
2013-05-13 00:46:00,71.5,38.5,30.04,East,87,0.0,11.0,30,0.00,,---,0.00,VWS V14.01,2013-05-13 04:46:00,
2013-05-13 00:47:00,71.5,38.5,30.04,East,80,3.0,11.0,30,0.00,,---,0.00,VWS V14.01,2013-05-13 04:47:00,
2013-05-13 00:48:00,71.6,38.6,30.04,East,80,5.0,11.0,30,0.00,,---,0.00,VWS V14.01,2013-05-13 04:48:00,
2013-05-13 00:49:00,71.6,39.4,30.04,ENE,61,7.0,11.0,31,0.00,,---,0.00,VWS V14.01,2013-05-13 04:49:00,
2013-05-13 00:50:00,71.6,39.4,30.04,ENE,65,5.0,11.0,31,0.00,,---,0.00,VWS V14.01,2013-05-13 04:50:00,
2013-05-13 00:51:00,71.7,38.6,30.04,ENE,67,0.0,11.0,30,0.00,,---,0.00,VWS V14.01,2013-05-13 04:51:00,
2013-05-13 00:52:00,71.7,39.5,30.04,NE,49,0.0,11.0,31,0.00,,---,0.00,VWS V14.01,2013-05-13 04:52:00,
2013-05-13 00:53:00,71.8,38.7,30.04,East,82,7.0,11.0,30,0.00,,---,0.00,VWS V14.01,2013-05-13 04:53:00,
2013-05-13 00:54:00,71.9,38.0,30.04,ENE,62,12.0,12.0,29,0.00,,---,0.00,VWS V14.01,2013-05-13 04:54:00,
2013-05-13 00:55:00,71.8,37.9,30.04,ENE,69,12.0,13.0,29,0.00,,---,0.00,VWS V14.01,2013-05-13 04:55:00,
2013-05-13 00:56:00,71.6,38.6,30.04,NE,55,6.0,13.0,30,0.00,,---,0.00,VWS V14.01,2013-05-13 04:56:00,
2013-05-13 00:57:00,71.5,37.6,30.04,ENE,57,3.0,13.0,29,0.00,,---,0.00,VWS V14.01,2013-05-13 04:57:00,
2013-05-13 00:58:00,71.4,37.5,30.04,ENE,63,5.0,13.0,29,0.00,,---,0.00,VWS V14.01,2013-05-13 04:58:00,
2013-05-13 00:59:00,71.3,38.3,30.04,SE,133,0.0,13.0,30,0.00,,---,0.00,VWS V14.01,2013-05-13 04:59:00,
2013-05-13 01:00:00,71.3,39.1,30.04,SSW,195,2.0,13.0,31,0.00,,---,0.00,VWS V14.01,2013-05-13 05:00:00,
2013-05-13 01:01:00,71.2,39.0,30.04,East,82,0.0,4.0,31,0.00,,---,0.00,VWS V14.01,2013-05-13 05:01:00,
2013-05-13 01:02:00,71.2,39.0,30.04,South,169,0.0,4.0,31,0.00,,---,0.00,VWS V14.01,2013-05-13 05:02:00,
2013-05-13 01:03:00,71.2,38.2,30.04,ESE,109,0.0,4.0,30,0.00,,---,0.00,VWS V14.01,2013-05-13 05:03:00,
2013-05-13 01:04:00,71.1,39.0,30.04,SSE,163,0.0,4.0,31,0.00,,---,0.00,VWS V14.01,2013-05-13 05:04:00,
2013-05-13 01:05:00,71.1,39.0,30.04,ESE,115,7.0,7.0,31,0.00,,---,0.00,VWS V14.01,2013-05-13 05:05:00,
2013-05-13 01:06:00,71.0,38.9,30.04,East,100,2.0,7.0,31,0.00,,---,0.00,VWS V14.01,2013-05-13 05:06:00,
2013-05-13 01:07:00,71.0,39.7,30.04,South,189,1.0,7.0,32,0.00,,---,0.00,VWS V14.01,2013-05-13 05:07:00,
2013-05-13 01:08:00,71.0,39.7,30.04,East,86,5.0,7.0,32,0.00,,---,0.00,VWS V14.01,2013-05-13 05:08:00,
2013-05-13 01:09:00,71.0,39.7,30.04,ESE,117,0.0,7.0,32,0.00,,---,0.00,VWS V14.01,2013-05-13 05:09:00,
2013-05-13 01:10:00,71.0,39.7,30.04,ESE,106,1.0,7.0,32,0.00,,---,0.00,VWS V14.01,2013-05-13 05:10:00,
2013-05-13 01:11:00,71.1,39.8,30.04,SE,143,4.0,8.0,32,0.00,,---,0.00,VWS V14.01,2013-05-13 05:11:00,
2013-05-13 01:12:00,71.1,39.8,30.03,SSE,149,0.0,8.0,32,0.00,,---,0.00,VWS V14.01,2013-05-13 05:12:00,
2013-05-13 01:13:00,71.2,40.7,30.03,East,94,0.0,8.0,33,0.00,,---,0.00,VWS V14.01,2013-05-13 05:13:00,
2013-05-13 01:14:00,71.2,40.7,30.03,SSW,196,0.0,8.0,33,0.00,,---,0.00,VWS V14.01,2013-05-13 05:14:00,
2013-05-13 01:15:00,71.2,39.9,30.03,ENE,78,0.0,8.0,32,0.00,,---,0.00,VWS V14.01,2013-05-13 05:15:00,
2013-05-13 01:16:00,71.2,39.9,30.04,SSE,158,0.0,8.0,32,0.00,,---,0.00,VWS V14.01,2013-05-13 05:16:00,
2013-05-13 01:17:00,71.2,39.9,30.04,ESE,119,4.0,9.0,32,0.00,,---,0.00,VWS V14.01,2013-05-13 05:17:00,
2013-05-13 01:18:00,71.2,39.9,30.03,NE,38,3.0,9.0,32,0.00,,---,0.00,VWS V14.01,2013-05-13 05:18:00,
2013-05-13 01:19:00,71.3,39.1,30.04,NE,36,4.0,9.0,31,0.00,,---,0.00,VWS V14.01,2013-05-13 05:19:00,
2013-05-13 01:20:00,71.3,38.3,30.04,ENE,67,5.0,12.0,30,0.00,,---,0.00,VWS V14.01,2013-05-13 05:20:00,
2013-05-13 01:21:00,71.3,38.3,30.04,ENE,75,7.0,12.0,30,0.00,,---,0.00,VWS V14.01,2013-05-13 05:21:00,
2013-05-13 01:22:00,71.3,38.3,30.04,ENE,59,3.0,12.0,30,0.00,,---,0.00,VWS V14.01,2013-05-13 05:22:00,
2013-05-13 01:23:00,71.3,38.3,30.04,NE,43,3.0,12.0,30,0.00,,---,0.00,VWS V14.01,2013-05-13 05:23:00,
2013-05-13 01:24:00,71.3,38.3,30.03,ENE,63,1.0,12.0,30,0.00,,---,0.00,VWS V14.01,2013-05-13 05:24:00,
2013-05-13 01:25:00,71.3,38.3,30.03,ENE,63,0.0,12.0,30,0.00,,---,0.00,VWS V14.01,2013-05-13 05:25:00,
2013-05-13 01:26:00,71.3,38.3,30.03,NE,48,0.0,12.0,30,0.00,,---,0.00,VWS V14.01,2013-05-13 05:26:00,
2013-05-13 01:27:00,71.3,38.3,30.03,ENE,78,0.0,12.0,30,0.00,,---,0.00,VWS V14.01,2013-05-13 05:27:00,
2013-05-13 01:28:00,71.4,39.2,30.04,East,80,7.0,12.0,31,0.00,,---,0.00,VWS V14.01,2013-05-13 05:28:00,
2013-05-13 01:29:00,71.4,38.4,30.04,NE,44,3.0,12.0,30,0.00,,---,0.00,VWS V14.01,2013-05-13 05:29:00,
2013-05-13 01:30:00,71.3,38.3,30.04,ENE,75,5.0,5.0,30,0.00,,---,0.00,VWS V14.01,2013-05-13 05:30:00,
2013-05-13 01:31:00,71.3,38.3,30.04,ENE,62,9.0,10.0,30,0.00,,---,0.00,VWS V14.01,2013-05-13 05:31:00,
2013-05-13 01:32:00,71.3,37.4,30.04,NE,42,5.0,10.0,29,0.00,,---,0.00,VWS V14.01,2013-05-13 05:32:00,
2013-05-13 01:33:00,71.2,38.2,30.04,ENE,78,4.0,13.0,30,0.00,,---,0.00,VWS V14.01,2013-05-13 05:33:00,
2013-05-13 01:34:00,71.2,38.2,30.04,ENE,77,9.0,13.0,30,0.00,,---,0.00,VWS V14.01,2013-05-13 05:34:00,
2013-05-13 01:35:00,71.1,38.1,30.04,East,82,7.0,13.0,30,0.00,,---,0.00,VWS V14.01,2013-05-13 05:35:00,
2013-05-13 01:36:00,71.0,38.0,30.04,East,84,0.0,13.0,30,0.00,,---,0.00,VWS V14.01,2013-05-13 05:36:00,
2013-05-13 01:37:00,71.0,38.0,30.04,East,82,2.0,13.0,30,0.00,,---,0.00,VWS V14.01,2013-05-13 05:37:00,
2013-05-13 01:38:00,70.9,38.0,30.04,ESE,105,0.0,13.0,30,0.00,,---,0.00,VWS V14.01,2013-05-13 05:38:00,
2013-05-13 01:39:00,70.9,38.8,30.04,East,83,11.0,13.0,31,0.00,,---,0.00,VWS V14.01,2013-05-13 05:39:00,
2013-05-13 01:40:00,70.9,38.8,30.04,North,355,4.0,13.0,31,0.00,,---,0.00,VWS V14.01,2013-05-13 05:40:00,
2013-05-13 01:41:00,70.9,38.8,30.04,ESE,107,0.0,13.0,31,0.00,,---,0.00,VWS V14.01,2013-05-13 05:41:00,
2013-05-13 01:42:00,70.8,38.7,30.04,East,79,3.0,13.0,31,0.00,,---,0.00,VWS V14.01,2013-05-13 05:42:00,
2013-05-13 01:43:00,70.8,37.9,30.04,ENE,58,3.0,13.0,30,0.00,,---,0.00,VWS V14.01,2013-05-13 05:43:00,
2013-05-13 01:44:00,70.7,38.6,30.04,East,86,0.0,13.0,31,0.00,,---,0.00,VWS V14.01,2013-05-13 05:44:00,
2013-05-13 01:45:00,70.7,38.6,30.04,East,87,0.0,13.0,31,0.00,,---,0.00,VWS V14.01,2013-05-13 05:45:00,
2013-05-13 01:46:00,70.7,37.8,30.04,East,91,8.0,13.0,30,0.00,,---,0.00,VWS V14.01,2013-05-13 05:46:00,
2013-05-13 01:47:00,70.7,37.8,30.04,East,82,5.0,13.0,30,0.00,,---,0.00,VWS V14.01,2013-05-13 05:47:00,
2013-05-13 01:48:00,70.6,37.7,30.04,East,90,0.0,13.0,30,0.00,,---,0.00,VWS V14.01,2013-05-13 05:48:00,
2013-05-13 01:49:00,70.6,37.7,30.04,ENE,65,8.0,13.0,30,0.00,,---,0.00,VWS V14.01,2013-05-13 05:49:00,
2013-05-13 01:50:00,70.6,37.7,30.04,ENE,69,0.0,13.0,30,0.00,,---,0.00,VWS V14.01,2013-05-13 05:50:00,
2013-05-13 01:51:00,70.5,37.6,30.04,NE,42,3.0,13.0,30,0.00,,---,0.00,VWS V14.01,2013-05-13 05:51:00,
2013-05-13 01:52:00,70.5,37.6,30.04,ENE,69,5.0,13.0,30,0.00,,---,0.00,VWS V14.01,2013-05-13 05:52:00,
2013-05-13 01:53:00,70.4,37.5,30.04,NE,55,7.0,13.0,30,0.00,,---,0.00,VWS V14.01,2013-05-13 05:53:00,
2013-05-13 01:54:00,70.3,36.6,30.04,ENE,74,0.0,13.0,29,0.00,,---,0.00,VWS V14.01,2013-05-13 05:54:00,
2013-05-13 01:55:00,70.3,37.4,30.04,ENE,67,3.0,13.0,30,0.00,,---,0.00,VWS V14.01,2013-05-13 05:55:00,
2013-05-13 01:56:00,70.2,37.3,30.04,SE,140,2.0,13.0,30,0.00,,---,0.00,VWS V14.01,2013-05-13 05:56:00,
2013-05-13 01:57:00,70.1,38.1,30.04,ENE,70,0.0,13.0,31,0.00,,---,0.00,VWS V14.01,2013-05-13 05:57:00,
2013-05-13 01:58:00,70.1,37.3,30.04,ENE,72,5.0,13.0,30,0.00,,---,0.00,VWS V14.01,2013-05-13 05:58:00,
2013-05-13 01:59:00,70.0,38.0,30.04,ENE,76,0.0,13.0,31,0.00,,---,0.00,VWS V14.01,2013-05-13 05:59:00,
2013-05-13 02:00:00,70.0,38.0,30.04,ENE,69,4.0,4.0,31,0.00,,---,0.00,VWS V14.01,2013-05-13 06:00:00,
2013-05-13 02:01:00,70.1,38.1,30.04,East,86,0.0,7.0,31,0.00,,---,0.00,VWS V14.01,2013-05-13 06:01:00,
2013-05-13 02:02:00,70.0,38.8,30.04,NE,55,4.0,10.0,32,0.00,,---,0.00,VWS V14.01,2013-05-13 06:02:00,
2013-05-13 02:03:00,70.0,37.2,30.05,ENE,58,5.0,10.0,30,0.00,,---,0.00,VWS V14.01,2013-05-13 06:03:00,
2013-05-13 02:04:00,69.9,37.9,30.05,ESE,109,2.0,10.0,31,0.00,,---,0.00,VWS V14.01,2013-05-13 06:04:00,
2013-05-13 02:05:00,69.9,37.9,30.05,East,81,2.0,10.0,31,0.00,,---,0.00,VWS V14.01,2013-05-13 06:05:00,
2013-05-13 02:06:00,69.9,37.9,30.05,East,80,3.0,10.0,31,0.00,,---,0.00,VWS V14.01,2013-05-13 06:06:00,
2013-05-13 02:07:00,69.9,38.7,30.05,ENE,61,3.0,10.0,32,0.00,,---,0.00,VWS V14.01,2013-05-13 06:07:00,
2013-05-13 02:08:00,69.9,37.9,30.05,East,90,0.0,10.0,31,0.00,,---,0.00,VWS V14.01,2013-05-13 06:08:00,
2013-05-13 02:09:00,69.8,37.8,30.05,East,88,0.0,10.0,31,0.00,,---,0.00,VWS V14.01,2013-05-13 06:09:00,
2013-05-13 02:10:00,69.8,37.8,30.05,ENE,78,0.0,10.0,31,0.00,,---,0.00,VWS V14.01,2013-05-13 06:10:00,
2013-05-13 02:11:00,69.8,37.8,30.05,East,80,0.0,10.0,31,0.00,,---,0.00,VWS V14.01,2013-05-13 06:11:00,
2013-05-13 02:12:00,69.8,38.6,30.05,ENE,61,2.0,10.0,32,0.00,,---,0.00,VWS V14.01,2013-05-13 06:12:00,
2013-05-13 02:13:00,69.7,37.7,30.05,SSE,153,6.0,12.0,31,0.00,,---,0.00,VWS V14.01,2013-05-13 06:13:00,
2013-05-13 02:14:00,69.6,37.7,30.05,East,95,1.0,12.0,31,0.00,,---,0.00,VWS V14.01,2013-05-13 06:14:00,
2013-05-13 02:15:00,69.5,38.4,30.05,ESE,109,0.0,12.0,32,0.00,,---,0.00,VWS V14.01,2013-05-13 06:15:00,
2013-05-13 02:16:00,69.5,38.4,30.05,SW,234,0.0,12.0,32,0.00,,---,0.00,VWS V14.01,2013-05-13 06:16:00,
2013-05-13 02:17:00,69.4,38.3,30.05,SW,233,0.0,12.0,32,0.00,,---,0.00,VWS V14.01,2013-05-13 06:17:00,
2013-05-13 02:18:00,69.4,38.3,30.05,SW,233,0.0,12.0,32,0.00,,---,0.00,VWS V14.01,2013-05-13 06:18:00,
2013-05-13 02:19:00,69.4,38.3,30.05,SW,233,0.0,12.0,32,0.00,,---,0.00,VWS V14.01,2013-05-13 06:19:00,
2013-05-13 02:20:00,69.3,39.0,30.05,East,84,0.0,12.0,33,0.00,,---,0.00,VWS V14.01,2013-05-13 06:20:00,
2013-05-13 02:21:00,69.3,39.0,30.05,East,84,0.0,12.0,33,0.00,,---,0.00,VWS V14.01,2013-05-13 06:21:00,
2013-05-13 02:22:00,69.3,39.0,30.05,East,84,0.0,12.0,33,0.00,,---,0.00,VWS V14.01,2013-05-13 06:22:00,
2013-05-13 02:23:00,69.3,39.0,30.05,East,84,0.0,12.0,33,0.00,,---,0.00,VWS V14.01,2013-05-13 06:23:00,
2013-05-13 02:24:00,69.3,39.0,30.05,SE,141,0.0,12.0,33,0.00,,---,0.00,VWS V14.01,2013-05-13 06:24:00,
2013-05-13 02:25:00,69.2,38.9,30.05,East,101,1.0,12.0,33,0.00,,---,0.00,VWS V14.01,2013-05-13 06:25:00,
2013-05-13 02:26:00,69.2,38.9,30.05,ESE,102,0.0,12.0,33,0.00,,---,0.00,VWS V14.01,2013-05-13 06:26:00,
2013-05-13 02:27:00,69.1,39.6,30.05,ENE,66,4.0,12.0,34,0.00,,---,0.00,VWS V14.01,2013-05-13 06:27:00,
2013-05-13 02:28:00,69.0,38.7,30.05,ENE,61,7.0,12.0,33,0.00,,---,0.00,VWS V14.01,2013-05-13 06:28:00,
2013-05-13 02:29:00,69.0,38.7,30.06,East,87,0.0,12.0,33,0.00,,---,0.00,VWS V14.01,2013-05-13 06:29:00,
2013-05-13 02:30:00,68.9,38.6,30.06,ENE,76,0.0,12.0,33,0.00,,---,0.00,VWS V14.01,2013-05-13 06:30:00,
2013-05-13 02:31:00,68.8,38.5,30.06,East,83,0.0,1.0,33,0.00,,---,0.00,VWS V14.01,2013-05-13 06:31:00,
2013-05-13 02:32:00,68.8,39.3,30.06,NE,47,0.0,3.0,34,0.00,,---,0.00,VWS V14.01,2013-05-13 06:32:00,
2013-05-13 02:33:00,68.7,39.2,30.06,East,95,0.0,3.0,34,0.00,,---,0.00,VWS V14.01,2013-05-13 06:33:00,
2013-05-13 02:34:00,68.7,39.2,30.06,East,92,0.0,3.0,34,0.00,,---,0.00,VWS V14.01,2013-05-13 06:34:00,
2013-05-13 02:35:00,68.6,39.1,30.06,East,81,0.0,3.0,34,0.00,,---,0.00,VWS V14.01,2013-05-13 06:35:00,
2013-05-13 02:36:00,68.6,39.1,30.06,ENE,71,0.0,3.0,34,0.00,,---,0.00,VWS V14.01,2013-05-13 06:36:00,
2013-05-13 02:37:00,68.5,39.0,30.06,ENE,67,0.0,4.0,34,0.00,,---,0.00,VWS V14.01,2013-05-13 06:37:00,
2013-05-13 02:38:00,68.4,39.0,30.06,ENE,65,0.0,4.0,34,0.00,,---,0.00,VWS V14.01,2013-05-13 06:38:00,
2013-05-13 02:39:00,68.4,39.0,30.06,ENE,65,0.0,4.0,34,0.00,,---,0.00,VWS V14.01,2013-05-13 06:39:00,
2013-05-13 02:40:00,68.3,39.6,30.06,ENE,77,0.0,4.0,35,0.00,,---,0.00,VWS V14.01,2013-05-13 06:40:00,
2013-05-13 02:41:00,68.3,38.9,30.06,East,88,0.0,4.0,34,0.00,,---,0.00,VWS V14.01,2013-05-13 06:41:00,
2013-05-13 02:42:00,68.2,39.5,30.06,East,88,0.0,4.0,35,0.00,,---,0.00,VWS V14.01,2013-05-13 06:42:00,
2013-05-13 02:43:00,68.2,39.5,30.06,East,86,0.0,4.0,35,0.00,,---,0.00,VWS V14.01,2013-05-13 06:43:00,
2013-05-13 02:44:00,68.1,39.4,30.06,East,86,0.0,4.0,35,0.00,,---,0.00,VWS V14.01,2013-05-13 06:44:00,
2013-05-13 02:45:00,68.1,39.4,30.06,ESE,115,0.0,4.0,35,0.00,,---,0.00,VWS V14.01,2013-05-13 06:45:00,
2013-05-13 02:46:00,68.0,39.3,30.06,ESE,106,0.0,4.0,35,0.00,,---,0.00,VWS V14.01,2013-05-13 06:46:00,
2013-05-13 02:47:00,67.9,39.3,30.06,ESE,106,0.0,4.0,35,0.00,,---,0.00,VWS V14.01,2013-05-13 06:47:00,
2013-05-13 02:48:00,67.8,39.2,30.06,ESE,106,0.0,4.0,35,0.00,,---,0.00,VWS V14.01,2013-05-13 06:48:00,
2013-05-13 02:49:00,67.8,39.9,30.06,East,92,0.0,4.0,36,0.00,,---,0.00,VWS V14.01,2013-05-13 06:49:00,
2013-05-13 02:50:00,67.7,39.1,30.06,East,92,0.0,4.0,35,0.00,,---,0.00,VWS V14.01,2013-05-13 06:50:00,
2013-05-13 02:51:00,67.6,39.7,30.06,East,84,0.0,4.0,36,0.00,,---,0.00,VWS V14.01,2013-05-13 06:51:00,
2013-05-13 02:52:00,67.6,39.7,30.07,East,84,0.0,4.0,36,0.00,,---,0.00,VWS V14.01,2013-05-13 06:52:00,
2013-05-13 02:53:00,67.5,39.6,30.07,East,84,0.0,4.0,36,0.00,,---,0.00,VWS V14.01,2013-05-13 06:53:00,
2013-05-13 02:54:00,67.4,39.5,30.07,East,84,1.0,4.0,36,0.00,,---,0.00,VWS V14.01,2013-05-13 06:54:00,
2013-05-13 02:55:00,67.4,39.5,30.07,East,81,0.0,4.0,36,0.00,,---,0.00,VWS V14.01,2013-05-13 06:55:00,
2013-05-13 02:56:00,67.3,39.5,30.07,East,81,0.0,4.0,36,0.00,,---,0.00,VWS V14.01,2013-05-13 06:56:00,
2013-05-13 02:57:00,67.2,39.4,30.07,East,81,0.0,4.0,36,0.00,,---,0.00,VWS V14.01,2013-05-13 06:57:00,
2013-05-13 02:58:00,67.2,39.4,30.07,East,80,0.0,4.0,36,0.00,,---,0.00,VWS V14.01,2013-05-13 06:58:00,
2013-05-13 02:59:00,67.1,39.3,30.07,East,80,0.0,4.0,36,0.00,,---,0.00,VWS V14.01,2013-05-13 06:59:00,
2013-05-13 03:00:00,67.1,39.3,30.07,East,80,0.0,4.0,36,0.00,,---,0.00,VWS V14.01,2013-05-13 07:00:00,
2013-05-13 03:01:00,67.0,39.2,30.07,East,80,0.0,0.0,36,0.00,,---,0.00,VWS V14.01,2013-05-13 07:01:00,
2013-05-13 03:02:00,67.0,39.2,30.07,East,80,0.0,0.0,36,0.00,,---,0.00,VWS V14.01,2013-05-13 07:02:00,
2013-05-13 03:03:00,66.9,39.8,30.07,East,80,0.0,0.0,37,0.00,,---,0.00,VWS V14.01,2013-05-13 07:03:00,
2013-05-13 03:04:00,66.8,39.7,30.07,East,80,0.0,0.0,37,0.00,,---,0.00,VWS V14.01,2013-05-13 07:04:00,
2013-05-13 03:05:00,66.8,39.7,30.07,East,80,0.0,0.0,37,0.00,,---,0.00,VWS V14.01,2013-05-13 07:05:00,
2013-05-13 03:06:00,66.7,39.6,30.07,East,80,0.0,0.0,37,0.00,,---,0.00,VWS V14.01,2013-05-13 07:06:00,
2013-05-13 03:07:00,66.7,39.6,30.07,East,80,1.0,1.0,37,0.00,,---,0.00,VWS V14.01,2013-05-13 07:07:00,
2013-05-13 03:08:00,66.6,40.2,30.07,East,80,0.0,1.0,38,0.00,,---,0.00,VWS V14.01,2013-05-13 07:08:00,
2013-05-13 03:09:00,66.5,39.5,30.08,East,80,0.0,1.0,37,0.00,,---,0.00,VWS V14.01,2013-05-13 07:09:00,
2013-05-13 03:10:00,66.5,40.1,30.08,East,81,0.0,1.0,38,0.00,,---,0.00,VWS V14.01,2013-05-13 07:10:00,
2013-05-13 03:11:00,66.4,40.0,30.08,East,81,0.0,1.0,38,0.00,,---,0.00,VWS V14.01,2013-05-13 07:11:00,
2013-05-13 03:12:00,66.3,40.0,30.08,East,81,0.0,1.0,38,0.00,,---,0.00,VWS V14.01,2013-05-13 07:12:00,
2013-05-13 03:13:00,66.2,39.9,30.08,East,81,0.0,1.0,38,0.00,,---,0.00,VWS V14.01,2013-05-13 07:13:00,
2013-05-13 03:14:00,66.2,39.9,30.08,East,81,0.0,1.0,38,0.00,,---,0.00,VWS V14.01,2013-05-13 07:14:00,
2013-05-13 03:15:00,66.1,39.8,30.08,East,81,0.0,1.0,38,0.00,,---,0.00,VWS V14.01,2013-05-13 07:15:00,
2013-05-13 03:16:00,66.1,40.5,30.08,East,81,0.0,1.0,39,0.00,,---,0.00,VWS V14.01,2013-05-13 07:16:00,
2013-05-13 03:17:00,66.0,40.4,30.08,East,81,0.0,1.0,39,0.00,,---,0.00,VWS V14.01,2013-05-13 07:17:00,
2013-05-13 03:18:00,65.9,40.3,30.08,East,81,0.0,1.0,39,0.00,,---,0.00,VWS V14.01,2013-05-13 07:18:00,
2013-05-13 03:19:00,65.9,40.9,30.08,East,81,0.0,1.0,40,0.00,,---,0.00,VWS V14.01,2013-05-13 07:19:00,
2013-05-13 03:20:00,65.8,40.8,30.08,East,81,0.0,1.0,40,0.00,,---,0.00,VWS V14.01,2013-05-13 07:20:00,
2013-05-13 03:21:00,65.7,40.7,30.08,East,81,0.0,1.0,40,0.00,,---,0.00,VWS V14.01,2013-05-13 07:21:00,
2013-05-13 03:22:00,65.7,41.4,30.08,East,81,0.0,1.0,41,0.00,,---,0.00,VWS V14.01,2013-05-13 07:22:00,
2013-05-13 03:23:00,65.6,41.3,30.08,East,81,0.0,1.0,41,0.00,,---,0.00,VWS V14.01,2013-05-13 07:23:00,
2013-05-13 03:24:00,65.6,41.9,30.08,East,81,0.0,1.0,42,0.00,,---,0.00,VWS V14.01,2013-05-13 07:24:00,
2013-05-13 03:25:00,65.5,41.8,30.08,East,81,0.0,1.0,42,0.00,,---,0.00,VWS V14.01,2013-05-13 07:25:00,
2013-05-13 03:26:00,65.4,41.7,30.08,East,81,0.0,1.0,42,0.00,,---,0.00,VWS V14.01,2013-05-13 07:26:00,
2013-05-13 03:27:00,65.3,41.6,30.08,East,81,0.0,1.0,42,0.00,,---,0.00,VWS V14.01,2013-05-13 07:27:00,
2013-05-13 03:28:00,65.2,41.5,30.08,East,81,0.0,1.0,42,0.00,,---,0.00,VWS V14.01,2013-05-13 07:28:00,
2013-05-13 03:29:00,65.1,42.1,30.08,East,81,0.0,1.0,43,0.00,,---,0.00,VWS V14.01,2013-05-13 07:29:00,
2013-05-13 03:30:00,65.0,41.4,30.08,East,81,0.0,1.0,42,0.00,,---,0.00,VWS V14.01,2013-05-13 07:30:00,
2013-05-13 03:31:00,64.9,41.3,30.08,East,81,0.0,0.0,42,0.00,,---,0.00,VWS V14.01,2013-05-13 07:31:00,
2013-05-13 03:32:00,64.8,41.8,30.08,East,81,0.0,0.0,43,0.00,,---,0.00,VWS V14.01,2013-05-13 07:32:00,
2013-05-13 03:33:00,64.7,41.7,30.08,East,81,0.0,0.0,43,0.00,,---,0.00,VWS V14.01,2013-05-13 07:33:00,
2013-05-13 03:34:00,64.6,41.6,30.08,East,81,0.0,0.0,43,0.00,,---,0.00,VWS V14.01,2013-05-13 07:34:00,
2013-05-13 03:35:00,64.5,41.5,30.09,East,81,0.0,0.0,43,0.00,,---,0.00,VWS V14.01,2013-05-13 07:35:00,
2013-05-13 03:36:00,64.4,41.4,30.09,East,81,0.0,0.0,43,0.00,,---,0.00,VWS V14.01,2013-05-13 07:36:00,
2013-05-13 03:37:00,64.3,41.3,30.08,East,81,0.0,0.0,43,0.00,,---,0.00,VWS V14.01,2013-05-13 07:37:00,
2013-05-13 03:38:00,64.2,41.3,30.08,East,81,0.0,0.0,43,0.00,,---,0.00,VWS V14.01,2013-05-13 07:38:00,
2013-05-13 03:39:00,64.1,41.2,30.09,East,81,0.0,0.0,43,0.00,,---,0.00,VWS V14.01,2013-05-13 07:39:00,
2013-05-13 03:40:00,64.0,41.1,30.09,East,81,0.0,0.0,43,0.00,,---,0.00,VWS V14.01,2013-05-13 07:40:00,
2013-05-13 03:41:00,63.9,41.0,30.09,East,81,0.0,0.0,43,0.00,,---,0.00,VWS V14.01,2013-05-13 07:41:00,
2013-05-13 03:42:00,63.9,41.0,30.09,East,81,0.0,0.0,43,0.00,,---,0.00,VWS V14.01,2013-05-13 07:42:00,
2013-05-13 03:43:00,63.8,40.9,30.09,East,81,0.0,0.0,43,0.00,,---,0.00,VWS V14.01,2013-05-13 07:43:00,
2013-05-13 03:44:00,63.7,40.8,30.09,East,81,0.0,0.0,43,0.00,,---,0.00,VWS V14.01,2013-05-13 07:44:00,
2013-05-13 03:45:00,63.6,40.7,30.09,East,81,0.0,0.0,43,0.00,,---,0.00,VWS V14.01,2013-05-13 07:45:00,
2013-05-13 03:46:00,63.5,41.2,30.09,East,81,0.0,0.0,44,0.00,,---,0.00,VWS V14.01,2013-05-13 07:46:00,
2013-05-13 03:47:00,63.4,41.1,30.09,East,81,0.0,0.0,44,0.00,,---,0.00,VWS V14.01,2013-05-13 07:47:00,
2013-05-13 03:48:00,63.4,41.1,30.09,East,81,0.0,0.0,44,0.00,,---,0.00,VWS V14.01,2013-05-13 07:48:00,
2013-05-13 03:49:00,63.3,41.6,30.09,East,81,0.0,0.0,45,0.00,,---,0.00,VWS V14.01,2013-05-13 07:49:00,
2013-05-13 03:50:00,63.2,41.5,30.09,East,81,0.0,0.0,45,0.00,,---,0.00,VWS V14.01,2013-05-13 07:50:00,
2013-05-13 03:51:00,63.2,41.5,30.09,East,81,0.0,0.0,45,0.00,,---,0.00,VWS V14.01,2013-05-13 07:51:00,
2013-05-13 03:52:00,63.1,41.4,30.09,East,81,0.0,0.0,45,0.00,,---,0.00,VWS V14.01,2013-05-13 07:52:00,
2013-05-13 03:53:00,63.0,41.9,30.09,East,81,0.0,0.0,46,0.00,,---,0.00,VWS V14.01,2013-05-13 07:53:00,
2013-05-13 03:54:00,63.0,41.9,30.09,East,81,0.0,0.0,46,0.00,,---,0.00,VWS V14.01,2013-05-13 07:54:00,
2013-05-13 03:55:00,62.9,42.9,30.09,East,81,0.0,0.0,48,0.00,,---,0.00,VWS V14.01,2013-05-13 07:55:00,
2013-05-13 03:56:00,62.8,42.8,30.09,East,81,0.0,0.0,48,0.00,,---,0.00,VWS V14.01,2013-05-13 07:56:00,
2013-05-13 03:57:00,62.7,42.8,30.09,East,81,0.0,0.0,48,0.00,,---,0.00,VWS V14.01,2013-05-13 07:57:00,
2013-05-13 03:58:00,62.6,42.7,30.09,East,81,0.0,0.0,48,0.00,,---,0.00,VWS V14.01,2013-05-13 07:58:00,
2013-05-13 03:59:00,62.5,43.1,30.09,East,81,0.0,0.0,49,0.00,,---,0.00,VWS V14.01,2013-05-13 07:59:00,
2013-05-13 04:00:00,62.5,43.1,30.09,East,81,0.0,0.0,49,0.00,,---,0.00,VWS V14.01,2013-05-13 08:00:00,
2013-05-13 04:01:00,62.3,42.9,30.09,East,81,0.0,0.0,49,0.00,,---,0.00,VWS V14.01,2013-05-13 08:01:00,
2013-05-13 04:02:00,62.3,42.9,30.10,East,81,0.0,0.0,49,0.00,,---,0.00,VWS V14.01,2013-05-13 08:02:00,
2013-05-13 04:03:00,62.2,42.8,30.10,East,81,0.0,0.0,49,0.00,,---,0.00,VWS V14.01,2013-05-13 08:03:00,
2013-05-13 04:04:00,62.1,43.3,30.10,East,81,0.0,0.0,50,0.00,,---,0.00,VWS V14.01,2013-05-13 08:04:00,
2013-05-13 04:05:00,62.0,43.2,30.10,East,81,0.0,0.0,50,0.00,,---,0.00,VWS V14.01,2013-05-13 08:05:00,
2013-05-13 04:06:00,61.9,43.6,30.10,East,81,0.0,0.0,51,0.00,,---,0.00,VWS V14.01,2013-05-13 08:06:00,
2013-05-13 04:07:00,61.8,43.5,30.10,East,81,0.0,0.0,51,0.00,,---,0.00,VWS V14.01,2013-05-13 08:07:00,
2013-05-13 04:08:00,61.7,43.4,30.10,East,81,0.0,0.0,51,0.00,,---,0.00,VWS V14.01,2013-05-13 08:08:00,
2013-05-13 04:09:00,61.6,43.8,30.10,East,81,0.0,0.0,52,0.00,,---,0.00,VWS V14.01,2013-05-13 08:09:00,
2013-05-13 04:10:00,61.5,43.7,30.10,East,81,0.0,1.0,52,0.00,,---,0.00,VWS V14.01,2013-05-13 08:10:00,
2013-05-13 04:11:00,61.4,43.6,30.10,East,81,0.0,1.0,52,0.00,,---,0.00,VWS V14.01,2013-05-13 08:11:00,
2013-05-13 04:12:00,61.3,44.0,30.10,East,81,0.0,1.0,53,0.00,,---,0.00,VWS V14.01,2013-05-13 08:12:00,
2013-05-13 04:13:00,61.3,44.0,30.10,East,81,0.0,1.0,53,0.00,,---,0.00,VWS V14.01,2013-05-13 08:13:00,
2013-05-13 04:14:00,61.2,44.0,30.10,East,81,0.0,1.0,53,0.00,,---,0.00,VWS V14.01,2013-05-13 08:14:00,
2013-05-13 04:15:00,61.1,44.3,30.10,East,81,0.0,1.0,54,0.00,,---,0.00,VWS V14.01,2013-05-13 08:15:00,
2013-05-13 04:16:00,61.1,44.3,30.10,East,81,0.0,1.0,54,0.00,,---,0.00,VWS V14.01,2013-05-13 08:16:00,
2013-05-13 04:17:00,61.0,44.2,30.10,East,81,0.0,1.0,54,0.00,,---,0.00,VWS V14.01,2013-05-13 08:17:00,
2013-05-13 04:18:00,60.9,44.2,30.10,East,81,0.0,1.0,54,0.00,,---,0.00,VWS V14.01,2013-05-13 08:18:00,
2013-05-13 04:19:00,60.8,44.5,30.10,East,81,0.0,1.0,55,0.00,,---,0.00,VWS V14.01,2013-05-13 08:19:00,
2013-05-13 04:20:00,60.8,44.5,30.11,East,81,0.0,1.0,55,0.00,,---,0.00,VWS V14.01,2013-05-13 08:20:00,
2013-05-13 04:21:00,60.7,44.5,30.11,East,81,0.0,1.0,55,0.00,,---,0.00,VWS V14.01,2013-05-13 08:21:00,
2013-05-13 04:22:00,60.7,44.5,30.11,East,81,0.0,1.0,55,0.00,,---,0.00,VWS V14.01,2013-05-13 08:22:00,
2013-05-13 04:23:00,60.6,44.4,30.11,East,81,0.0,1.0,55,0.00,,---,0.00,VWS V14.01,2013-05-13 08:23:00,
2013-05-13 04:24:00,60.5,44.3,30.11,East,81,0.0,1.0,55,0.00,,---,0.00,VWS V14.01,2013-05-13 08:24:00,
2013-05-13 04:25:00,60.4,44.2,30.11,East,81,0.0,1.0,55,0.00,,---,0.00,VWS V14.01,2013-05-13 08:25:00,
2013-05-13 04:26:00,60.3,44.6,30.11,East,81,0.0,1.0,56,0.00,,---,0.00,VWS V14.01,2013-05-13 08:26:00,
2013-05-13 04:27:00,60.2,44.5,30.11,East,81,0.0,1.0,56,0.00,,---,0.00,VWS V14.01,2013-05-13 08:27:00,
2013-05-13 04:28:00,60.1,44.4,30.11,East,81,0.0,1.0,56,0.00,,---,0.00,VWS V14.01,2013-05-13 08:28:00,
2013-05-13 04:29:00,60.0,43.8,30.11,East,81,0.0,1.0,55,0.00,,---,0.00,VWS V14.01,2013-05-13 08:29:00,
2013-05-13 04:30:00,59.9,44.2,30.11,East,81,0.0,0.0,56,0.00,,---,0.00,VWS V14.01,2013-05-13 08:30:00,
2013-05-13 04:31:00,59.7,44.0,30.11,East,81,0.0,0.0,56,0.00,,---,0.00,VWS V14.01,2013-05-13 08:31:00,
2013-05-13 04:32:00,59.6,43.9,30.11,East,81,0.0,0.0,56,0.00,,---,0.00,VWS V14.01,2013-05-13 08:32:00,
2013-05-13 04:33:00,59.5,43.8,30.11,East,81,0.0,0.0,56,0.00,,---,0.00,VWS V14.01,2013-05-13 08:33:00,
2013-05-13 04:34:00,59.4,43.7,30.11,East,81,0.0,0.0,56,0.00,,---,0.00,VWS V14.01,2013-05-13 08:34:00,
2013-05-13 04:35:00,59.2,43.5,30.11,East,81,0.0,0.0,56,0.00,,---,0.00,VWS V14.01,2013-05-13 08:35:00,
2013-05-13 04:36:00,59.1,43.9,30.11,East,81,0.0,0.0,57,0.00,,---,0.00,VWS V14.01,2013-05-13 08:36:00,
2013-05-13 04:37:00,59.0,43.8,30.11,East,81,0.0,0.0,57,0.00,,---,0.00,VWS V14.01,2013-05-13 08:37:00,
2013-05-13 04:38:00,58.8,43.6,30.12,East,81,0.0,0.0,57,0.00,,---,0.00,VWS V14.01,2013-05-13 08:38:00,
2013-05-13 04:39:00,58.7,43.5,30.12,East,81,0.0,0.0,57,0.00,,---,0.00,VWS V14.01,2013-05-13 08:39:00,
2013-05-13 04:40:00,58.6,43.9,30.12,East,81,0.0,0.0,58,0.00,,---,0.00,VWS V14.01,2013-05-13 08:40:00,
2013-05-13 04:41:00,58.5,43.8,30.12,East,81,0.0,0.0,58,0.00,,---,0.00,VWS V14.01,2013-05-13 08:41:00,
2013-05-13 04:42:00,58.4,44.1,30.12,East,81,0.0,0.0,59,0.00,,---,0.00,VWS V14.01,2013-05-13 08:42:00,
2013-05-13 04:43:00,58.2,44.0,30.12,East,81,0.0,0.0,59,0.00,,---,0.00,VWS V14.01,2013-05-13 08:43:00,
2013-05-13 04:44:00,58.2,44.0,30.12,East,81,0.0,0.0,59,0.00,,---,0.00,VWS V14.01,2013-05-13 08:44:00,
2013-05-13 04:45:00,58.0,44.2,30.12,East,81,0.0,0.0,60,0.00,,---,0.00,VWS V14.01,2013-05-13 08:45:00,
2013-05-13 04:46:00,57.9,44.1,30.12,East,81,0.0,0.0,60,0.00,,---,0.00,VWS V14.01,2013-05-13 08:46:00,
2013-05-13 04:47:00,57.8,44.0,30.12,East,83,0.0,1.0,60,0.00,,---,0.00,VWS V14.01,2013-05-13 08:47:00,
2013-05-13 04:48:00,57.8,44.5,30.12,East,88,0.0,1.0,61,0.00,,---,0.00,VWS V14.01,2013-05-13 08:48:00,
2013-05-13 04:49:00,57.7,44.8,30.12,SE,132,0.0,2.0,62,0.00,,---,0.00,VWS V14.01,2013-05-13 08:49:00,
2013-05-13 04:50:00,57.7,44.8,30.12,SE,132,0.0,2.0,62,0.00,,---,0.00,VWS V14.01,2013-05-13 08:50:00,
2013-05-13 04:51:00,57.6,44.7,30.12,SE,132,0.0,2.0,62,0.00,,---,0.00,VWS V14.01,2013-05-13 08:51:00,
2013-05-13 04:52:00,57.6,44.7,30.12,SE,132,0.0,2.0,62,0.00,,---,0.00,VWS V14.01,2013-05-13 08:52:00,
2013-05-13 04:53:00,57.5,45.0,30.12,SE,132,0.0,2.0,63,0.00,,---,0.00,VWS V14.01,2013-05-13 08:53:00,
2013-05-13 04:54:00,57.5,45.0,30.12,SE,132,0.0,2.0,63,0.00,,---,0.00,VWS V14.01,2013-05-13 08:54:00,
2013-05-13 04:55:00,57.5,45.0,30.12,SE,132,0.0,2.0,63,0.00,,---,0.00,VWS V14.01,2013-05-13 08:55:00,
2013-05-13 04:56:00,57.5,45.0,30.12,SE,132,0.0,2.0,63,0.00,,---,0.00,VWS V14.01,2013-05-13 08:56:00,
2013-05-13 04:57:00,57.4,44.9,30.12,SE,132,0.0,2.0,63,0.00,,---,0.00,VWS V14.01,2013-05-13 08:57:00,
2013-05-13 04:58:00,57.4,44.9,30.12,SE,132,0.0,2.0,63,0.00,,---,0.00,VWS V14.01,2013-05-13 08:58:00,
2013-05-13 04:59:00,57.3,44.8,30.12,SE,132,0.0,2.0,63,0.00,,---,0.00,VWS V14.01,2013-05-13 08:59:00,
2013-05-13 05:00:00,57.3,45.2,30.12,SE,132,0.0,2.0,64,0.00,,---,0.00,VWS V14.01,2013-05-13 09:00:00,
2013-05-13 05:01:00,57.3,45.2,30.12,SE,132,0.0,0.0,64,0.00,,---,0.00,VWS V14.01,2013-05-13 09:01:00,
2013-05-13 05:02:00,57.3,45.2,30.12,SE,132,0.0,0.0,64,0.00,,---,0.00,VWS V14.01,2013-05-13 09:02:00,
2013-05-13 05:03:00,57.2,45.2,30.12,SE,132,0.0,0.0,64,0.00,,---,0.00,VWS V14.01,2013-05-13 09:03:00,
2013-05-13 05:04:00,57.2,45.2,30.12,SE,132,0.0,0.0,64,0.00,,---,0.00,VWS V14.01,2013-05-13 09:04:00,
2013-05-13 05:05:00,57.2,45.6,30.12,SE,132,0.0,0.0,65,0.00,,---,0.00,VWS V14.01,2013-05-13 09:05:00,
2013-05-13 05:06:00,57.1,45.5,30.12,SE,132,0.0,0.0,65,0.00,,---,0.00,VWS V14.01,2013-05-13 09:06:00,
2013-05-13 05:07:00,57.1,45.5,30.13,SE,132,0.0,0.0,65,0.00,,---,0.00,VWS V14.01,2013-05-13 09:07:00,
2013-05-13 05:08:00,57.0,45.4,30.13,SE,132,0.0,0.0,65,0.00,,---,0.00,VWS V14.01,2013-05-13 09:08:00,
2013-05-13 05:09:00,56.8,45.6,30.13,SE,132,0.0,0.0,66,0.00,,---,0.00,VWS V14.01,2013-05-13 09:09:00,
2013-05-13 05:10:00,56.8,45.6,30.13,SE,132,0.0,0.0,66,0.00,,---,0.00,VWS V14.01,2013-05-13 09:10:00,
2013-05-13 05:11:00,56.7,45.5,30.13,SE,132,0.0,0.0,66,0.00,,---,0.00,VWS V14.01,2013-05-13 09:11:00,
2013-05-13 05:12:00,56.7,45.5,30.13,SE,132,0.0,0.0,66,0.00,,---,0.00,VWS V14.01,2013-05-13 09:12:00,
2013-05-13 05:13:00,56.6,45.4,30.13,SE,132,0.0,0.0,66,0.00,,---,0.00,VWS V14.01,2013-05-13 09:13:00,
2013-05-13 05:14:00,56.5,45.3,30.13,SE,132,0.0,0.0,66,0.00,,---,0.00,VWS V14.01,2013-05-13 09:14:00,
2013-05-13 05:15:00,56.4,45.2,30.13,SE,132,0.0,0.0,66,0.00,,---,0.00,VWS V14.01,2013-05-13 09:15:00,
2013-05-13 05:16:00,56.4,45.2,30.13,SE,132,0.0,0.0,66,0.00,,---,0.00,VWS V14.01,2013-05-13 09:16:00,
2013-05-13 05:17:00,56.3,44.7,30.13,SE,132,0.0,0.0,65,0.00,,---,0.00,VWS V14.01,2013-05-13 09:17:00,
2013-05-13 05:18:00,56.2,44.6,30.13,SE,132,0.0,0.0,65,0.00,,---,0.00,VWS V14.01,2013-05-13 09:18:00,
2013-05-13 05:19:00,56.2,44.6,30.13,SE,132,0.0,0.0,65,0.00,,---,0.00,VWS V14.01,2013-05-13 09:19:00,
2013-05-13 05:20:00,56.1,44.5,30.13,SE,132,0.0,0.0,65,0.00,,---,0.00,VWS V14.01,2013-05-13 09:20:00,
2013-05-13 05:21:00,56.0,44.4,30.13,SE,132,0.0,0.0,65,0.00,,---,0.00,VWS V14.01,2013-05-13 09:21:00,
2013-05-13 05:22:00,56.0,44.4,30.13,SE,132,0.0,0.0,65,0.00,,---,0.00,VWS V14.01,2013-05-13 09:22:00,
2013-05-13 05:23:00,55.9,44.7,30.13,SE,132,0.0,0.0,66,0.00,,---,0.00,VWS V14.01,2013-05-13 09:23:00,
2013-05-13 05:24:00,55.8,44.6,30.13,SE,132,0.0,0.0,66,0.00,,---,0.00,VWS V14.01,2013-05-13 09:24:00,
2013-05-13 05:25:00,55.8,44.6,30.13,SE,132,0.0,0.0,66,0.00,,---,0.00,VWS V14.01,2013-05-13 09:25:00,
2013-05-13 05:26:00,55.8,44.6,30.13,SE,132,0.0,0.0,66,0.00,,---,0.00,VWS V14.01,2013-05-13 09:26:00,
2013-05-13 05:27:00,55.7,44.5,30.13,SE,132,0.0,0.0,66,0.00,,---,0.00,VWS V14.01,2013-05-13 09:27:00,
2013-05-13 05:28:00,55.7,44.9,30.13,SE,132,0.0,0.0,67,0.00,,---,0.00,VWS V14.01,2013-05-13 09:28:00,
2013-05-13 05:29:00,55.6,44.8,30.13,SE,132,0.0,0.0,67,0.00,,---,0.00,VWS V14.01,2013-05-13 09:29:00,
2013-05-13 05:30:00,55.6,44.8,30.13,SE,132,0.0,0.0,67,0.00,,---,0.00,VWS V14.01,2013-05-13 09:30:00,
2013-05-13 05:31:00,55.6,44.8,30.13,SE,132,0.0,0.0,67,0.00,,---,0.00,VWS V14.01,2013-05-13 09:31:00,
2013-05-13 05:32:00,55.6,44.8,30.13,ENE,69,0.0,1.0,67,0.00,,---,0.00,VWS V14.01,2013-05-13 09:32:00,
2013-05-13 05:33:00,55.5,44.3,30.13,ENE,69,0.0,1.0,66,0.00,,---,0.00,VWS V14.01,2013-05-13 09:33:00,
2013-05-13 05:34:00,55.4,44.6,30.13,ENE,69,0.0,1.0,67,0.00,,---,0.00,VWS V14.01,2013-05-13 09:34:00,
2013-05-13 05:35:00,55.4,44.6,30.13,ENE,69,0.0,1.0,67,0.00,,---,0.00,VWS V14.01,2013-05-13 09:35:00,
2013-05-13 05:36:00,55.3,44.5,30.13,ENE,69,0.0,1.0,67,0.00,,---,0.00,VWS V14.01,2013-05-13 09:36:00,
2013-05-13 05:37:00,55.3,44.5,30.13,ENE,69,0.0,1.0,67,0.00,,---,0.00,VWS V14.01,2013-05-13 09:37:00,
2013-05-13 05:38:00,55.2,44.5,30.14,ENE,69,0.0,1.0,67,0.00,,---,0.00,VWS V14.01,2013-05-13 09:38:00,
2013-05-13 05:39:00,55.2,44.5,30.14,ENE,69,0.0,1.0,67,0.00,,---,0.00,VWS V14.01,2013-05-13 09:39:00,
2013-05-13 05:40:00,55.1,44.3,30.14,ENE,69,0.0,1.0,67,0.00,,---,0.00,VWS V14.01,2013-05-13 09:40:00,
2013-05-13 05:41:00,55.1,44.3,30.14,ENE,69,0.0,1.0,67,0.00,,---,0.00,VWS V14.01,2013-05-13 09:41:00,
2013-05-13 05:42:00,55.1,44.7,30.14,ENE,69,0.0,1.0,68,0.00,,---,0.00,VWS V14.01,2013-05-13 09:42:00,
2013-05-13 05:43:00,55.1,44.7,30.14,ENE,69,0.0,1.0,68,0.00,,---,0.00,VWS V14.01,2013-05-13 09:43:00,
2013-05-13 05:44:00,55.1,44.7,30.14,ENE,69,0.0,1.0,68,0.00,,---,0.00,VWS V14.01,2013-05-13 09:44:00,
2013-05-13 05:45:00,55.1,44.7,30.14,ENE,69,0.0,1.0,68,0.00,,---,0.00,VWS V14.01,2013-05-13 09:45:00,
2013-05-13 05:46:00,55.1,44.7,30.14,ENE,69,0.0,1.0,68,0.00,,---,0.00,VWS V14.01,2013-05-13 09:46:00,
2013-05-13 05:47:00,55.0,44.7,30.14,ENE,69,0.0,1.0,68,0.00,,---,0.00,VWS V14.01,2013-05-13 09:47:00,
2013-05-13 05:48:00,55.0,45.0,30.14,ENE,69,0.0,1.0,69,0.00,,---,0.00,VWS V14.01,2013-05-13 09:48:00,
2013-05-13 05:49:00,55.0,45.0,30.14,ENE,69,0.0,1.0,69,0.00,,---,0.00,VWS V14.01,2013-05-13 09:49:00,
2013-05-13 05:50:00,55.0,45.0,30.14,ENE,69,0.0,1.0,69,0.00,,---,0.00,VWS V14.01,2013-05-13 09:50:00,
2013-05-13 05:51:00,54.9,44.9,30.14,ENE,69,0.0,1.0,69,0.00,,---,0.00,VWS V14.01,2013-05-13 09:51:00,
2013-05-13 05:52:00,54.9,45.3,30.14,ENE,69,0.0,1.0,70,0.00,,---,0.00,VWS V14.01,2013-05-13 09:52:00,
2013-05-13 05:53:00,54.8,45.2,30.14,ENE,69,0.0,1.0,70,0.00,,---,0.00,VWS V14.01,2013-05-13 09:53:00,
2013-05-13 05:54:00,54.8,45.2,30.14,ENE,69,0.0,1.0,70,0.00,,---,0.00,VWS V14.01,2013-05-13 09:54:00,
2013-05-13 05:55:00,54.8,44.8,30.14,ENE,69,0.0,1.0,69,0.00,,---,0.00,VWS V14.01,2013-05-13 09:55:00,
2013-05-13 05:56:00,54.7,44.7,30.14,ENE,69,0.0,1.0,69,0.00,,---,0.00,VWS V14.01,2013-05-13 09:56:00,
2013-05-13 05:57:00,54.7,44.7,30.14,ENE,69,0.0,1.0,69,0.00,,---,0.00,VWS V14.01,2013-05-13 09:57:00,
2013-05-13 05:58:00,54.6,44.7,30.14,ENE,69,0.0,1.0,69,0.00,,---,0.00,VWS V14.01,2013-05-13 09:58:00,
2013-05-13 05:59:00,54.6,45.0,30.14,ENE,69,0.0,1.0,70,0.00,,---,0.00,VWS V14.01,2013-05-13 09:59:00,
2013-05-13 06:00:00,54.6,45.0,30.14,ENE,69,0.0,1.0,70,0.00,,---,0.00,VWS V14.01,2013-05-13 10:00:00,
2013-05-13 06:01:00,54.5,44.9,30.14,ENE,69,0.0,0.0,70,0.00,,---,0.00,VWS V14.01,2013-05-13 10:01:00,
2013-05-13 06:02:00,54.5,44.9,30.14,ENE,69,0.0,0.0,70,0.00,,---,0.00,VWS V14.01,2013-05-13 10:02:00,
2013-05-13 06:03:00,54.4,44.8,30.14,ENE,69,0.0,0.0,70,0.00,,---,0.00,VWS V14.01,2013-05-13 10:03:00,
2013-05-13 06:04:00,54.4,44.8,30.14,ENE,69,0.0,0.0,70,0.00,,---,0.00,VWS V14.01,2013-05-13 10:04:00,
2013-05-13 06:05:00,54.4,45.2,30.14,ENE,69,0.0,0.0,71,0.00,,---,0.00,VWS V14.01,2013-05-13 10:05:00,
2013-05-13 06:06:00,54.4,45.2,30.14,ENE,69,0.0,0.0,71,0.00,,---,0.00,VWS V14.01,2013-05-13 10:06:00,
2013-05-13 06:07:00,54.3,45.1,30.14,ENE,69,0.0,0.0,71,0.00,,---,0.00,VWS V14.01,2013-05-13 10:07:00,
2013-05-13 06:08:00,54.3,45.1,30.14,ENE,69,0.0,0.0,71,0.00,,---,0.00,VWS V14.01,2013-05-13 10:08:00,
2013-05-13 06:09:00,54.2,45.0,30.14,ENE,69,0.0,0.0,71,0.00,,---,0.00,VWS V14.01,2013-05-13 10:09:00,
2013-05-13 06:10:00,54.2,45.0,30.14,ENE,69,0.0,0.0,71,0.00,,---,0.00,VWS V14.01,2013-05-13 10:10:00,
2013-05-13 06:11:00,54.2,45.4,30.14,ENE,69,0.0,0.0,72,0.00,,---,0.00,VWS V14.01,2013-05-13 10:11:00,
2013-05-13 06:12:00,54.2,45.4,30.14,ENE,69,0.0,0.0,72,0.00,,---,0.00,VWS V14.01,2013-05-13 10:12:00,
2013-05-13 06:13:00,54.2,45.4,30.14,ENE,69,0.0,0.0,72,0.00,,---,0.00,VWS V14.01,2013-05-13 10:13:00,
2013-05-13 06:14:00,54.1,45.3,30.14,ENE,69,0.0,0.0,72,0.00,,---,0.00,VWS V14.01,2013-05-13 10:14:00,
2013-05-13 06:15:00,54.1,45.3,30.14,ENE,69,0.0,0.0,72,0.00,,---,0.00,VWS V14.01,2013-05-13 10:15:00,
2013-05-13 06:16:00,54.1,45.3,30.14,ENE,69,0.0,0.0,72,0.00,,---,0.00,VWS V14.01,2013-05-13 10:16:00,
2013-05-13 06:17:00,54.0,45.2,30.14,ENE,69,0.0,0.0,72,0.00,,---,0.00,VWS V14.01,2013-05-13 10:17:00,
2013-05-13 06:18:00,54.1,45.3,30.14,ENE,69,0.0,0.0,72,0.00,,---,0.00,VWS V14.01,2013-05-13 10:18:00,
2013-05-13 06:19:00,54.0,45.2,30.14,ENE,69,0.0,0.0,72,0.00,,---,0.00,VWS V14.01,2013-05-13 10:19:00,
2013-05-13 06:20:00,54.0,45.2,30.14,ENE,69,0.0,0.0,72,0.00,,---,0.00,VWS V14.01,2013-05-13 10:20:00,
2013-05-13 06:21:00,54.0,45.2,30.14,ENE,69,0.0,0.0,72,0.00,,---,0.00,VWS V14.01,2013-05-13 10:21:00,
2013-05-13 06:22:00,54.0,45.2,30.14,ENE,69,0.0,0.0,72,0.00,,---,0.00,VWS V14.01,2013-05-13 10:22:00,
2013-05-13 06:23:00,53.9,45.5,30.14,ENE,69,0.0,0.0,73,0.00,,---,0.00,VWS V14.01,2013-05-13 10:23:00,
2013-05-13 06:24:00,53.9,45.5,30.14,ENE,69,0.0,0.0,73,0.00,,---,0.00,VWS V14.01,2013-05-13 10:24:00,
2013-05-13 06:25:00,53.9,45.5,30.14,ENE,69,0.0,0.0,73,0.00,,---,0.00,VWS V14.01,2013-05-13 10:25:00,
2013-05-13 06:26:00,53.8,45.4,30.15,ENE,69,0.0,0.0,73,0.00,,---,0.00,VWS V14.01,2013-05-13 10:26:00,
2013-05-13 06:27:00,53.8,45.4,30.15,ENE,69,0.0,0.0,73,0.00,,---,0.00,VWS V14.01,2013-05-13 10:27:00,
2013-05-13 06:28:00,53.7,45.3,30.14,ENE,69,0.0,0.0,73,0.00,,---,0.00,VWS V14.01,2013-05-13 10:28:00,
2013-05-13 06:29:00,53.7,45.6,30.14,ENE,69,0.0,0.0,74,0.00,,---,0.00,VWS V14.01,2013-05-13 10:29:00,
2013-05-13 06:30:00,53.7,45.6,30.14,ENE,69,0.0,0.0,74,0.00,,---,0.00,VWS V14.01,2013-05-13 10:30:00,
2013-05-13 06:31:00,53.6,45.5,30.14,ENE,69,0.0,0.0,74,0.00,,---,0.00,VWS V14.01,2013-05-13 10:31:00,
2013-05-13 06:32:00,53.6,45.5,30.14,ENE,69,0.0,0.0,74,0.00,,---,0.00,VWS V14.01,2013-05-13 10:32:00,
2013-05-13 06:33:00,53.5,45.4,30.14,ENE,69,0.0,0.0,74,0.00,,---,0.00,VWS V14.01,2013-05-13 10:33:00,
2013-05-13 06:34:00,53.5,45.4,30.14,ENE,69,0.0,0.0,74,0.00,,---,0.00,VWS V14.01,2013-05-13 10:34:00,
2013-05-13 06:35:00,53.5,45.4,30.14,ENE,69,0.0,0.0,74,0.00,,---,0.00,VWS V14.01,2013-05-13 10:35:00,
2013-05-13 06:36:00,53.4,45.3,30.14,ENE,69,0.0,0.0,74,0.00,,---,0.00,VWS V14.01,2013-05-13 10:36:00,
2013-05-13 06:37:00,53.4,45.7,30.14,ENE,69,0.0,0.0,75,0.00,,---,0.00,VWS V14.01,2013-05-13 10:37:00,
2013-05-13 06:38:00,53.3,45.6,30.14,ENE,69,0.0,0.0,75,0.00,,---,0.00,VWS V14.01,2013-05-13 10:38:00,
2013-05-13 06:39:00,53.3,45.2,30.14,ENE,69,0.0,0.0,74,0.00,,---,0.00,VWS V14.01,2013-05-13 10:39:00,
2013-05-13 06:40:00,53.3,45.6,30.14,ENE,69,0.0,0.0,75,0.00,,---,0.00,VWS V14.01,2013-05-13 10:40:00,
2013-05-13 06:41:00,53.3,45.2,30.14,ENE,69,0.0,0.0,74,0.00,,---,0.00,VWS V14.01,2013-05-13 10:41:00,
2013-05-13 06:42:00,53.3,45.2,30.14,ENE,69,0.0,0.0,74,0.00,,---,0.00,VWS V14.01,2013-05-13 10:42:00,
2013-05-13 06:43:00,53.3,45.6,30.14,ENE,69,0.0,0.0,75,0.00,,---,0.00,VWS V14.01,2013-05-13 10:43:00,
2013-05-13 06:44:00,53.2,45.5,30.14,ENE,69,0.0,0.0,75,0.00,,---,0.00,VWS V14.01,2013-05-13 10:44:00,
2013-05-13 06:45:00,53.2,45.5,30.14,ENE,69,0.0,0.0,75,0.00,,---,0.00,VWS V14.01,2013-05-13 10:45:00,
2013-05-13 06:46:00,53.2,45.5,30.14,ENE,69,0.0,0.0,75,0.00,,---,0.00,VWS V14.01,2013-05-13 10:46:00,
2013-05-13 06:47:00,53.2,45.5,30.14,ENE,69,0.0,0.0,75,0.00,,---,0.00,VWS V14.01,2013-05-13 10:47:00,
2013-05-13 06:48:00,53.1,45.4,30.14,ENE,69,0.0,0.0,75,0.00,,---,0.00,VWS V14.01,2013-05-13 10:48:00,
2013-05-13 06:49:00,53.1,45.4,30.14,ENE,69,0.0,0.0,75,0.00,,---,0.00,VWS V14.01,2013-05-13 10:49:00,
2013-05-13 06:50:00,53.1,45.4,30.14,ENE,69,0.0,0.0,75,0.00,,---,0.00,VWS V14.01,2013-05-13 10:50:00,
2013-05-13 06:51:00,53.0,45.3,30.15,ENE,69,0.0,0.0,75,0.00,,---,0.00,VWS V14.01,2013-05-13 10:51:00,
2013-05-13 06:52:00,53.0,45.3,30.15,ENE,69,0.0,0.0,75,0.00,,---,0.00,VWS V14.01,2013-05-13 10:52:00,
2013-05-13 06:53:00,52.9,45.2,30.15,ENE,69,0.0,0.0,75,0.00,,---,0.00,VWS V14.01,2013-05-13 10:53:00,
2013-05-13 06:54:00,52.9,45.5,30.15,ENE,69,0.0,0.0,76,0.00,,---,0.00,VWS V14.01,2013-05-13 10:54:00,
2013-05-13 06:55:00,52.8,45.5,30.15,ENE,69,0.0,0.0,76,0.00,,---,0.00,VWS V14.01,2013-05-13 10:55:00,
2013-05-13 06:56:00,52.8,45.5,30.15,ENE,69,0.0,0.0,76,0.00,,---,0.00,VWS V14.01,2013-05-13 10:56:00,
2013-05-13 06:57:00,52.8,45.5,30.15,ENE,69,0.0,0.0,76,0.00,,---,0.00,VWS V14.01,2013-05-13 10:57:00,
2013-05-13 06:58:00,52.7,45.4,30.15,ENE,69,0.0,0.0,76,0.00,,---,0.00,VWS V14.01,2013-05-13 10:58:00,
2013-05-13 06:59:00,52.7,45.4,30.15,ENE,69,0.0,0.0,76,0.00,,---,0.00,VWS V14.01,2013-05-13 10:59:00,
2013-05-13 07:00:00,52.6,45.3,30.15,ENE,69,0.0,0.0,76,0.00,,---,0.00,VWS V14.01,2013-05-13 11:00:00,
2013-05-13 07:01:00,52.6,45.3,30.15,ENE,69,0.0,0.0,76,0.00,,---,0.00,VWS V14.01,2013-05-13 11:01:00,
2013-05-13 07:02:00,52.6,45.6,30.15,ENE,69,0.0,0.0,77,0.00,,---,0.00,VWS V14.01,2013-05-13 11:02:00,
2013-05-13 07:03:00,52.6,45.6,30.15,ENE,69,0.0,0.0,77,0.00,,---,0.00,VWS V14.01,2013-05-13 11:03:00,
2013-05-13 07:04:00,52.6,45.6,30.15,ENE,69,0.0,0.0,77,0.00,,---,0.00,VWS V14.01,2013-05-13 11:04:00,
2013-05-13 07:05:00,52.5,45.5,30.15,ENE,69,0.0,0.0,77,0.00,,---,0.00,VWS V14.01,2013-05-13 11:05:00,
2013-05-13 07:06:00,52.5,45.5,30.15,ENE,69,0.0,0.0,77,0.00,,---,0.00,VWS V14.01,2013-05-13 11:06:00,
2013-05-13 07:07:00,52.5,45.5,30.15,ENE,69,0.0,0.0,77,0.00,,---,0.00,VWS V14.01,2013-05-13 11:07:00,
2013-05-13 07:08:00,52.5,45.5,30.15,ENE,69,0.0,0.0,77,0.00,,---,0.00,VWS V14.01,2013-05-13 11:08:00,
2013-05-13 07:09:00,52.5,45.5,30.15,ENE,69,0.0,0.0,77,0.00,,---,0.00,VWS V14.01,2013-05-13 11:09:00,
2013-05-13 07:10:00,52.4,45.4,30.15,ENE,69,0.0,0.0,77,0.00,,---,0.00,VWS V14.01,2013-05-13 11:10:00,
2013-05-13 07:11:00,52.4,45.4,30.15,ENE,69,0.0,0.0,77,0.00,,---,0.00,VWS V14.01,2013-05-13 11:11:00,
2013-05-13 07:12:00,52.4,45.8,30.15,ENE,69,0.0,0.0,78,0.00,,---,0.00,VWS V14.01,2013-05-13 11:12:00,
2013-05-13 07:13:00,52.4,45.4,30.15,ENE,69,0.0,0.0,77,0.00,,---,0.00,VWS V14.01,2013-05-13 11:13:00,
2013-05-13 07:14:00,52.3,45.7,30.15,ENE,69,0.0,0.0,78,0.00,,---,0.00,VWS V14.01,2013-05-13 11:14:00,
2013-05-13 07:15:00,52.3,45.3,30.15,ENE,69,0.0,0.0,77,0.00,,---,0.00,VWS V14.01,2013-05-13 11:15:00,
2013-05-13 07:16:00,52.3,45.3,30.15,ENE,69,0.0,0.0,77,0.00,,---,0.00,VWS V14.01,2013-05-13 11:16:00,
2013-05-13 07:17:00,52.3,45.3,30.15,ENE,69,0.0,0.0,77,0.00,,---,0.00,VWS V14.01,2013-05-13 11:17:00,
2013-05-13 07:18:00,52.2,45.6,30.15,ENE,69,0.0,0.0,78,0.00,,---,0.00,VWS V14.01,2013-05-13 11:18:00,
2013-05-13 07:19:00,52.2,45.6,30.15,ENE,69,0.0,0.0,78,0.00,,---,0.00,VWS V14.01,2013-05-13 11:19:00,
2013-05-13 07:20:00,52.1,45.5,30.15,ENE,69,0.0,0.0,78,0.00,,---,0.00,VWS V14.01,2013-05-13 11:20:00,
2013-05-13 07:21:00,52.1,45.1,30.15,ENE,69,0.0,0.0,77,0.00,,---,0.00,VWS V14.01,2013-05-13 11:21:00,
2013-05-13 07:22:00,52.1,45.5,30.15,ENE,69,0.0,0.0,78,0.00,,---,0.00,VWS V14.01,2013-05-13 11:22:00,
2013-05-13 07:23:00,52.0,45.4,30.15,ENE,69,0.0,0.0,78,0.00,,---,0.00,VWS V14.01,2013-05-13 11:23:00,
2013-05-13 07:24:00,52.0,45.4,30.15,ENE,69,0.0,0.0,78,0.00,,---,0.00,VWS V14.01,2013-05-13 11:24:00,
2013-05-13 07:25:00,52.0,45.4,30.15,ENE,69,0.0,0.0,78,0.00,,---,0.00,VWS V14.01,2013-05-13 11:25:00,
2013-05-13 07:26:00,52.0,45.4,30.15,ENE,69,0.0,0.0,78,0.00,,---,0.00,VWS V14.01,2013-05-13 11:26:00,
2013-05-13 07:27:00,51.9,45.3,30.15,ENE,69,0.0,0.0,78,0.00,,---,0.00,VWS V14.01,2013-05-13 11:27:00,
2013-05-13 07:28:00,51.9,45.3,30.15,ENE,69,0.0,0.0,78,0.00,,---,0.00,VWS V14.01,2013-05-13 11:28:00,
2013-05-13 07:29:00,51.9,45.3,30.15,ENE,69,0.0,0.0,78,0.00,,---,0.00,VWS V14.01,2013-05-13 11:29:00,
2013-05-13 07:30:00,51.8,45.2,30.15,ENE,69,0.0,0.0,78,0.00,,---,0.00,VWS V14.01,2013-05-13 11:30:00,
2013-05-13 07:31:00,51.8,45.2,30.15,ENE,69,0.0,0.0,78,0.00,,---,0.00,VWS V14.01,2013-05-13 11:31:00,
2013-05-13 07:32:00,51.8,45.2,30.15,ENE,69,0.0,0.0,78,0.00,,---,0.00,VWS V14.01,2013-05-13 11:32:00,
2013-05-13 07:33:00,51.7,45.1,30.15,ENE,69,0.0,0.0,78,0.00,,---,0.00,VWS V14.01,2013-05-13 11:33:00,
2013-05-13 07:34:00,51.7,45.1,30.15,ENE,69,0.0,0.0,78,0.00,,---,0.00,VWS V14.01,2013-05-13 11:34:00,
2013-05-13 07:35:00,51.7,45.1,30.15,ENE,69,0.0,0.0,78,0.00,,---,0.00,VWS V14.01,2013-05-13 11:35:00,
2013-05-13 07:36:00,51.7,45.1,30.15,ENE,69,0.0,0.0,78,0.00,,---,0.00,VWS V14.01,2013-05-13 11:36:00,
2013-05-13 07:37:00,51.7,45.1,30.15,ENE,69,0.0,0.0,78,0.00,,---,0.00,VWS V14.01,2013-05-13 11:37:00,
2013-05-13 07:38:00,51.6,45.0,30.15,ENE,69,0.0,0.0,78,0.00,,---,0.00,VWS V14.01,2013-05-13 11:38:00,
2013-05-13 07:39:00,51.6,45.0,30.15,ENE,69,0.0,0.0,78,0.00,,---,0.00,VWS V14.01,2013-05-13 11:39:00,
2013-05-13 07:40:00,51.6,45.3,30.15,ENE,69,0.0,0.0,79,0.00,,---,0.00,VWS V14.01,2013-05-13 11:40:00,
2013-05-13 07:41:00,51.6,45.3,30.15,ENE,69,0.0,0.0,79,0.00,,---,0.00,VWS V14.01,2013-05-13 11:41:00,
2013-05-13 07:42:00,51.6,45.3,30.15,ENE,69,0.0,0.0,79,0.00,,---,0.00,VWS V14.01,2013-05-13 11:42:00,
2013-05-13 07:43:00,51.6,45.3,30.15,ENE,69,0.0,0.0,79,0.00,,---,0.00,VWS V14.01,2013-05-13 11:43:00,
2013-05-13 07:44:00,51.7,45.4,30.15,ENE,69,0.0,0.0,79,0.00,,---,0.00,VWS V14.01,2013-05-13 11:44:00,
2013-05-13 07:45:00,51.6,45.6,30.15,ENE,69,0.0,0.0,80,0.00,,---,0.00,VWS V14.01,2013-05-13 11:45:00,
2013-05-13 07:46:00,51.7,45.7,30.15,ENE,69,0.0,0.0,80,0.00,,---,0.00,VWS V14.01,2013-05-13 11:46:00,
2013-05-13 07:47:00,51.6,45.6,30.15,ENE,69,0.0,0.0,80,0.00,,---,0.00,VWS V14.01,2013-05-13 11:47:00,
2013-05-13 07:48:00,51.7,45.7,30.15,ENE,69,0.0,0.0,80,0.00,,---,0.00,VWS V14.01,2013-05-13 11:48:00,
2013-05-13 07:49:00,51.7,45.4,30.15,ENE,69,0.0,0.0,79,0.00,,---,0.00,VWS V14.01,2013-05-13 11:49:00,
2013-05-13 07:50:00,51.6,45.3,30.15,ENE,69,0.0,0.0,79,0.00,,---,0.00,VWS V14.01,2013-05-13 11:50:00,
2013-05-13 07:51:00,51.6,45.3,30.15,ENE,69,0.0,0.0,79,0.00,,---,0.00,VWS V14.01,2013-05-13 11:51:00,
2013-05-13 07:52:00,51.6,45.3,30.15,ENE,69,0.0,0.0,79,0.00,,---,0.00,VWS V14.01,2013-05-13 11:52:00,
2013-05-13 07:53:00,51.5,45.2,30.15,ENE,69,0.0,0.0,79,0.00,,---,0.00,VWS V14.01,2013-05-13 11:53:00,
2013-05-13 07:54:00,51.5,45.2,30.15,ENE,69,0.0,0.0,79,0.00,,---,0.00,VWS V14.01,2013-05-13 11:54:00,
2013-05-13 07:55:00,51.5,45.2,30.15,ENE,69,0.0,0.0,79,0.00,,---,0.00,VWS V14.01,2013-05-13 11:55:00,
2013-05-13 07:56:00,51.5,45.2,30.15,ENE,69,0.0,0.0,79,0.00,,---,0.00,VWS V14.01,2013-05-13 11:56:00,
2013-05-13 07:57:00,51.5,45.2,30.15,ENE,69,0.0,0.0,79,0.00,,---,0.00,VWS V14.01,2013-05-13 11:57:00,
2013-05-13 07:58:00,51.5,45.5,30.15,ENE,69,0.0,0.0,80,0.00,,---,0.00,VWS V14.01,2013-05-13 11:58:00,
2013-05-13 07:59:00,51.5,45.5,30.15,ENE,69,0.0,0.0,80,0.00,,---,0.00,VWS V14.01,2013-05-13 11:59:00,
2013-05-13 08:00:00,51.4,45.5,30.15,ENE,69,0.0,0.0,80,0.00,,---,0.00,VWS V14.01,2013-05-13 12:00:00,
2013-05-13 08:01:00,51.4,45.5,30.15,ENE,69,0.0,0.0,80,0.00,,---,0.00,VWS V14.01,2013-05-13 12:01:00,
2013-05-13 08:02:00,51.4,45.5,30.15,ENE,69,0.0,0.0,80,0.00,,---,0.00,VWS V14.01,2013-05-13 12:02:00,
2013-05-13 08:03:00,51.4,45.5,30.15,ENE,69,0.0,0.0,80,0.00,,---,0.00,VWS V14.01,2013-05-13 12:03:00,
2013-05-13 08:04:00,51.3,45.3,30.15,ENE,69,0.0,0.0,80,0.00,,---,0.00,VWS V14.01,2013-05-13 12:04:00,
2013-05-13 08:05:00,51.3,45.3,30.15,ENE,69,0.0,0.0,80,0.00,,---,0.00,VWS V14.01,2013-05-13 12:05:00,
2013-05-13 08:06:00,51.3,45.3,30.15,ENE,69,0.0,0.0,80,0.00,,---,0.00,VWS V14.01,2013-05-13 12:06:00,
2013-05-13 08:07:00,51.3,45.3,30.15,ENE,69,0.0,0.0,80,0.00,,---,0.00,VWS V14.01,2013-05-13 12:07:00,
2013-05-13 08:08:00,51.2,45.6,30.15,ENE,69,0.0,0.0,81,0.00,,---,0.00,VWS V14.01,2013-05-13 12:08:00,
2013-05-13 08:09:00,51.2,45.6,30.15,ENE,69,0.0,1.0,81,0.00,,---,0.00,VWS V14.01,2013-05-13 12:09:00,
2013-05-13 08:10:00,51.3,45.7,30.15,SSE,150,0.0,2.0,81,0.00,,---,0.00,VWS V14.01,2013-05-13 12:10:00,
2013-05-13 08:11:00,51.4,45.8,30.15,SSE,150,0.0,2.0,81,0.00,,---,0.00,VWS V14.01,2013-05-13 12:11:00,
2013-05-13 08:12:00,51.4,45.8,30.15,SSE,150,0.0,3.0,81,0.00,,---,0.00,VWS V14.01,2013-05-13 12:12:00,
2013-05-13 08:13:00,51.4,45.8,30.15,SSE,150,0.0,3.0,81,0.00,,---,0.00,VWS V14.01,2013-05-13 12:13:00,
2013-05-13 08:14:00,51.4,45.8,30.15,SSE,150,0.0,3.0,81,0.00,,---,0.00,VWS V14.01,2013-05-13 12:14:00,
2013-05-13 08:15:00,51.3,45.7,30.15,SSE,150,0.0,3.0,81,0.00,,---,0.00,VWS V14.01,2013-05-13 12:15:00,
2013-05-13 08:16:00,51.3,45.7,30.15,SSE,150,0.0,3.0,81,0.00,,---,0.00,VWS V14.01,2013-05-13 12:16:00,
2013-05-13 08:17:00,51.3,45.7,30.15,SSE,150,0.0,3.0,81,0.00,,---,0.00,VWS V14.01,2013-05-13 12:17:00,
2013-05-13 08:18:00,51.3,45.7,30.15,SSE,150,0.0,3.0,81,0.00,,---,0.00,VWS V14.01,2013-05-13 12:18:00,
2013-05-13 08:19:00,51.3,45.7,30.15,SSE,150,0.0,3.0,81,0.00,,---,0.00,VWS V14.01,2013-05-13 12:19:00,
2013-05-13 08:20:00,51.3,45.7,30.15,SSE,150,0.0,3.0,81,0.00,,---,0.00,VWS V14.01,2013-05-13 12:20:00,
2013-05-13 08:21:00,51.3,45.7,30.15,SSE,150,0.0,3.0,81,0.00,,---,0.00,VWS V14.01,2013-05-13 12:21:00,
2013-05-13 08:22:00,51.3,45.7,30.15,SSE,150,0.0,3.0,81,0.00,,---,0.00,VWS V14.01,2013-05-13 12:22:00,
2013-05-13 08:23:00,51.3,45.7,30.15,SSE,150,0.0,3.0,81,0.00,,---,0.00,VWS V14.01,2013-05-13 12:23:00,
2013-05-13 08:24:00,51.3,45.7,30.15,SSE,150,0.0,3.0,81,0.00,,---,0.00,VWS V14.01,2013-05-13 12:24:00,
2013-05-13 08:25:00,51.3,45.7,30.15,SSE,150,0.0,3.0,81,0.00,,---,0.00,VWS V14.01,2013-05-13 12:25:00,
2013-05-13 08:26:00,51.3,45.7,30.16,SSE,150,0.0,3.0,81,0.00,,---,0.00,VWS V14.01,2013-05-13 12:26:00,
2013-05-13 08:27:00,51.3,45.7,30.16,SSE,150,0.0,3.0,81,0.00,,---,0.00,VWS V14.01,2013-05-13 12:27:00,
2013-05-13 08:28:00,51.3,45.7,30.16,SSE,150,0.0,3.0,81,0.00,,---,0.00,VWS V14.01,2013-05-13 12:28:00,
2013-05-13 08:29:00,51.3,45.7,30.15,SSE,150,0.0,3.0,81,0.00,,---,0.00,VWS V14.01,2013-05-13 12:29:00,
2013-05-13 08:30:00,51.3,45.3,30.15,SSE,150,0.0,3.0,80,0.00,,---,0.00,VWS V14.01,2013-05-13 12:30:00,
2013-05-13 08:31:00,51.3,45.3,30.15,SSE,150,0.0,0.0,80,0.00,,---,0.00,VWS V14.01,2013-05-13 12:31:00,
2013-05-13 08:32:00,51.3,45.3,30.15,SSE,150,0.0,0.0,80,0.00,,---,0.00,VWS V14.01,2013-05-13 12:32:00,
2013-05-13 08:33:00,51.3,45.3,30.15,SSE,150,0.0,0.0,80,0.00,,---,0.00,VWS V14.01,2013-05-13 12:33:00,
2013-05-13 08:34:00,51.3,45.3,30.15,SSE,150,0.0,0.0,80,0.00,,---,0.00,VWS V14.01,2013-05-13 12:34:00,
2013-05-13 08:35:00,51.3,45.3,30.16,SSE,150,0.0,0.0,80,0.00,,---,0.00,VWS V14.01,2013-05-13 12:35:00,
2013-05-13 08:36:00,51.3,45.3,30.16,SSE,150,0.0,1.0,80,0.00,,---,0.00,VWS V14.01,2013-05-13 12:36:00,
2013-05-13 08:37:00,51.3,45.3,30.16,SSE,150,0.0,1.0,80,0.00,,---,0.00,VWS V14.01,2013-05-13 12:37:00,
2013-05-13 08:38:00,51.3,45.3,30.16,SSE,150,0.0,1.0,80,0.00,,---,0.00,VWS V14.01,2013-05-13 12:38:00,
2013-05-13 08:39:00,51.4,45.5,30.16,SSE,150,0.0,1.0,80,0.00,,---,0.00,VWS V14.01,2013-05-13 12:39:00,
2013-05-13 08:40:00,51.3,45.3,30.16,SSE,150,0.0,1.0,80,0.00,,---,0.00,VWS V14.01,2013-05-13 12:40:00,
2013-05-13 08:41:00,51.3,45.3,30.16,SSE,150,0.0,1.0,80,0.00,,---,0.00,VWS V14.01,2013-05-13 12:41:00,
2013-05-13 08:42:00,51.3,45.3,30.16,SSE,150,0.0,1.0,80,0.00,,---,0.00,VWS V14.01,2013-05-13 12:42:00,
2013-05-13 08:43:00,51.3,45.3,30.16,SSE,150,0.0,1.0,80,0.00,,---,0.00,VWS V14.01,2013-05-13 12:43:00,
2013-05-13 08:44:00,51.3,45.3,30.16,SSE,150,0.0,1.0,80,0.00,,---,0.00,VWS V14.01,2013-05-13 12:44:00,
2013-05-13 08:45:00,51.3,45.3,30.16,SSE,150,0.0,1.0,80,0.00,,---,0.00,VWS V14.01,2013-05-13 12:45:00,
2013-05-13 08:46:00,51.3,45.3,30.16,SSE,150,0.0,1.0,80,0.00,,---,0.00,VWS V14.01,2013-05-13 12:46:00,
2013-05-13 08:47:00,51.3,45.3,30.16,SSE,150,0.0,1.0,80,0.00,,---,0.00,VWS V14.01,2013-05-13 12:47:00,
2013-05-13 08:48:00,51.3,45.3,30.16,SSE,150,0.0,1.0,80,0.00,,---,0.00,VWS V14.01,2013-05-13 12:48:00,
2013-05-13 08:49:00,51.2,45.2,30.16,SSE,150,0.0,1.0,80,0.00,,---,0.00,VWS V14.01,2013-05-13 12:49:00,
2013-05-13 08:50:00,51.2,45.2,30.16,SSE,150,0.0,1.0,80,0.00,,---,0.00,VWS V14.01,2013-05-13 12:50:00,
2013-05-13 08:51:00,51.2,44.9,30.16,SSE,150,0.0,1.0,79,0.00,,---,0.00,VWS V14.01,2013-05-13 12:51:00,
2013-05-13 08:52:00,51.2,44.9,30.16,SSE,150,0.0,1.0,79,0.00,,---,0.00,VWS V14.01,2013-05-13 12:52:00,
2013-05-13 08:53:00,51.2,44.9,30.16,SSE,150,0.0,1.0,79,0.00,,---,0.00,VWS V14.01,2013-05-13 12:53:00,
2013-05-13 08:54:00,51.2,45.2,30.15,SSE,150,0.0,1.0,80,0.00,,---,0.00,VWS V14.01,2013-05-13 12:54:00,
2013-05-13 08:55:00,51.1,45.2,30.15,SSE,150,0.0,1.0,80,0.00,,---,0.00,VWS V14.01,2013-05-13 12:55:00,
2013-05-13 08:56:00,51.0,45.1,30.15,SSE,150,0.0,1.0,80,0.00,,---,0.00,VWS V14.01,2013-05-13 12:56:00,
2013-05-13 08:57:00,51.0,45.1,30.15,SSE,150,0.0,1.0,80,0.00,,---,0.00,VWS V14.01,2013-05-13 12:57:00,
2013-05-13 08:58:00,50.9,45.0,30.16,SSE,150,0.0,1.0,80,0.00,,---,0.00,VWS V14.01,2013-05-13 12:58:00,
2013-05-13 08:59:00,50.9,45.3,30.16,SSE,150,0.0,1.0,81,0.00,,---,0.00,VWS V14.01,2013-05-13 12:59:00,
2013-05-13 09:00:00,50.8,45.2,30.16,SSE,150,0.0,1.0,81,0.00,,---,0.00,VWS V14.01,2013-05-13 13:00:00,
2013-05-13 09:01:00,50.8,45.2,30.15,SSE,150,0.0,0.0,81,0.00,,---,0.00,VWS V14.01,2013-05-13 13:01:00,
2013-05-13 09:02:00,50.7,45.1,30.15,SSE,150,0.0,0.0,81,0.00,,---,0.00,VWS V14.01,2013-05-13 13:02:00,
2013-05-13 09:03:00,50.7,45.4,30.15,SSE,150,0.0,0.0,82,0.00,,---,0.00,VWS V14.01,2013-05-13 13:03:00,
2013-05-13 09:04:00,50.6,45.0,30.15,SSE,150,0.0,0.0,81,0.00,,---,0.00,VWS V14.01,2013-05-13 13:04:00,
2013-05-13 09:05:00,50.6,45.3,30.15,SSE,150,0.0,0.0,82,0.00,,---,0.00,VWS V14.01,2013-05-13 13:05:00,
2013-05-13 09:06:00,50.5,45.2,30.15,SSE,150,0.0,0.0,82,0.00,,---,0.00,VWS V14.01,2013-05-13 13:06:00,
2013-05-13 09:07:00,50.5,45.2,30.15,SSE,150,0.0,0.0,82,0.00,,---,0.00,VWS V14.01,2013-05-13 13:07:00,
2013-05-13 09:08:00,50.5,45.2,30.15,SSE,150,0.0,0.0,82,0.00,,---,0.00,VWS V14.01,2013-05-13 13:08:00,
2013-05-13 09:09:00,50.5,45.2,30.15,SSE,150,0.0,0.0,82,0.00,,---,0.00,VWS V14.01,2013-05-13 13:09:00,
2013-05-13 09:10:00,50.4,45.1,30.15,SSE,150,0.0,0.0,82,0.00,,---,0.00,VWS V14.01,2013-05-13 13:10:00,
2013-05-13 09:11:00,50.4,45.1,30.15,SSE,150,0.0,0.0,82,0.00,,---,0.00,VWS V14.01,2013-05-13 13:11:00,
2013-05-13 09:12:00,50.3,45.0,30.15,SSE,150,0.0,0.0,82,0.00,,---,0.00,VWS V14.01,2013-05-13 13:12:00,
2013-05-13 09:13:00,50.3,45.0,30.15,SSE,150,0.0,0.0,82,0.00,,---,0.00,VWS V14.01,2013-05-13 13:13:00,
2013-05-13 09:14:00,50.3,45.3,30.15,SSE,150,0.0,0.0,83,0.00,,---,0.00,VWS V14.01,2013-05-13 13:14:00,
2013-05-13 09:15:00,50.3,45.3,30.15,SSE,150,0.0,0.0,83,0.00,,---,0.00,VWS V14.01,2013-05-13 13:15:00,
2013-05-13 09:16:00,50.2,45.2,30.15,SSE,150,0.0,0.0,83,0.00,,---,0.00,VWS V14.01,2013-05-13 13:16:00,
2013-05-13 09:17:00,50.2,45.2,30.15,SSE,150,0.0,0.0,83,0.00,,---,0.00,VWS V14.01,2013-05-13 13:17:00,
2013-05-13 09:18:00,50.1,45.2,30.15,SSE,150,0.0,0.0,83,0.00,,---,0.00,VWS V14.01,2013-05-13 13:18:00,
2013-05-13 09:19:00,50.1,45.2,30.15,SSE,150,0.0,0.0,83,0.00,,---,0.00,VWS V14.01,2013-05-13 13:19:00,
2013-05-13 09:20:00,50.1,45.2,30.15,SSE,150,0.0,0.0,83,0.00,,---,0.00,VWS V14.01,2013-05-13 13:20:00,
2013-05-13 09:21:00,50.0,45.0,30.15,SSE,150,0.0,0.0,83,0.00,,---,0.00,VWS V14.01,2013-05-13 13:21:00,
2013-05-13 09:22:00,50.1,45.2,30.15,SSE,150,0.0,0.0,83,0.00,,---,0.00,VWS V14.01,2013-05-13 13:22:00,
2013-05-13 09:23:00,50.1,45.5,30.15,SSE,150,0.0,0.0,84,0.00,,---,0.00,VWS V14.01,2013-05-13 13:23:00,
2013-05-13 09:24:00,50.1,45.5,30.15,SSE,150,0.0,0.0,84,0.00,,---,0.00,VWS V14.01,2013-05-13 13:24:00,
2013-05-13 09:25:00,50.1,45.5,30.15,SSE,150,0.0,0.0,84,0.00,,---,0.00,VWS V14.01,2013-05-13 13:25:00,
2013-05-13 09:26:00,50.1,45.5,30.15,SSE,150,0.0,0.0,84,0.00,,---,0.00,VWS V14.01,2013-05-13 13:26:00,
2013-05-13 09:27:00,50.1,45.5,30.15,SSE,150,0.0,0.0,84,0.00,,---,0.00,VWS V14.01,2013-05-13 13:27:00,
2013-05-13 09:28:00,50.1,45.5,30.15,SSE,150,0.0,0.0,84,0.00,,---,0.00,VWS V14.01,2013-05-13 13:28:00,
2013-05-13 09:29:00,50.1,45.5,30.15,SSE,150,0.0,0.0,84,0.00,,---,0.00,VWS V14.01,2013-05-13 13:29:00,
2013-05-13 09:30:00,50.1,45.5,30.15,SSE,150,0.0,0.0,84,0.00,,---,0.00,VWS V14.01,2013-05-13 13:30:00,
2013-05-13 09:31:00,50.1,45.5,30.15,SSE,150,0.0,0.0,84,0.00,,---,0.00,VWS V14.01,2013-05-13 13:31:00,
2013-05-13 09:32:00,50.1,45.5,30.15,SSE,150,0.0,0.0,84,0.00,,---,0.00,VWS V14.01,2013-05-13 13:32:00,
2013-05-13 09:33:00,50.1,45.5,30.15,SSE,150,0.0,0.0,84,0.00,,---,0.00,VWS V14.01,2013-05-13 13:33:00,
2013-05-13 09:34:00,50.1,45.5,30.15,SSE,150,0.0,0.0,84,0.00,,---,0.00,VWS V14.01,2013-05-13 13:34:00,
2013-05-13 09:35:00,50.1,45.5,30.15,SSE,150,0.0,0.0,84,0.00,,---,0.00,VWS V14.01,2013-05-13 13:35:00,
2013-05-13 09:36:00,50.0,45.4,30.15,SSE,150,0.0,0.0,84,0.00,,---,0.00,VWS V14.01,2013-05-13 13:36:00,
2013-05-13 09:37:00,50.0,45.4,30.15,SSE,150,0.0,0.0,84,0.00,,---,0.00,VWS V14.01,2013-05-13 13:37:00,
2013-05-13 09:38:00,50.0,45.4,30.15,SSE,150,0.0,0.0,84,0.00,,---,0.00,VWS V14.01,2013-05-13 13:38:00,
2013-05-13 09:39:00,50.0,45.4,30.15,SSE,150,0.0,0.0,84,0.00,,---,0.00,VWS V14.01,2013-05-13 13:39:00,
2013-05-13 09:40:00,50.0,45.4,30.15,SSE,150,0.0,0.0,84,0.00,,---,0.00,VWS V14.01,2013-05-13 13:40:00,
2013-05-13 09:41:00,50.1,45.5,30.15,SSE,150,0.0,0.0,84,0.00,,---,0.00,VWS V14.01,2013-05-13 13:41:00,
2013-05-13 09:42:00,50.0,45.4,30.15,SSE,150,0.0,0.0,84,0.00,,---,0.00,VWS V14.01,2013-05-13 13:42:00,
2013-05-13 09:43:00,50.1,45.5,30.15,SSE,150,0.0,0.0,84,0.00,,---,0.00,VWS V14.01,2013-05-13 13:43:00,
2013-05-13 09:44:00,50.1,45.5,30.15,SSE,150,0.0,0.0,84,0.00,,---,0.00,VWS V14.01,2013-05-13 13:44:00,
2013-05-13 09:45:00,50.1,45.5,30.15,SSE,150,0.0,0.0,84,0.00,,---,0.00,VWS V14.01,2013-05-13 13:45:00,
2013-05-13 09:46:00,50.1,45.5,30.15,SSE,150,0.0,0.0,84,0.00,,---,0.00,VWS V14.01,2013-05-13 13:46:00,
2013-05-13 09:47:00,50.1,45.5,30.15,SSE,150,0.0,0.0,84,0.00,,---,0.00,VWS V14.01,2013-05-13 13:47:00,
2013-05-13 09:48:00,50.1,45.5,30.15,SSE,150,0.0,0.0,84,0.00,,---,0.00,VWS V14.01,2013-05-13 13:48:00,
2013-05-13 09:49:00,50.1,45.5,30.15,SSE,150,0.0,0.0,84,0.00,,---,0.00,VWS V14.01,2013-05-13 13:49:00,
2013-05-13 09:50:00,50.1,45.5,30.15,SSE,150,0.0,0.0,84,0.00,,---,0.00,VWS V14.01,2013-05-13 13:50:00,
2013-05-13 09:51:00,50.1,45.5,30.15,SSE,150,0.0,0.0,84,0.00,,---,0.00,VWS V14.01,2013-05-13 13:51:00,
2013-05-13 09:52:00,50.1,45.5,30.15,SSE,150,0.0,0.0,84,0.00,,---,0.00,VWS V14.01,2013-05-13 13:52:00,
2013-05-13 09:53:00,50.1,45.5,30.15,SSE,150,0.0,0.0,84,0.00,,---,0.00,VWS V14.01,2013-05-13 13:53:00,
2013-05-13 09:54:00,50.0,45.4,30.15,SSE,150,0.0,0.0,84,0.00,,---,0.00,VWS V14.01,2013-05-13 13:54:00,
2013-05-13 09:55:00,49.9,45.3,30.15,SSE,150,0.0,0.0,84,0.00,,---,0.00,VWS V14.01,2013-05-13 13:55:00,
2013-05-13 09:56:00,49.9,45.3,30.15,SSE,150,0.0,0.0,84,0.00,,---,0.00,VWS V14.01,2013-05-13 13:56:00,
2013-05-13 09:57:00,49.9,45.3,30.15,SSE,150,0.0,0.0,84,0.00,,---,0.00,VWS V14.01,2013-05-13 13:57:00,
2013-05-13 09:58:00,49.8,45.2,30.15,SSE,150,0.0,0.0,84,0.00,,---,0.00,VWS V14.01,2013-05-13 13:58:00,
2013-05-13 09:59:00,49.8,45.2,30.15,SSE,150,0.0,0.0,84,0.00,,---,0.00,VWS V14.01,2013-05-13 13:59:00,
2013-05-13 10:00:00,49.7,45.1,30.15,SSE,150,0.0,0.0,84,0.00,,---,0.00,VWS V14.01,2013-05-13 14:00:00,
2013-05-13 10:01:00,49.7,45.1,30.15,SSE,150,0.0,0.0,84,0.00,,---,0.00,VWS V14.01,2013-05-13 14:01:00,
2013-05-13 10:02:00,49.7,45.1,30.15,SSE,150,0.0,0.0,84,0.00,,---,0.00,VWS V14.01,2013-05-13 14:02:00,
2013-05-13 10:03:00,49.7,45.1,30.15,SSE,150,0.0,0.0,84,0.00,,---,0.00,VWS V14.01,2013-05-13 14:03:00,
2013-05-13 10:04:00,49.6,45.3,30.15,SSE,150,0.0,0.0,85,0.00,,---,0.00,VWS V14.01,2013-05-13 14:04:00,
2013-05-13 10:05:00,49.6,45.3,30.15,SSE,150,0.0,0.0,85,0.00,,---,0.00,VWS V14.01,2013-05-13 14:05:00,
2013-05-13 10:06:00,49.6,45.3,30.15,SSE,150,0.0,0.0,85,0.00,,---,0.00,VWS V14.01,2013-05-13 14:06:00,
2013-05-13 10:07:00,49.6,45.3,30.15,SSE,150,0.0,0.0,85,0.00,,---,0.00,VWS V14.01,2013-05-13 14:07:00,
2013-05-13 10:08:00,49.6,45.3,30.15,SSE,150,0.0,0.0,85,0.00,,---,0.00,VWS V14.01,2013-05-13 14:08:00,
2013-05-13 10:09:00,49.6,45.3,30.16,SSE,150,0.0,0.0,85,0.00,,---,0.00,VWS V14.01,2013-05-13 14:09:00,
2013-05-13 10:10:00,49.6,45.3,30.15,SSE,150,0.0,0.0,85,0.00,,---,0.00,VWS V14.01,2013-05-13 14:10:00,
2013-05-13 10:11:00,49.6,45.3,30.15,SSE,150,0.0,0.0,85,0.00,,---,0.00,VWS V14.01,2013-05-13 14:11:00,
2013-05-13 10:12:00,49.7,45.4,30.15,SSE,150,0.0,0.0,85,0.00,,---,0.00,VWS V14.01,2013-05-13 14:12:00,
2013-05-13 10:13:00,49.7,45.4,30.15,SSE,150,0.0,0.0,85,0.00,,---,0.00,VWS V14.01,2013-05-13 14:13:00,
2013-05-13 10:14:00,49.7,45.4,30.15,SSE,150,0.0,0.0,85,0.00,,---,0.00,VWS V14.01,2013-05-13 14:14:00,
2013-05-13 10:15:00,49.7,45.4,30.15,SSE,150,0.0,0.0,85,0.00,,---,0.00,VWS V14.01,2013-05-13 14:15:00,
2013-05-13 10:16:00,49.7,45.4,30.15,SSE,150,0.0,0.0,85,0.00,,---,0.00,VWS V14.01,2013-05-13 14:16:00,
2013-05-13 10:17:00,49.7,45.4,30.15,SSE,150,0.0,0.0,85,0.00,,---,0.00,VWS V14.01,2013-05-13 14:17:00,
2013-05-13 10:18:00,49.7,45.4,30.15,SSE,150,0.0,0.0,85,0.00,,---,0.00,VWS V14.01,2013-05-13 14:18:00,
2013-05-13 10:19:00,49.8,45.5,30.15,SSE,150,0.0,0.0,85,0.00,,---,0.00,VWS V14.01,2013-05-13 14:19:00,
2013-05-13 10:20:00,49.8,45.5,30.15,SSE,150,0.0,0.0,85,0.00,,---,0.00,VWS V14.01,2013-05-13 14:20:00,
2013-05-13 10:21:00,49.8,45.5,30.15,SSE,150,0.0,0.0,85,0.00,,---,0.00,VWS V14.01,2013-05-13 14:21:00,
2013-05-13 10:22:00,49.8,45.5,30.16,SSE,150,0.0,0.0,85,0.00,,---,0.00,VWS V14.01,2013-05-13 14:22:00,
2013-05-13 10:23:00,49.8,45.5,30.16,SSE,150,0.0,0.0,85,0.00,,---,0.00,VWS V14.01,2013-05-13 14:23:00,
2013-05-13 10:24:00,49.8,45.2,30.16,SSE,150,0.0,0.0,84,0.00,,---,0.00,VWS V14.01,2013-05-13 14:24:00,
2013-05-13 10:25:00,49.9,45.3,30.16,SSE,150,0.0,0.0,84,0.00,,---,0.00,VWS V14.01,2013-05-13 14:25:00,
2013-05-13 10:26:00,49.9,45.3,30.16,SSE,150,0.0,0.0,84,0.00,,---,0.00,VWS V14.01,2013-05-13 14:26:00,
2013-05-13 10:27:00,49.9,45.3,30.16,SSE,150,0.0,0.0,84,0.00,,---,0.00,VWS V14.01,2013-05-13 14:27:00,
2013-05-13 10:28:00,49.9,45.3,30.16,SSE,150,0.0,0.0,84,0.00,,---,0.00,VWS V14.01,2013-05-13 14:28:00,
2013-05-13 10:29:00,49.9,45.3,30.16,SSE,150,0.0,0.0,84,0.00,,---,0.00,VWS V14.01,2013-05-13 14:29:00,
2013-05-13 10:30:00,49.9,45.3,30.16,SSE,150,0.0,0.0,84,0.00,,---,0.00,VWS V14.01,2013-05-13 14:30:00,
2013-05-13 10:31:00,49.8,45.2,30.16,SSE,150,0.0,0.0,84,0.00,,---,0.00,VWS V14.01,2013-05-13 14:31:00,
2013-05-13 10:32:00,49.8,45.2,30.16,SSE,150,0.0,0.0,84,0.00,,---,0.00,VWS V14.01,2013-05-13 14:32:00,
2013-05-13 10:33:00,49.8,45.2,30.16,SSE,150,0.0,0.0,84,0.00,,---,0.00,VWS V14.01,2013-05-13 14:33:00,
2013-05-13 10:34:00,49.8,45.2,30.16,SSE,150,0.0,0.0,84,0.00,,---,0.00,VWS V14.01,2013-05-13 14:34:00,
2013-05-13 10:35:00,49.7,45.1,30.16,SSE,150,0.0,0.0,84,0.00,,---,0.00,VWS V14.01,2013-05-13 14:35:00,
2013-05-13 10:36:00,49.7,45.1,30.16,SSE,150,0.0,0.0,84,0.00,,---,0.00,VWS V14.01,2013-05-13 14:36:00,
2013-05-13 10:37:00,49.7,45.1,30.16,SSE,150,0.0,0.0,84,0.00,,---,0.00,VWS V14.01,2013-05-13 14:37:00,
2013-05-13 10:38:00,49.6,45.0,30.16,SSE,150,0.0,0.0,84,0.00,,---,0.00,VWS V14.01,2013-05-13 14:38:00,
2013-05-13 10:39:00,49.6,45.0,30.16,SSE,150,0.0,0.0,84,0.00,,---,0.00,VWS V14.01,2013-05-13 14:39:00,
2013-05-13 10:40:00,49.6,45.0,30.16,SSE,150,0.0,0.0,84,0.00,,---,0.00,VWS V14.01,2013-05-13 14:40:00,
2013-05-13 10:41:00,49.5,44.9,30.16,SSE,150,0.0,0.0,84,0.00,,---,0.00,VWS V14.01,2013-05-13 14:41:00,
2013-05-13 10:42:00,49.5,44.9,30.16,SSE,150,0.0,0.0,84,0.00,,---,0.00,VWS V14.01,2013-05-13 14:42:00,
2013-05-13 10:43:00,49.5,44.9,30.16,SSE,150,0.0,0.0,84,0.00,,---,0.00,VWS V14.01,2013-05-13 14:43:00,
2013-05-13 10:44:00,49.4,44.8,30.16,SSE,150,0.0,0.0,84,0.00,,---,0.00,VWS V14.01,2013-05-13 14:44:00,
2013-05-13 10:45:00,49.4,44.8,30.16,SSE,150,0.0,0.0,84,0.00,,---,0.00,VWS V14.01,2013-05-13 14:45:00,
2013-05-13 10:46:00,49.4,44.8,30.16,SSE,150,0.0,0.0,84,0.00,,---,0.00,VWS V14.01,2013-05-13 14:46:00,
2013-05-13 10:47:00,49.4,44.8,30.16,SSE,150,0.0,0.0,84,0.00,,---,0.00,VWS V14.01,2013-05-13 14:47:00,
2013-05-13 10:48:00,49.4,44.8,30.16,SSE,150,0.0,0.0,84,0.00,,---,0.00,VWS V14.01,2013-05-13 14:48:00,
2013-05-13 10:49:00,49.4,44.8,30.16,SSE,150,0.0,0.0,84,0.00,,---,0.00,VWS V14.01,2013-05-13 14:49:00,
2013-05-13 10:50:00,49.4,44.8,30.16,SSE,150,0.0,0.0,84,0.00,,---,0.00,VWS V14.01,2013-05-13 14:50:00,
2013-05-13 10:51:00,49.4,44.8,30.16,SSE,150,0.0,0.0,84,0.00,,---,0.00,VWS V14.01,2013-05-13 14:51:00,
2013-05-13 10:52:00,49.4,44.8,30.16,SSE,150,0.0,0.0,84,0.00,,---,0.00,VWS V14.01,2013-05-13 14:52:00,
2013-05-13 10:53:00,49.5,44.9,30.16,SSE,150,0.0,0.0,84,0.00,,---,0.00,VWS V14.01,2013-05-13 14:53:00,
2013-05-13 10:54:00,49.5,44.9,30.16,SSE,150,0.0,0.0,84,0.00,,---,0.00,VWS V14.01,2013-05-13 14:54:00,
2013-05-13 10:55:00,49.5,44.9,30.16,SSE,150,0.0,0.0,84,0.00,,---,0.00,VWS V14.01,2013-05-13 14:55:00,
2013-05-13 10:56:00,49.6,45.0,30.16,SSE,150,0.0,0.0,84,0.00,,---,0.00,VWS V14.01,2013-05-13 14:56:00,
2013-05-13 10:57:00,49.6,44.7,30.16,SSE,150,0.0,0.0,83,0.00,,---,0.00,VWS V14.01,2013-05-13 14:57:00,
2013-05-13 10:58:00,49.6,44.7,30.16,SSE,150,0.0,0.0,83,0.00,,---,0.00,VWS V14.01,2013-05-13 14:58:00,
2013-05-13 10:59:00,49.6,44.7,30.16,SSE,150,0.0,0.0,83,0.00,,---,0.00,VWS V14.01,2013-05-13 14:59:00,
2013-05-13 11:00:00,49.7,44.8,30.16,SSE,150,0.0,0.0,83,0.00,,---,0.00,VWS V14.01,2013-05-13 15:00:00,
2013-05-13 11:01:00,49.7,44.8,30.16,SSE,150,0.0,2.0,83,0.00,,---,0.00,VWS V14.01,2013-05-13 15:01:00,
2013-05-13 11:02:00,49.8,44.5,30.17,SSE,150,0.0,2.0,82,0.00,,---,0.00,VWS V14.01,2013-05-13 15:02:00,
2013-05-13 11:03:00,49.8,44.5,30.17,SSE,150,0.0,2.0,82,0.00,,---,0.00,VWS V14.01,2013-05-13 15:03:00,
2013-05-13 11:04:00,49.8,44.2,30.17,SSE,150,0.0,2.0,81,0.00,,---,0.00,VWS V14.01,2013-05-13 15:04:00,
2013-05-13 11:05:00,49.9,44.3,30.17,SSE,150,0.0,2.0,81,0.00,,---,0.00,VWS V14.01,2013-05-13 15:05:00,
2013-05-13 11:06:00,49.9,44.3,30.17,SSE,150,0.0,2.0,81,0.00,,---,0.00,VWS V14.01,2013-05-13 15:06:00,
2013-05-13 11:07:00,50.0,44.1,30.17,SSE,150,0.0,2.0,80,0.00,,---,0.00,VWS V14.01,2013-05-13 15:07:00,
2013-05-13 11:08:00,50.1,44.2,30.17,SSE,150,0.0,2.0,80,0.00,,---,0.00,VWS V14.01,2013-05-13 15:08:00,
2013-05-13 11:09:00,50.1,43.8,30.17,SSE,150,0.0,2.0,79,0.00,,---,0.00,VWS V14.01,2013-05-13 15:09:00,
2013-05-13 11:10:00,50.2,44.0,30.17,SSE,150,0.0,2.0,79,0.00,,---,0.00,VWS V14.01,2013-05-13 15:10:00,
2013-05-13 11:11:00,50.3,44.0,30.17,SSE,150,0.0,2.0,79,0.00,,---,0.00,VWS V14.01,2013-05-13 15:11:00,
2013-05-13 11:12:00,50.4,43.8,30.17,SSE,150,0.0,2.0,78,0.00,,---,0.00,VWS V14.01,2013-05-13 15:12:00,
2013-05-13 11:13:00,50.4,43.8,30.17,SSE,151,0.0,3.0,78,0.00,,---,0.00,VWS V14.01,2013-05-13 15:13:00,
2013-05-13 11:14:00,50.6,43.7,30.17,SSE,151,0.0,3.0,77,0.00,,---,0.00,VWS V14.01,2013-05-13 15:14:00,
2013-05-13 11:15:00,50.6,43.7,30.17,SSE,151,0.0,3.0,77,0.00,,---,0.00,VWS V14.01,2013-05-13 15:15:00,
2013-05-13 11:16:00,50.7,43.8,30.17,SSE,151,0.0,3.0,77,0.00,,---,0.00,VWS V14.01,2013-05-13 15:16:00,
2013-05-13 11:17:00,50.8,43.9,30.17,SSE,151,0.0,3.0,77,0.00,,---,0.00,VWS V14.01,2013-05-13 15:17:00,
2013-05-13 11:18:00,50.9,43.6,30.17,SSE,151,0.0,3.0,76,0.00,,---,0.00,VWS V14.01,2013-05-13 15:18:00,
2013-05-13 11:19:00,50.9,43.6,30.17,SSE,151,0.0,3.0,76,0.00,,---,0.00,VWS V14.01,2013-05-13 15:19:00,
2013-05-13 11:20:00,51.0,43.7,30.17,SSE,151,0.0,3.0,76,0.00,,---,0.00,VWS V14.01,2013-05-13 15:20:00,
2013-05-13 11:21:00,51.0,43.4,30.17,SSE,151,0.0,3.0,75,0.00,,---,0.00,VWS V14.01,2013-05-13 15:21:00,
2013-05-13 11:22:00,51.1,43.5,30.17,SSE,151,0.0,3.0,75,0.00,,---,0.00,VWS V14.01,2013-05-13 15:22:00,
2013-05-13 11:23:00,51.2,43.6,30.17,SSE,151,0.0,3.0,75,0.00,,---,0.00,VWS V14.01,2013-05-13 15:23:00,
2013-05-13 11:24:00,51.2,43.6,30.17,SSE,151,0.0,3.0,75,0.00,,---,0.00,VWS V14.01,2013-05-13 15:24:00,
2013-05-13 11:25:00,51.3,43.3,30.17,SSE,151,0.0,3.0,74,0.00,,---,0.00,VWS V14.01,2013-05-13 15:25:00,
2013-05-13 11:26:00,51.3,43.3,30.17,SSE,151,0.0,3.0,74,0.00,,---,0.00,VWS V14.01,2013-05-13 15:26:00,
2013-05-13 11:27:00,51.3,43.3,30.17,SSE,151,0.0,3.0,74,0.00,,---,0.00,VWS V14.01,2013-05-13 15:27:00,
2013-05-13 11:28:00,51.4,43.4,30.17,SSE,157,0.0,3.0,74,0.00,,---,0.00,VWS V14.01,2013-05-13 15:28:00,
2013-05-13 11:29:00,51.4,43.0,30.17,SSE,157,0.0,3.0,73,0.00,,---,0.00,VWS V14.01,2013-05-13 15:29:00,
2013-05-13 11:30:00,51.4,43.0,30.17,SSE,157,0.0,3.0,73,0.00,,---,0.00,VWS V14.01,2013-05-13 15:30:00,
2013-05-13 11:31:00,51.4,43.0,30.17,SSE,167,1.0,2.0,73,0.00,,---,0.00,VWS V14.01,2013-05-13 15:31:00,
2013-05-13 11:32:00,51.4,43.0,30.17,SSE,167,0.0,2.0,73,0.00,,---,0.00,VWS V14.01,2013-05-13 15:32:00,
2013-05-13 11:33:00,51.4,43.0,30.17,SSE,167,0.0,2.0,73,0.00,,---,0.00,VWS V14.01,2013-05-13 15:33:00,
2013-05-13 11:34:00,51.4,43.0,30.17,SSE,167,0.0,2.0,73,0.00,,---,0.00,VWS V14.01,2013-05-13 15:34:00,
2013-05-13 11:35:00,51.5,43.1,30.17,SSE,167,0.0,2.0,73,0.00,,---,0.00,VWS V14.01,2013-05-13 15:35:00,
2013-05-13 11:36:00,51.5,43.1,30.17,South,174,0.0,3.0,73,0.00,,---,0.00,VWS V14.01,2013-05-13 15:36:00,
2013-05-13 11:37:00,51.5,43.1,30.17,South,181,0.0,3.0,73,0.00,,---,0.00,VWS V14.01,2013-05-13 15:37:00,
2013-05-13 11:38:00,51.5,43.1,30.17,South,181,0.0,3.0,73,0.00,,---,0.00,VWS V14.01,2013-05-13 15:38:00,
2013-05-13 11:39:00,51.5,43.1,30.17,South,181,0.0,3.0,73,0.00,,---,0.00,VWS V14.01,2013-05-13 15:39:00,
2013-05-13 11:40:00,51.5,43.1,30.17,South,181,0.0,3.0,73,0.00,,---,0.00,VWS V14.01,2013-05-13 15:40:00,
2013-05-13 11:41:00,51.5,43.1,30.17,South,182,0.0,3.0,73,0.00,,---,0.00,VWS V14.01,2013-05-13 15:41:00,
2013-05-13 11:42:00,51.5,43.1,30.17,South,182,0.0,3.0,73,0.00,,---,0.00,VWS V14.01,2013-05-13 15:42:00,
2013-05-13 11:43:00,51.5,43.1,30.17,South,182,0.0,3.0,73,0.00,,---,0.00,VWS V14.01,2013-05-13 15:43:00,
2013-05-13 11:44:00,51.5,43.1,30.18,South,182,1.0,3.0,73,0.00,,---,0.00,VWS V14.01,2013-05-13 15:44:00,
2013-05-13 11:45:00,51.6,43.2,30.18,South,182,0.0,3.0,73,0.00,,---,0.00,VWS V14.01,2013-05-13 15:45:00,
2013-05-13 11:46:00,51.6,43.2,30.18,South,175,0.0,3.0,73,0.00,,---,0.00,VWS V14.01,2013-05-13 15:46:00,
2013-05-13 11:47:00,51.6,43.2,30.18,South,177,0.0,3.0,73,0.00,,---,0.00,VWS V14.01,2013-05-13 15:47:00,
2013-05-13 11:48:00,51.6,43.2,30.18,South,176,0.0,3.0,73,0.00,,---,0.00,VWS V14.01,2013-05-13 15:48:00,
2013-05-13 11:49:00,51.6,43.2,30.18,South,175,0.0,3.0,73,0.00,,---,0.00,VWS V14.01,2013-05-13 15:49:00,
2013-05-13 11:50:00,51.6,42.9,30.18,South,175,0.0,3.0,72,0.00,,---,0.00,VWS V14.01,2013-05-13 15:50:00,
2013-05-13 11:51:00,51.6,42.9,30.18,South,175,0.0,3.0,72,0.00,,---,0.00,VWS V14.01,2013-05-13 15:51:00,
2013-05-13 11:52:00,51.6,42.9,30.18,South,175,0.0,3.0,72,0.00,,---,0.00,VWS V14.01,2013-05-13 15:52:00,
2013-05-13 11:53:00,51.6,43.2,30.18,South,182,2.0,3.0,73,0.00,,---,0.00,VWS V14.01,2013-05-13 15:53:00,
2013-05-13 11:54:00,51.5,42.8,30.18,South,181,0.0,3.0,72,0.00,,---,0.00,VWS V14.01,2013-05-13 15:54:00,
2013-05-13 11:55:00,51.5,42.8,30.18,South,175,0.0,3.0,72,0.00,,---,0.00,VWS V14.01,2013-05-13 15:55:00,
2013-05-13 11:56:00,51.6,42.9,30.18,South,175,1.0,3.0,72,0.00,,---,0.00,VWS V14.01,2013-05-13 15:56:00,
2013-05-13 11:57:00,51.5,42.8,30.18,South,175,0.0,3.0,72,0.00,,---,0.00,VWS V14.01,2013-05-13 15:57:00,
2013-05-13 11:58:00,51.5,42.8,30.18,South,175,0.0,3.0,72,0.00,,---,0.00,VWS V14.01,2013-05-13 15:58:00,
2013-05-13 11:59:00,51.5,42.8,30.18,South,175,0.0,3.0,72,0.00,,---,0.00,VWS V14.01,2013-05-13 15:59:00,
2013-05-13 12:00:00,51.5,42.8,30.18,South,175,0.0,3.0,72,0.00,,---,0.00,VWS V14.01,2013-05-13 16:00:00,
2013-05-13 12:01:00,51.5,42.8,30.18,South,175,1.0,2.0,72,0.00,,---,0.00,VWS V14.01,2013-05-13 16:01:00,
2013-05-13 12:02:00,51.5,42.8,30.18,South,174,3.0,5.0,72,0.00,,---,0.00,VWS V14.01,2013-05-13 16:02:00,
2013-05-13 12:03:00,51.4,42.7,30.18,South,175,0.0,5.0,72,0.00,,---,0.00,VWS V14.01,2013-05-13 16:03:00,
2013-05-13 12:04:00,51.4,42.7,30.18,South,175,0.0,5.0,72,0.00,,---,0.00,VWS V14.01,2013-05-13 16:04:00,
2013-05-13 12:05:00,51.4,42.7,30.18,South,175,0.0,5.0,72,0.00,,---,0.00,VWS V14.01,2013-05-13 16:05:00,
2013-05-13 12:06:00,51.4,42.7,30.18,SSE,165,0.0,5.0,72,0.00,,---,0.00,VWS V14.01,2013-05-13 16:06:00,
2013-05-13 12:07:00,51.4,42.7,30.18,South,183,0.0,5.0,72,0.00,,---,0.00,VWS V14.01,2013-05-13 16:07:00,
2013-05-13 12:08:00,51.4,42.7,30.18,South,176,0.0,5.0,72,0.00,,---,0.00,VWS V14.01,2013-05-13 16:08:00,
2013-05-13 12:09:00,51.3,42.6,30.18,South,175,1.0,5.0,72,0.00,,---,0.00,VWS V14.01,2013-05-13 16:09:00,
2013-05-13 12:10:00,51.3,42.6,30.18,South,182,0.0,6.0,72,0.00,,---,0.00,VWS V14.01,2013-05-13 16:10:00,
2013-05-13 12:11:00,51.3,42.6,30.18,South,169,3.0,6.0,72,0.00,,---,0.00,VWS V14.01,2013-05-13 16:11:00,
2013-05-13 12:12:00,51.3,43.0,30.18,South,170,1.0,6.0,73,0.00,,---,0.00,VWS V14.01,2013-05-13 16:12:00,
2013-05-13 12:13:00,51.2,42.9,30.18,SSE,153,0.0,6.0,73,0.00,,---,0.00,VWS V14.01,2013-05-13 16:13:00,
2013-05-13 12:14:00,51.2,42.9,30.18,SSE,153,0.0,6.0,73,0.00,,---,0.00,VWS V14.01,2013-05-13 16:14:00,
2013-05-13 12:15:00,51.2,42.9,30.18,SSE,159,0.0,6.0,73,0.00,,---,0.00,VWS V14.01,2013-05-13 16:15:00,
2013-05-13 12:16:00,51.1,42.8,30.18,SSE,159,0.0,6.0,73,0.00,,---,0.00,VWS V14.01,2013-05-13 16:16:00,
2013-05-13 12:17:00,51.1,42.8,30.18,SSE,168,3.0,6.0,73,0.00,,---,0.00,VWS V14.01,2013-05-13 16:17:00,
2013-05-13 12:18:00,51.1,42.8,30.19,South,176,0.0,6.0,73,0.00,,---,0.00,VWS V14.01,2013-05-13 16:18:00,
2013-05-13 12:19:00,51.0,42.7,30.19,South,176,0.0,6.0,73,0.00,,---,0.00,VWS V14.01,2013-05-13 16:19:00,
2013-05-13 12:20:00,51.0,42.7,30.19,South,176,0.0,6.0,73,0.00,,---,0.00,VWS V14.01,2013-05-13 16:20:00,
2013-05-13 12:21:00,51.0,42.7,30.19,South,176,0.0,6.0,73,0.00,,---,0.00,VWS V14.01,2013-05-13 16:21:00,
2013-05-13 12:22:00,51.0,42.7,30.19,South,176,0.0,6.0,73,0.00,,---,0.00,VWS V14.01,2013-05-13 16:22:00,
2013-05-13 12:23:00,51.0,42.7,30.19,South,176,0.0,6.0,73,0.00,,---,0.00,VWS V14.01,2013-05-13 16:23:00,
2013-05-13 12:24:00,50.9,42.6,30.19,South,176,0.0,6.0,73,0.00,,---,0.00,VWS V14.01,2013-05-13 16:24:00,
2013-05-13 12:25:00,50.9,42.6,30.19,South,176,0.0,6.0,73,0.00,,---,0.00,VWS V14.01,2013-05-13 16:25:00,
2013-05-13 12:26:00,50.9,42.6,30.19,South,176,0.0,6.0,73,0.00,,---,0.00,VWS V14.01,2013-05-13 16:26:00,
2013-05-13 12:27:00,50.9,42.6,30.19,South,176,0.0,6.0,73,0.00,,---,0.00,VWS V14.01,2013-05-13 16:27:00,
2013-05-13 12:28:00,50.8,42.5,30.19,South,176,0.0,6.0,73,0.00,,---,0.00,VWS V14.01,2013-05-13 16:28:00,
2013-05-13 12:29:00,50.8,42.5,30.19,South,176,0.0,6.0,73,0.00,,---,0.00,VWS V14.01,2013-05-13 16:29:00,
2013-05-13 12:30:00,50.8,42.5,30.19,South,176,0.0,6.0,73,0.00,,---,0.00,VWS V14.01,2013-05-13 16:30:00,
2013-05-13 12:31:00,50.8,42.5,30.19,South,176,0.0,2.0,73,0.00,,---,0.00,VWS V14.01,2013-05-13 16:31:00,
2013-05-13 12:32:00,50.8,42.5,30.19,South,176,0.0,2.0,73,0.00,,---,0.00,VWS V14.01,2013-05-13 16:32:00,
2013-05-13 12:33:00,50.8,42.5,30.20,South,176,0.0,2.0,73,0.00,,---,0.00,VWS V14.01,2013-05-13 16:33:00,
2013-05-13 12:34:00,50.8,42.5,30.19,South,176,0.0,2.0,73,0.00,,---,0.00,VWS V14.01,2013-05-13 16:34:00,
2013-05-13 12:35:00,50.7,42.4,30.20,South,176,0.0,2.0,73,0.00,,---,0.00,VWS V14.01,2013-05-13 16:35:00,
2013-05-13 12:36:00,50.7,42.4,30.20,South,176,0.0,2.0,73,0.00,,---,0.00,VWS V14.01,2013-05-13 16:36:00,
2013-05-13 12:37:00,50.7,42.4,30.20,South,176,0.0,2.0,73,0.00,,---,0.00,VWS V14.01,2013-05-13 16:37:00,
2013-05-13 12:38:00,50.7,42.4,30.20,South,176,0.0,2.0,73,0.00,,---,0.00,VWS V14.01,2013-05-13 16:38:00,
2013-05-13 12:39:00,50.7,42.7,30.20,South,176,0.0,2.0,74,0.00,,---,0.00,VWS V14.01,2013-05-13 16:39:00,
2013-05-13 12:40:00,50.6,42.6,30.20,South,176,0.0,2.0,74,0.00,,---,0.00,VWS V14.01,2013-05-13 16:40:00,
2013-05-13 12:41:00,50.6,42.6,30.20,South,177,0.0,2.0,74,0.00,,---,0.00,VWS V14.01,2013-05-13 16:41:00,
2013-05-13 12:42:00,50.6,42.6,30.20,South,177,2.0,3.0,74,0.00,,---,0.00,VWS V14.01,2013-05-13 16:42:00,
2013-05-13 12:43:00,50.5,42.5,30.20,South,169,0.0,5.0,74,0.00,,---,0.00,VWS V14.01,2013-05-13 16:43:00,
2013-05-13 12:44:00,50.5,42.5,30.20,South,173,2.0,5.0,74,0.00,,---,0.00,VWS V14.01,2013-05-13 16:44:00,
2013-05-13 12:45:00,50.5,42.5,30.20,SSW,196,0.0,5.0,74,0.00,,---,0.00,VWS V14.01,2013-05-13 16:45:00,
2013-05-13 12:46:00,50.4,42.4,30.20,South,190,1.0,5.0,74,0.00,,---,0.00,VWS V14.01,2013-05-13 16:46:00,
2013-05-13 12:47:00,50.4,42.4,30.20,South,178,1.0,5.0,74,0.00,,---,0.00,VWS V14.01,2013-05-13 16:47:00,
2013-05-13 12:48:00,50.4,42.4,30.20,South,179,0.0,5.0,74,0.00,,---,0.00,VWS V14.01,2013-05-13 16:48:00,
2013-05-13 12:49:00,50.3,42.3,30.20,SSE,168,0.0,5.0,74,0.00,,---,0.00,VWS V14.01,2013-05-13 16:49:00,
2013-05-13 12:50:00,50.3,42.3,30.20,SSW,193,2.0,5.0,74,0.00,,---,0.00,VWS V14.01,2013-05-13 16:50:00,
2013-05-13 12:51:00,50.3,42.3,30.20,SSW,193,0.0,5.0,74,0.00,,---,0.00,VWS V14.01,2013-05-13 16:51:00,
2013-05-13 12:52:00,50.2,42.6,30.20,SSW,193,0.0,5.0,75,0.00,,---,0.00,VWS V14.01,2013-05-13 16:52:00,
2013-05-13 12:53:00,50.2,42.6,30.20,SSW,193,2.0,5.0,75,0.00,,---,0.00,VWS V14.01,2013-05-13 16:53:00,
2013-05-13 12:54:00,50.2,42.6,30.20,SE,141,1.0,5.0,75,0.00,,---,0.00,VWS V14.01,2013-05-13 16:54:00,
2013-05-13 12:55:00,50.1,42.5,30.20,SSW,195,0.0,5.0,75,0.00,,---,0.00,VWS V14.01,2013-05-13 16:55:00,
2013-05-13 12:56:00,50.1,42.5,30.20,SSW,195,0.0,5.0,75,0.00,,---,0.00,VWS V14.01,2013-05-13 16:56:00,
2013-05-13 12:57:00,50.1,42.5,30.20,SSW,195,0.0,5.0,75,0.00,,---,0.00,VWS V14.01,2013-05-13 16:57:00,
2013-05-13 12:58:00,50.0,42.4,30.20,SSW,195,0.0,5.0,75,0.00,,---,0.00,VWS V14.01,2013-05-13 16:58:00,
2013-05-13 12:59:00,50.0,42.4,30.20,SSW,202,0.0,5.0,75,0.00,,---,0.00,VWS V14.01,2013-05-13 16:59:00,
2013-05-13 13:00:00,50.0,42.4,30.20,SSW,202,0.0,5.0,75,0.00,,---,0.00,VWS V14.01,2013-05-13 17:00:00,
2013-05-13 13:01:00,50.0,42.4,30.20,South,186,0.0,1.0,75,0.00,,---,0.00,VWS V14.01,2013-05-13 17:01:00,
2013-05-13 13:02:00,49.9,42.3,30.20,South,180,3.0,4.0,75,0.00,,---,0.00,VWS V14.01,2013-05-13 17:02:00,
2013-05-13 13:03:00,49.9,42.3,30.20,South,180,2.0,4.0,75,0.00,,---,0.00,VWS V14.01,2013-05-13 17:03:00,
2013-05-13 13:04:00,49.9,42.3,30.20,South,180,1.0,4.0,75,0.00,,---,0.00,VWS V14.01,2013-05-13 17:04:00,
2013-05-13 13:05:00,49.9,42.3,30.20,South,180,0.0,4.0,75,0.00,,---,0.00,VWS V14.01,2013-05-13 17:05:00,
2013-05-13 13:06:00,49.8,42.2,30.20,South,180,0.0,4.0,75,0.00,,---,0.00,VWS V14.01,2013-05-13 17:06:00,
2013-05-13 13:07:00,49.8,42.2,30.20,South,180,0.0,4.0,75,0.00,,---,0.00,VWS V14.01,2013-05-13 17:07:00,
2013-05-13 13:08:00,49.8,42.2,30.20,South,180,0.0,4.0,75,0.00,,---,0.00,VWS V14.01,2013-05-13 17:08:00,
2013-05-13 13:09:00,49.7,42.1,30.20,South,180,0.0,4.0,75,0.00,,---,0.00,VWS V14.01,2013-05-13 17:09:00,
2013-05-13 13:10:00,49.7,42.1,30.20,South,180,0.0,4.0,75,0.00,,---,0.00,VWS V14.01,2013-05-13 17:10:00,
2013-05-13 13:11:00,49.7,42.1,30.20,South,179,1.0,4.0,75,0.00,,---,0.00,VWS V14.01,2013-05-13 17:11:00,
2013-05-13 13:12:00,49.7,42.1,30.20,South,180,0.0,4.0,75,0.00,,---,0.00,VWS V14.01,2013-05-13 17:12:00,
2013-05-13 13:13:00,49.7,42.1,30.20,South,180,0.0,4.0,75,0.00,,---,0.00,VWS V14.01,2013-05-13 17:13:00,
2013-05-13 13:14:00,49.7,42.5,30.20,South,180,1.0,4.0,76,0.00,,---,0.00,VWS V14.01,2013-05-13 17:14:00,
2013-05-13 13:15:00,49.7,42.5,30.20,South,180,1.0,4.0,76,0.00,,---,0.00,VWS V14.01,2013-05-13 17:15:00,
2013-05-13 13:16:00,49.6,42.0,30.20,South,180,0.0,4.0,75,0.00,,---,0.00,VWS V14.01,2013-05-13 17:16:00,
2013-05-13 13:17:00,49.6,42.4,30.20,South,180,0.0,4.0,76,0.00,,---,0.00,VWS V14.01,2013-05-13 17:17:00,
2013-05-13 13:18:00,49.6,42.0,30.21,South,180,0.0,4.0,75,0.00,,---,0.00,VWS V14.01,2013-05-13 17:18:00,
2013-05-13 13:19:00,49.6,42.0,30.21,South,180,0.0,5.0,75,0.00,,---,0.00,VWS V14.01,2013-05-13 17:19:00,
2013-05-13 13:20:00,49.6,42.0,30.20,SSW,198,7.0,7.0,75,0.00,,---,0.00,VWS V14.01,2013-05-13 17:20:00,
2013-05-13 13:21:00,49.6,42.0,30.20,SSW,192,0.0,7.0,75,0.00,,---,0.00,VWS V14.01,2013-05-13 17:21:00,
2013-05-13 13:22:00,49.6,42.0,30.21,South,181,4.0,7.0,75,0.00,,---,0.00,VWS V14.01,2013-05-13 17:22:00,
2013-05-13 13:23:00,49.7,42.1,30.21,South,182,4.0,7.0,75,0.00,,---,0.00,VWS V14.01,2013-05-13 17:23:00,
2013-05-13 13:24:00,49.6,42.0,30.20,SE,127,1.0,7.0,75,0.00,,---,0.00,VWS V14.01,2013-05-13 17:24:00,
2013-05-13 13:25:00,49.7,42.1,30.20,South,182,3.0,7.0,75,0.00,,---,0.00,VWS V14.01,2013-05-13 17:25:00,
2013-05-13 13:26:00,49.7,42.1,30.20,SSE,167,1.0,7.0,75,0.00,,---,0.00,VWS V14.01,2013-05-13 17:26:00,
2013-05-13 13:27:00,49.7,42.1,30.20,South,180,0.0,7.0,75,0.00,,---,0.00,VWS V14.01,2013-05-13 17:27:00,
2013-05-13 13:28:00,49.7,42.1,30.20,South,180,0.0,7.0,75,0.00,,---,0.00,VWS V14.01,2013-05-13 17:28:00,
2013-05-13 13:29:00,49.7,42.1,30.20,SSW,196,4.0,7.0,75,0.00,,---,0.00,VWS V14.01,2013-05-13 17:29:00,
2013-05-13 13:30:00,49.7,42.1,30.20,South,175,4.0,7.0,75,0.00,,---,0.00,VWS V14.01,2013-05-13 17:30:00,
2013-05-13 13:31:00,49.7,42.1,30.20,SSE,150,6.0,7.0,75,0.00,,---,0.00,VWS V14.01,2013-05-13 17:31:00,
2013-05-13 13:32:00,49.7,42.1,30.20,South,180,0.0,7.0,75,0.00,,---,0.00,VWS V14.01,2013-05-13 17:32:00,
2013-05-13 13:33:00,49.8,42.2,30.20,South,188,9.0,9.0,75,0.00,,---,0.00,VWS V14.01,2013-05-13 17:33:00,
2013-05-13 13:34:00,49.8,42.2,30.20,South,169,7.0,9.0,75,0.00,,---,0.00,VWS V14.01,2013-05-13 17:34:00,
2013-05-13 13:35:00,49.8,42.2,30.20,SE,146,0.0,9.0,75,0.00,,---,0.00,VWS V14.01,2013-05-13 17:35:00,
2013-05-13 13:36:00,49.8,42.2,30.20,SSE,149,2.0,9.0,75,0.00,,---,0.00,VWS V14.01,2013-05-13 17:36:00,
2013-05-13 13:37:00,49.9,42.3,30.20,South,174,1.0,9.0,75,0.00,,---,0.00,VWS V14.01,2013-05-13 17:37:00,
2013-05-13 13:38:00,49.9,42.0,30.20,South,171,8.0,10.0,74,0.00,,---,0.00,VWS V14.01,2013-05-13 17:38:00,
2013-05-13 13:39:00,49.9,42.0,30.20,SSE,152,7.0,10.0,74,0.00,,---,0.00,VWS V14.01,2013-05-13 17:39:00,
2013-05-13 13:40:00,50.0,42.0,30.20,SSE,150,7.0,10.0,74,0.00,,---,0.00,VWS V14.01,2013-05-13 17:40:00,
2013-05-13 13:41:00,50.0,42.0,30.20,South,188,0.0,10.0,74,0.00,,---,0.00,VWS V14.01,2013-05-13 17:41:00,
2013-05-13 13:42:00,50.0,42.0,30.20,South,171,3.0,10.0,74,0.00,,---,0.00,VWS V14.01,2013-05-13 17:42:00,
2013-05-13 13:43:00,50.0,42.0,30.20,SSE,165,0.0,12.0,74,0.00,,---,0.00,VWS V14.01,2013-05-13 17:43:00,
2013-05-13 13:44:00,50.1,42.2,30.21,SSW,196,4.0,12.0,74,0.00,,---,0.00,VWS V14.01,2013-05-13 17:44:00,
2013-05-13 13:45:00,50.1,42.2,30.21,South,181,0.0,12.0,74,0.00,,---,0.00,VWS V14.01,2013-05-13 17:45:00,
2013-05-13 13:46:00,50.2,42.2,30.21,South,181,1.0,12.0,74,0.00,,---,0.00,VWS V14.01,2013-05-13 17:46:00,
2013-05-13 13:47:00,50.2,42.2,30.21,SSE,153,0.0,12.0,74,0.00,,---,0.00,VWS V14.01,2013-05-13 17:47:00,
2013-05-13 13:48:00,50.3,42.3,30.21,South,170,0.0,12.0,74,0.00,,---,0.00,VWS V14.01,2013-05-13 17:48:00,
2013-05-13 13:49:00,50.4,42.1,30.21,South,169,0.0,12.0,73,0.00,,---,0.00,VWS V14.01,2013-05-13 17:49:00,
2013-05-13 13:50:00,50.4,42.1,30.21,SE,142,0.0,12.0,73,0.00,,---,0.00,VWS V14.01,2013-05-13 17:50:00,
2013-05-13 13:51:00,50.5,42.2,30.21,ESE,121,2.0,12.0,73,0.00,,---,0.00,VWS V14.01,2013-05-13 17:51:00,
2013-05-13 13:52:00,50.5,42.2,30.21,SSE,163,0.0,12.0,73,0.00,,---,0.00,VWS V14.01,2013-05-13 17:52:00,
2013-05-13 13:53:00,50.6,41.9,30.21,SSW,194,0.0,12.0,72,0.00,,---,0.00,VWS V14.01,2013-05-13 17:53:00,
2013-05-13 13:54:00,50.7,42.0,30.21,SSE,162,2.0,12.0,72,0.00,,---,0.00,VWS V14.01,2013-05-13 17:54:00,
2013-05-13 13:55:00,50.7,42.0,30.21,SSE,164,0.0,12.0,72,0.00,,---,0.00,VWS V14.01,2013-05-13 17:55:00,
2013-05-13 13:56:00,50.8,42.1,30.21,SSE,164,1.0,12.0,72,0.00,,---,0.00,VWS V14.01,2013-05-13 17:56:00,
2013-05-13 13:57:00,50.9,41.8,30.21,SSE,165,0.0,12.0,71,0.00,,---,0.00,VWS V14.01,2013-05-13 17:57:00,
2013-05-13 13:58:00,51.0,41.9,30.21,SSE,165,0.0,12.0,71,0.00,,---,0.00,VWS V14.01,2013-05-13 17:58:00,
2013-05-13 13:59:00,51.0,41.9,30.21,South,186,0.0,12.0,71,0.00,,---,0.00,VWS V14.01,2013-05-13 17:59:00,
2013-05-13 14:00:00,51.1,42.0,30.21,South,181,0.0,12.0,71,0.00,,---,0.00,VWS V14.01,2013-05-13 18:00:00,
2013-05-13 14:01:00,51.2,42.1,30.21,South,171,2.0,5.0,71,0.00,,---,0.00,VWS V14.01,2013-05-13 18:01:00,
2013-05-13 14:02:00,51.3,41.9,30.21,West,272,0.0,5.0,70,0.00,,---,0.00,VWS V14.01,2013-05-13 18:02:00,
2013-05-13 14:03:00,51.3,42.2,30.21,SSE,154,1.0,5.0,71,0.00,,---,0.00,VWS V14.01,2013-05-13 18:03:00,
2013-05-13 14:04:00,51.4,42.0,30.21,SSE,168,2.0,5.0,70,0.00,,---,0.00,VWS V14.01,2013-05-13 18:04:00,
2013-05-13 14:05:00,51.5,42.0,30.21,SW,235,1.0,5.0,70,0.00,,---,0.00,VWS V14.01,2013-05-13 18:05:00,
2013-05-13 14:06:00,51.5,42.0,30.21,South,173,0.0,5.0,70,0.00,,---,0.00,VWS V14.01,2013-05-13 18:06:00,
2013-05-13 14:07:00,51.6,41.8,30.21,SSE,164,0.0,5.0,69,0.00,,---,0.00,VWS V14.01,2013-05-13 18:07:00,
2013-05-13 14:08:00,51.6,41.8,30.21,South,182,5.0,5.0,69,0.00,,---,0.00,VWS V14.01,2013-05-13 18:08:00,
2013-05-13 14:09:00,51.7,41.5,30.21,SSE,159,0.0,5.0,68,0.00,,---,0.00,VWS V14.01,2013-05-13 18:09:00,
2013-05-13 14:10:00,51.8,41.6,30.21,SSE,159,0.0,5.0,68,0.00,,---,0.00,VWS V14.01,2013-05-13 18:10:00,
2013-05-13 14:11:00,51.9,41.7,30.21,ESE,109,0.0,5.0,68,0.00,,---,0.00,VWS V14.01,2013-05-13 18:11:00,
2013-05-13 14:12:00,51.9,41.7,30.21,SW,226,0.0,5.0,68,0.00,,---,0.00,VWS V14.01,2013-05-13 18:12:00,
2013-05-13 14:13:00,52.0,41.8,30.22,SW,226,0.0,5.0,68,0.00,,---,0.00,VWS V14.01,2013-05-13 18:13:00,
2013-05-13 14:14:00,52.1,41.9,30.22,SSE,155,0.0,5.0,68,0.00,,---,0.00,VWS V14.01,2013-05-13 18:14:00,
2013-05-13 14:15:00,52.1,41.9,30.22,SE,136,1.0,5.0,68,0.00,,---,0.00,VWS V14.01,2013-05-13 18:15:00,
2013-05-13 14:16:00,52.1,41.5,30.22,SSW,204,0.0,5.0,67,0.00,,---,0.00,VWS V14.01,2013-05-13 18:16:00,
2013-05-13 14:17:00,52.2,42.0,30.22,West,259,0.0,6.0,68,0.00,,---,0.00,VWS V14.01,2013-05-13 18:17:00,
2013-05-13 14:18:00,52.2,42.0,30.22,SW,224,0.0,6.0,68,0.00,,---,0.00,VWS V14.01,2013-05-13 18:18:00,
2013-05-13 14:19:00,52.3,42.1,30.22,SW,232,0.0,6.0,68,0.00,,---,0.00,VWS V14.01,2013-05-13 18:19:00,
2013-05-13 14:20:00,52.3,41.7,30.22,SW,223,0.0,6.0,67,0.00,,---,0.00,VWS V14.01,2013-05-13 18:20:00,
2013-05-13 14:21:00,52.4,41.8,30.22,SSW,211,0.0,6.0,67,0.00,,---,0.00,VWS V14.01,2013-05-13 18:21:00,
2013-05-13 14:22:00,52.4,41.8,30.22,WSW,254,0.0,6.0,67,0.00,,---,0.00,VWS V14.01,2013-05-13 18:22:00,
2013-05-13 14:23:00,52.4,41.8,30.23,WSW,254,0.0,6.0,67,0.00,,---,0.00,VWS V14.01,2013-05-13 18:23:00,
2013-05-13 14:24:00,52.4,41.8,30.23,WSW,254,0.0,6.0,67,0.00,,---,0.00,VWS V14.01,2013-05-13 18:24:00,
2013-05-13 14:25:00,52.5,41.9,30.23,WSW,254,0.0,6.0,67,0.00,,---,0.00,VWS V14.01,2013-05-13 18:25:00,
2013-05-13 14:26:00,52.5,42.3,30.23,WSW,254,0.0,6.0,68,0.00,,---,0.00,VWS V14.01,2013-05-13 18:26:00,
2013-05-13 14:27:00,52.5,41.9,30.23,WSW,254,0.0,6.0,67,0.00,,---,0.00,VWS V14.01,2013-05-13 18:27:00,
2013-05-13 14:28:00,52.6,42.3,30.23,SW,223,0.0,6.0,68,0.00,,---,0.00,VWS V14.01,2013-05-13 18:28:00,
2013-05-13 14:29:00,52.6,42.0,30.23,SW,223,0.0,6.0,67,0.00,,---,0.00,VWS V14.01,2013-05-13 18:29:00,
2013-05-13 14:30:00,52.7,42.5,30.23,SW,222,1.0,6.0,68,0.00,,---,0.00,VWS V14.01,2013-05-13 18:30:00,
2013-05-13 14:31:00,52.7,42.1,30.23,South,190,0.0,1.0,67,0.00,,---,0.00,VWS V14.01,2013-05-13 18:31:00,
2013-05-13 14:32:00,52.7,42.1,30.23,South,190,0.0,1.0,67,0.00,,---,0.00,VWS V14.01,2013-05-13 18:32:00,
2013-05-13 14:33:00,52.7,42.5,30.23,South,190,0.0,1.0,68,0.00,,---,0.00,VWS V14.01,2013-05-13 18:33:00,
2013-05-13 14:34:00,52.8,42.2,30.23,South,190,0.0,1.0,67,0.00,,---,0.00,VWS V14.01,2013-05-13 18:34:00,
2013-05-13 14:35:00,52.8,42.5,30.23,South,190,0.0,1.0,68,0.00,,---,0.00,VWS V14.01,2013-05-13 18:35:00,
2013-05-13 14:36:00,52.8,42.2,30.23,WSW,248,0.0,1.0,67,0.00,,---,0.00,VWS V14.01,2013-05-13 18:36:00,
2013-05-13 14:37:00,52.9,42.6,30.23,WSW,248,0.0,1.0,68,0.00,,---,0.00,VWS V14.01,2013-05-13 18:37:00,
2013-05-13 14:38:00,52.9,42.6,30.23,WSW,246,0.0,1.0,68,0.00,,---,0.00,VWS V14.01,2013-05-13 18:38:00,
2013-05-13 14:39:00,53.0,42.7,30.23,WSW,258,0.0,2.0,68,0.00,,---,0.00,VWS V14.01,2013-05-13 18:39:00,
2013-05-13 14:40:00,53.1,42.8,30.23,WSW,258,0.0,2.0,68,0.00,,---,0.00,VWS V14.01,2013-05-13 18:40:00,
2013-05-13 14:41:00,53.1,42.8,30.23,SSE,149,0.0,3.0,68,0.00,,---,0.00,VWS V14.01,2013-05-13 18:41:00,
2013-05-13 14:42:00,53.2,42.5,30.23,SSE,166,0.0,3.0,67,0.00,,---,0.00,VWS V14.01,2013-05-13 18:42:00,
2013-05-13 14:43:00,53.3,42.2,30.23,SSE,166,0.0,3.0,66,0.00,,---,0.00,VWS V14.01,2013-05-13 18:43:00,
2013-05-13 14:44:00,53.3,42.2,30.23,SSE,166,0.0,3.0,66,0.00,,---,0.00,VWS V14.01,2013-05-13 18:44:00,
2013-05-13 14:45:00,53.4,42.3,30.23,ESE,115,0.0,3.0,66,0.00,,---,0.00,VWS V14.01,2013-05-13 18:45:00,
2013-05-13 14:46:00,53.5,42.4,30.23,South,173,0.0,3.0,66,0.00,,---,0.00,VWS V14.01,2013-05-13 18:46:00,
2013-05-13 14:47:00,53.5,42.4,30.23,South,180,0.0,4.0,66,0.00,,---,0.00,VWS V14.01,2013-05-13 18:47:00,
2013-05-13 14:48:00,53.6,42.1,30.23,South,180,0.0,4.0,65,0.00,,---,0.00,VWS V14.01,2013-05-13 18:48:00,
2013-05-13 14:49:00,53.7,42.6,30.23,South,180,0.0,4.0,66,0.00,,---,0.00,VWS V14.01,2013-05-13 18:49:00,
2013-05-13 14:50:00,53.7,42.2,30.24,South,180,0.0,4.0,65,0.00,,---,0.00,VWS V14.01,2013-05-13 18:50:00,
2013-05-13 14:51:00,53.8,42.7,30.24,South,180,0.0,4.0,66,0.00,,---,0.00,VWS V14.01,2013-05-13 18:51:00,
2013-05-13 14:52:00,53.9,42.8,30.24,South,180,0.0,4.0,66,0.00,,---,0.00,VWS V14.01,2013-05-13 18:52:00,
2013-05-13 14:53:00,54.0,43.3,30.24,South,180,0.0,4.0,67,0.00,,---,0.00,VWS V14.01,2013-05-13 18:53:00,
2013-05-13 14:54:00,54.0,42.9,30.24,South,180,0.0,4.0,66,0.00,,---,0.00,VWS V14.01,2013-05-13 18:54:00,
2013-05-13 14:55:00,54.1,42.6,30.24,South,180,0.0,4.0,65,0.00,,---,0.00,VWS V14.01,2013-05-13 18:55:00,
2013-05-13 14:56:00,54.2,42.3,30.24,West,273,0.0,4.0,64,0.00,,---,0.00,VWS V14.01,2013-05-13 18:56:00,
2013-05-13 14:57:00,54.2,41.9,30.24,South,169,2.0,4.0,63,0.00,,---,0.00,VWS V14.01,2013-05-13 18:57:00,
2013-05-13 14:58:00,54.3,41.6,30.24,South,186,3.0,4.0,62,0.00,,---,0.00,VWS V14.01,2013-05-13 18:58:00,
2013-05-13 14:59:00,54.4,41.7,30.24,South,178,0.0,4.0,62,0.00,,---,0.00,VWS V14.01,2013-05-13 18:59:00,
2013-05-13 15:00:00,54.4,41.7,30.24,SSE,168,2.0,4.0,62,0.00,,---,0.00,VWS V14.01,2013-05-13 19:00:00,
2013-05-13 15:01:00,54.5,41.8,30.24,South,178,2.0,4.0,62,0.00,,---,0.00,VWS V14.01,2013-05-13 19:01:00,
2013-05-13 15:02:00,54.6,41.4,30.24,South,178,1.0,4.0,61,0.00,,---,0.00,VWS V14.01,2013-05-13 19:02:00,
2013-05-13 15:03:00,54.7,42.0,30.24,South,178,0.0,4.0,62,0.00,,---,0.00,VWS V14.01,2013-05-13 19:03:00,
2013-05-13 15:04:00,54.8,42.0,30.24,South,178,0.0,4.0,62,0.00,,---,0.00,VWS V14.01,2013-05-13 19:04:00,
2013-05-13 15:05:00,54.8,42.0,30.24,WSW,247,0.0,4.0,62,0.00,,---,0.00,VWS V14.01,2013-05-13 19:05:00,
2013-05-13 15:06:00,54.9,41.7,30.24,WSW,247,0.0,4.0,61,0.00,,---,0.00,VWS V14.01,2013-05-13 19:06:00,
2013-05-13 15:07:00,55.0,41.8,30.24,NW,307,0.0,4.0,61,0.00,,---,0.00,VWS V14.01,2013-05-13 19:07:00,
2013-05-13 15:08:00,55.1,41.9,30.24,West,269,0.0,4.0,61,0.00,,---,0.00,VWS V14.01,2013-05-13 19:08:00,
2013-05-13 15:09:00,55.2,42.0,30.24,WSW,258,0.0,4.0,61,0.00,,---,0.00,VWS V14.01,2013-05-13 19:09:00,
2013-05-13 15:10:00,55.4,41.8,30.24,WSW,257,0.0,4.0,60,0.00,,---,0.00,VWS V14.01,2013-05-13 19:10:00,
2013-05-13 15:11:00,55.5,41.9,30.24,WSW,256,0.0,4.0,60,0.00,,---,0.00,VWS V14.01,2013-05-13 19:11:00,
2013-05-13 15:12:00,55.7,42.0,30.24,WSW,256,0.0,4.0,60,0.00,,---,0.00,VWS V14.01,2013-05-13 19:12:00,
2013-05-13 15:13:00,55.8,42.1,30.24,West,265,0.0,4.0,60,0.00,,---,0.00,VWS V14.01,2013-05-13 19:13:00,
2013-05-13 15:14:00,55.9,41.8,30.24,West,265,0.0,4.0,59,0.00,,---,0.00,VWS V14.01,2013-05-13 19:14:00,
2013-05-13 15:15:00,56.1,42.0,30.24,West,261,0.0,4.0,59,0.00,,---,0.00,VWS V14.01,2013-05-13 19:15:00,
2013-05-13 15:16:00,56.3,42.2,30.24,ESE,119,0.0,4.0,59,0.00,,---,0.00,VWS V14.01,2013-05-13 19:16:00,
2013-05-13 15:17:00,56.4,42.3,30.24,SSE,157,0.0,4.0,59,0.00,,---,0.00,VWS V14.01,2013-05-13 19:17:00,
2013-05-13 15:18:00,56.5,42.4,30.24,WSW,256,0.0,4.0,59,0.00,,---,0.00,VWS V14.01,2013-05-13 19:18:00,
2013-05-13 15:19:00,56.6,42.5,30.24,West,279,2.0,4.0,59,0.00,,---,0.00,VWS V14.01,2013-05-13 19:19:00,
2013-05-13 15:20:00,56.7,42.1,30.24,West,271,0.0,4.0,58,0.00,,---,0.00,VWS V14.01,2013-05-13 19:20:00,
2013-05-13 15:21:00,56.7,42.1,30.24,WSW,258,1.0,5.0,58,0.00,,---,0.00,VWS V14.01,2013-05-13 19:21:00,
2013-05-13 15:22:00,56.8,41.8,30.25,WSW,258,0.0,5.0,57,0.00,,---,0.00,VWS V14.01,2013-05-13 19:22:00,
2013-05-13 15:23:00,56.9,42.7,30.25,WSW,255,0.0,5.0,59,0.00,,---,0.00,VWS V14.01,2013-05-13 19:23:00,
2013-05-13 15:24:00,57.0,42.4,30.25,SW,222,1.0,5.0,58,0.00,,---,0.00,VWS V14.01,2013-05-13 19:24:00,
2013-05-13 15:25:00,57.1,42.0,30.25,South,187,0.0,5.0,57,0.00,,---,0.00,VWS V14.01,2013-05-13 19:25:00,
2013-05-13 15:26:00,57.2,42.1,30.25,SW,217,0.0,5.0,57,0.00,,---,0.00,VWS V14.01,2013-05-13 19:26:00,
2013-05-13 15:27:00,57.2,42.1,30.25,SE,138,0.0,5.0,57,0.00,,---,0.00,VWS V14.01,2013-05-13 19:27:00,
2013-05-13 15:28:00,57.3,42.2,30.25,West,261,0.0,5.0,57,0.00,,---,0.00,VWS V14.01,2013-05-13 19:28:00,
2013-05-13 15:29:00,57.4,42.3,30.25,WSW,254,0.0,5.0,57,0.00,,---,0.00,VWS V14.01,2013-05-13 19:29:00,
2013-05-13 15:30:00,57.5,42.4,30.25,WSW,254,0.0,5.0,57,0.00,,---,0.00,VWS V14.01,2013-05-13 19:30:00,
2013-05-13 15:31:00,57.6,42.5,30.25,SSW,194,0.0,1.0,57,0.00,,---,0.00,VWS V14.01,2013-05-13 19:31:00,
2013-05-13 15:32:00,57.7,42.6,30.25,SSW,194,0.0,1.0,57,0.00,,---,0.00,VWS V14.01,2013-05-13 19:32:00,
2013-05-13 15:33:00,57.8,42.7,30.25,SSW,194,0.0,1.0,57,0.00,,---,0.00,VWS V14.01,2013-05-13 19:33:00,
2013-05-13 15:34:00,57.9,42.3,30.25,SSE,167,0.0,1.0,56,0.00,,---,0.00,VWS V14.01,2013-05-13 19:34:00,
2013-05-13 15:35:00,58.0,41.9,30.25,South,178,0.0,6.0,55,0.00,,---,0.00,VWS V14.01,2013-05-13 19:35:00,
2013-05-13 15:36:00,58.1,41.6,30.25,SSW,207,0.0,6.0,54,0.00,,---,0.00,VWS V14.01,2013-05-13 19:36:00,
2013-05-13 15:37:00,58.2,41.7,30.25,SSW,206,0.0,6.0,54,0.00,,---,0.00,VWS V14.01,2013-05-13 19:37:00,
2013-05-13 15:38:00,58.2,41.7,30.25,SSW,203,0.0,6.0,54,0.00,,---,0.00,VWS V14.01,2013-05-13 19:38:00,
2013-05-13 15:39:00,58.3,41.8,30.25,WSW,255,3.0,7.0,54,0.00,,---,0.00,VWS V14.01,2013-05-13 19:39:00,
2013-05-13 15:40:00,58.4,42.3,30.25,SE,138,0.0,7.0,55,0.00,,---,0.00,VWS V14.01,2013-05-13 19:40:00,
2013-05-13 15:41:00,58.5,41.9,30.25,WSW,248,0.0,7.0,54,0.00,,---,0.00,VWS V14.01,2013-05-13 19:41:00,
2013-05-13 15:42:00,58.6,42.0,30.25,ESE,116,0.0,7.0,54,0.00,,---,0.00,VWS V14.01,2013-05-13 19:42:00,
2013-05-13 15:43:00,58.7,41.6,30.25,WSW,245,5.0,7.0,53,0.00,,---,0.00,VWS V14.01,2013-05-13 19:43:00,
2013-05-13 15:44:00,58.8,41.7,30.25,West,263,1.0,7.0,53,0.00,,---,0.00,VWS V14.01,2013-05-13 19:44:00,
2013-05-13 15:45:00,58.8,41.2,30.25,WSW,246,0.0,7.0,52,0.00,,---,0.00,VWS V14.01,2013-05-13 19:45:00,
2013-05-13 15:46:00,58.9,41.8,30.25,WSW,244,0.0,7.0,53,0.00,,---,0.00,VWS V14.01,2013-05-13 19:46:00,
2013-05-13 15:47:00,59.0,41.9,30.25,WSW,257,0.0,7.0,53,0.00,,---,0.00,VWS V14.01,2013-05-13 19:47:00,
2013-05-13 15:48:00,59.1,41.5,30.25,WSW,248,0.0,7.0,52,0.00,,---,0.00,VWS V14.01,2013-05-13 19:48:00,
2013-05-13 15:49:00,59.3,41.7,30.25,West,262,1.0,7.0,52,0.00,,---,0.00,VWS V14.01,2013-05-13 19:49:00,
2013-05-13 15:50:00,59.4,41.8,30.25,West,261,0.0,7.0,52,0.00,,---,0.00,VWS V14.01,2013-05-13 19:50:00,
2013-05-13 15:51:00,59.5,41.4,30.25,WSW,253,0.0,7.0,51,0.00,,---,0.00,VWS V14.01,2013-05-13 19:51:00,
2013-05-13 15:52:00,59.5,41.4,30.25,South,175,0.0,7.0,51,0.00,,---,0.00,VWS V14.01,2013-05-13 19:52:00,
2013-05-13 15:53:00,59.5,41.4,30.25,South,184,0.0,7.0,51,0.00,,---,0.00,VWS V14.01,2013-05-13 19:53:00,
2013-05-13 15:54:00,59.5,41.4,30.25,SW,217,0.0,7.0,51,0.00,,---,0.00,VWS V14.01,2013-05-13 19:54:00,
2013-05-13 15:55:00,59.6,41.5,30.25,South,180,0.0,7.0,51,0.00,,---,0.00,VWS V14.01,2013-05-13 19:55:00,
2013-05-13 15:56:00,59.6,41.5,30.26,SSE,159,0.0,7.0,51,0.00,,---,0.00,VWS V14.01,2013-05-13 19:56:00,
2013-05-13 15:57:00,59.6,42.0,30.25,SSE,156,0.0,7.0,52,0.00,,---,0.00,VWS V14.01,2013-05-13 19:57:00,
2013-05-13 15:58:00,59.7,42.6,30.26,WSW,248,0.0,7.0,53,0.00,,---,0.00,VWS V14.01,2013-05-13 19:58:00,
2013-05-13 15:59:00,59.8,41.1,30.26,West,278,0.0,8.0,50,0.00,,---,0.00,VWS V14.01,2013-05-13 19:59:00,
2013-05-13 16:00:00,59.8,41.1,30.26,SW,236,0.0,8.0,50,0.00,,---,0.00,VWS V14.01,2013-05-13 20:00:00,
2013-05-13 16:01:00,60.0,41.3,30.26,West,279,0.0,5.0,50,0.00,,---,0.00,VWS V14.01,2013-05-13 20:01:00,
2013-05-13 16:02:00,60.1,41.4,30.26,WSW,252,0.0,5.0,50,0.00,,---,0.00,VWS V14.01,2013-05-13 20:02:00,
2013-05-13 16:03:00,60.2,41.0,30.26,SW,220,0.0,5.0,49,0.00,,---,0.00,VWS V14.01,2013-05-13 20:03:00,
2013-05-13 16:04:00,60.3,41.1,30.26,WSW,244,7.0,7.0,49,0.00,,---,0.00,VWS V14.01,2013-05-13 20:04:00,
2013-05-13 16:05:00,60.3,41.1,30.26,West,271,0.0,7.0,49,0.00,,---,0.00,VWS V14.01,2013-05-13 20:05:00,
2013-05-13 16:06:00,60.4,41.2,30.26,West,267,0.0,7.0,49,0.00,,---,0.00,VWS V14.01,2013-05-13 20:06:00,
2013-05-13 16:07:00,60.5,40.7,30.26,South,174,0.0,7.0,48,0.00,,---,0.00,VWS V14.01,2013-05-13 20:07:00,
2013-05-13 16:08:00,60.5,40.7,30.26,WSW,254,0.0,7.0,48,0.00,,---,0.00,VWS V14.01,2013-05-13 20:08:00,
2013-05-13 16:09:00,60.5,40.7,30.26,WSW,239,0.0,7.0,48,0.00,,---,0.00,VWS V14.01,2013-05-13 20:09:00,
2013-05-13 16:10:00,60.6,41.4,30.26,WSW,242,0.0,7.0,49,0.00,,---,0.00,VWS V14.01,2013-05-13 20:10:00,
2013-05-13 16:11:00,60.6,40.8,30.26,South,173,0.0,7.0,48,0.00,,---,0.00,VWS V14.01,2013-05-13 20:11:00,
2013-05-13 16:12:00,60.6,41.4,30.26,South,178,0.0,7.0,49,0.00,,---,0.00,VWS V14.01,2013-05-13 20:12:00,
2013-05-13 16:13:00,60.6,41.4,30.26,South,178,0.0,7.0,49,0.00,,---,0.00,VWS V14.01,2013-05-13 20:13:00,
2013-05-13 16:14:00,60.6,41.4,30.26,South,178,0.0,7.0,49,0.00,,---,0.00,VWS V14.01,2013-05-13 20:14:00,
2013-05-13 16:15:00,60.6,41.4,30.26,West,275,0.0,7.0,49,0.00,,---,0.00,VWS V14.01,2013-05-13 20:15:00,
2013-05-13 16:16:00,60.7,41.5,30.26,West,275,0.0,7.0,49,0.00,,---,0.00,VWS V14.01,2013-05-13 20:16:00,
2013-05-13 16:17:00,60.8,41.5,30.26,WSW,242,0.0,7.0,49,0.00,,---,0.00,VWS V14.01,2013-05-13 20:17:00,
2013-05-13 16:18:00,61.0,41.7,30.26,WSW,256,0.0,7.0,49,0.00,,---,0.00,VWS V14.01,2013-05-13 20:18:00,
2013-05-13 16:19:00,61.1,41.8,30.26,West,268,4.0,7.0,49,0.00,,---,0.00,VWS V14.01,2013-05-13 20:19:00,
2013-05-13 16:20:00,61.2,41.4,30.26,West,267,0.0,7.0,48,0.00,,---,0.00,VWS V14.01,2013-05-13 20:20:00,
2013-05-13 16:21:00,61.3,41.5,30.26,WSW,238,4.0,7.0,48,0.00,,---,0.00,VWS V14.01,2013-05-13 20:21:00,
2013-05-13 16:22:00,61.3,41.5,30.26,NW,309,4.0,7.0,48,0.00,,---,0.00,VWS V14.01,2013-05-13 20:22:00,
2013-05-13 16:23:00,61.4,41.6,30.26,SW,220,0.0,7.0,48,0.00,,---,0.00,VWS V14.01,2013-05-13 20:23:00,
2013-05-13 16:24:00,61.5,41.7,30.26,WSW,247,4.0,7.0,48,0.00,,---,0.00,VWS V14.01,2013-05-13 20:24:00,
2013-05-13 16:25:00,61.6,41.2,30.26,WSW,246,0.0,7.0,47,0.00,,---,0.00,VWS V14.01,2013-05-13 20:25:00,
2013-05-13 16:26:00,61.6,40.6,30.26,WSW,249,5.0,7.0,46,0.00,,---,0.00,VWS V14.01,2013-05-13 20:26:00,
2013-05-13 16:27:00,61.6,40.6,30.26,West,261,6.0,7.0,46,0.00,,---,0.00,VWS V14.01,2013-05-13 20:27:00,
2013-05-13 16:28:00,61.6,40.6,30.26,West,269,2.0,7.0,46,0.00,,---,0.00,VWS V14.01,2013-05-13 20:28:00,
2013-05-13 16:29:00,61.6,40.6,30.26,South,175,3.0,7.0,46,0.00,,---,0.00,VWS V14.01,2013-05-13 20:29:00,
2013-05-13 16:30:00,61.6,41.2,30.26,SSE,155,0.0,7.0,47,0.00,,---,0.00,VWS V14.01,2013-05-13 20:30:00,
2013-05-13 16:31:00,61.7,40.7,30.26,SSE,155,0.0,0.0,46,0.00,,---,0.00,VWS V14.01,2013-05-13 20:31:00,
2013-05-13 16:32:00,61.8,41.4,30.26,West,271,2.0,3.0,47,0.00,,---,0.00,VWS V14.01,2013-05-13 20:32:00,
2013-05-13 16:33:00,61.9,40.9,30.26,West,261,0.0,3.0,46,0.00,,---,0.00,VWS V14.01,2013-05-13 20:33:00,
2013-05-13 16:34:00,62.1,41.1,30.26,South,190,0.0,3.0,46,0.00,,---,0.00,VWS V14.01,2013-05-13 20:34:00,
2013-05-13 16:35:00,62.1,41.1,30.26,SSE,165,2.0,5.0,46,0.00,,---,0.00,VWS V14.01,2013-05-13 20:35:00,
2013-05-13 16:36:00,62.1,40.5,30.26,SW,225,0.0,5.0,45,0.00,,---,0.00,VWS V14.01,2013-05-13 20:36:00,
2013-05-13 16:37:00,62.1,41.1,30.26,South,176,0.0,5.0,46,0.00,,---,0.00,VWS V14.01,2013-05-13 20:37:00,
2013-05-13 16:38:00,62.1,41.1,30.26,South,176,0.0,5.0,46,0.00,,---,0.00,VWS V14.01,2013-05-13 20:38:00,
2013-05-13 16:39:00,62.2,41.2,30.26,South,175,0.0,5.0,46,0.00,,---,0.00,VWS V14.01,2013-05-13 20:39:00,
2013-05-13 16:40:00,62.2,41.2,30.26,SSW,192,0.0,5.0,46,0.00,,---,0.00,VWS V14.01,2013-05-13 20:40:00,
2013-05-13 16:41:00,62.4,41.4,30.26,West,265,0.0,5.0,46,0.00,,---,0.00,VWS V14.01,2013-05-13 20:41:00,
2013-05-13 16:42:00,62.5,41.5,30.26,West,265,0.0,5.0,46,0.00,,---,0.00,VWS V14.01,2013-05-13 20:42:00,
2013-05-13 16:43:00,62.6,41.5,30.26,West,275,0.0,5.0,46,0.00,,---,0.00,VWS V14.01,2013-05-13 20:43:00,
2013-05-13 16:44:00,62.7,41.6,30.26,NNW,336,0.0,5.0,46,0.00,,---,0.00,VWS V14.01,2013-05-13 20:44:00,
2013-05-13 16:45:00,62.9,41.8,30.26,WNW,294,0.0,5.0,46,0.00,,---,0.00,VWS V14.01,2013-05-13 20:45:00,
2013-05-13 16:46:00,63.1,42.0,30.26,WNW,294,0.0,5.0,46,0.00,,---,0.00,VWS V14.01,2013-05-13 20:46:00,
2013-05-13 16:47:00,63.2,42.7,30.26,WNW,294,0.0,5.0,47,0.00,,---,0.00,VWS V14.01,2013-05-13 20:47:00,
2013-05-13 16:48:00,63.4,42.3,30.26,West,269,0.0,5.0,46,0.00,,---,0.00,VWS V14.01,2013-05-13 20:48:00,
2013-05-13 16:49:00,63.7,42.0,30.26,WNW,299,3.0,5.0,45,0.00,,---,0.00,VWS V14.01,2013-05-13 20:49:00,
2013-05-13 16:50:00,63.8,41.5,30.26,WSW,247,0.0,5.0,44,0.00,,---,0.00,VWS V14.01,2013-05-13 20:50:00,
2013-05-13 16:51:00,63.8,42.1,30.26,West,264,2.0,5.0,45,0.00,,---,0.00,VWS V14.01,2013-05-13 20:51:00,
2013-05-13 16:52:00,63.8,42.1,30.26,WNW,289,0.0,5.0,45,0.00,,---,0.00,VWS V14.01,2013-05-13 20:52:00,
2013-05-13 16:53:00,63.8,42.1,30.26,WNW,301,0.0,5.0,45,0.00,,---,0.00,VWS V14.01,2013-05-13 20:53:00,
2013-05-13 16:54:00,63.8,42.1,30.26,West,271,2.0,5.0,45,0.00,,---,0.00,VWS V14.01,2013-05-13 20:54:00,
2013-05-13 16:55:00,63.8,42.6,30.26,WSW,256,0.0,5.0,46,0.00,,---,0.00,VWS V14.01,2013-05-13 20:55:00,
2013-05-13 16:56:00,63.9,41.6,30.26,WSW,256,0.0,5.0,44,0.00,,---,0.00,VWS V14.01,2013-05-13 20:56:00,
2013-05-13 16:57:00,63.9,41.6,30.26,NW,305,1.0,5.0,44,0.00,,---,0.00,VWS V14.01,2013-05-13 20:57:00,
2013-05-13 16:58:00,63.9,41.0,30.26,West,260,0.0,5.0,43,0.00,,---,0.00,VWS V14.01,2013-05-13 20:58:00,
2013-05-13 16:59:00,63.8,40.3,30.26,West,263,0.0,6.0,42,0.00,,---,0.00,VWS V14.01,2013-05-13 20:59:00,
2013-05-13 17:00:00,63.8,40.9,30.26,WNW,296,4.0,6.0,43,0.00,,---,0.00,VWS V14.01,2013-05-13 21:00:00,
2013-05-13 17:01:00,63.8,40.9,30.26,WNW,298,0.0,5.0,43,0.00,,---,0.00,VWS V14.01,2013-05-13 21:01:00,
2013-05-13 17:02:00,63.8,40.9,30.26,WNW,298,0.0,5.0,43,0.00,,---,0.00,VWS V14.01,2013-05-13 21:02:00,
2013-05-13 17:03:00,63.9,41.6,30.26,WNW,298,0.0,5.0,44,0.00,,---,0.00,VWS V14.01,2013-05-13 21:03:00,
2013-05-13 17:04:00,64.0,41.1,30.26,WNW,298,0.0,5.0,43,0.00,,---,0.00,VWS V14.01,2013-05-13 21:04:00,
2013-05-13 17:05:00,64.1,41.2,30.26,WNW,298,0.0,5.0,43,0.00,,---,0.00,VWS V14.01,2013-05-13 21:05:00,
2013-05-13 17:06:00,64.4,41.4,30.26,WNW,298,0.0,5.0,43,0.00,,---,0.00,VWS V14.01,2013-05-13 21:06:00,
2013-05-13 17:07:00,64.5,42.1,30.26,West,269,1.0,5.0,44,0.00,,---,0.00,VWS V14.01,2013-05-13 21:07:00,
2013-05-13 17:08:00,64.7,42.3,30.26,NW,313,4.0,5.0,44,0.00,,---,0.00,VWS V14.01,2013-05-13 21:08:00,
2013-05-13 17:09:00,64.8,42.4,30.26,NW,313,0.0,5.0,44,0.00,,---,0.00,VWS V14.01,2013-05-13 21:09:00,
2013-05-13 17:10:00,64.8,41.2,30.26,WNW,284,1.0,5.0,42,0.00,,---,0.00,VWS V14.01,2013-05-13 21:10:00,
2013-05-13 17:11:00,64.8,41.2,30.26,West,273,0.0,5.0,42,0.00,,---,0.00,VWS V14.01,2013-05-13 21:11:00,
2013-05-13 17:12:00,64.8,40.6,30.26,WSW,252,2.0,5.0,41,0.00,,---,0.00,VWS V14.01,2013-05-13 21:12:00,
2013-05-13 17:13:00,64.8,40.6,30.26,NW,305,3.0,5.0,41,0.00,,---,0.00,VWS V14.01,2013-05-13 21:13:00,
2013-05-13 17:14:00,64.9,41.3,30.26,WSW,242,2.0,5.0,42,0.00,,---,0.00,VWS V14.01,2013-05-13 21:14:00,
2013-05-13 17:15:00,64.9,40.0,30.26,West,259,1.0,5.0,40,0.00,,---,0.00,VWS V14.01,2013-05-13 21:15:00,
2013-05-13 17:16:00,64.9,40.7,30.26,WSW,243,3.0,5.0,41,0.00,,---,0.00,VWS V14.01,2013-05-13 21:16:00,
2013-05-13 17:17:00,64.9,41.3,30.26,West,265,0.0,5.0,42,0.00,,---,0.00,VWS V14.01,2013-05-13 21:17:00,
2013-05-13 17:18:00,64.8,41.2,30.26,WNW,294,1.0,5.0,42,0.00,,---,0.00,VWS V14.01,2013-05-13 21:18:00,
2013-05-13 17:19:00,64.8,41.2,30.26,WNW,295,0.0,5.0,42,0.00,,---,0.00,VWS V14.01,2013-05-13 21:19:00,
2013-05-13 17:20:00,64.8,41.2,30.26,WNW,296,0.0,5.0,42,0.00,,---,0.00,VWS V14.01,2013-05-13 21:20:00,
2013-05-13 17:21:00,64.8,41.2,30.26,WNW,296,0.0,5.0,42,0.00,,---,0.00,VWS V14.01,2013-05-13 21:21:00,
2013-05-13 17:22:00,64.9,42.5,30.26,ESE,111,0.0,5.0,44,0.00,,---,0.00,VWS V14.01,2013-05-13 21:22:00,
2013-05-13 17:23:00,65.0,42.6,30.26,ESE,111,0.0,5.0,44,0.00,,---,0.00,VWS V14.01,2013-05-13 21:23:00,
2013-05-13 17:24:00,65.2,40.9,30.26,WNW,302,0.0,5.0,41,0.00,,---,0.00,VWS V14.01,2013-05-13 21:24:00,
2013-05-13 17:25:00,65.2,40.9,30.26,North,5,4.0,5.0,41,0.00,,---,0.00,VWS V14.01,2013-05-13 21:25:00,
2013-05-13 17:26:00,65.2,40.3,30.26,NW,310,1.0,6.0,40,0.00,,---,0.00,VWS V14.01,2013-05-13 21:26:00,
2013-05-13 17:27:00,65.3,40.4,30.26,NW,307,4.0,9.0,40,0.00,,---,0.00,VWS V14.01,2013-05-13 21:27:00,
2013-05-13 17:28:00,65.4,39.2,30.26,NW,310,0.0,9.0,38,0.00,,---,0.00,VWS V14.01,2013-05-13 21:28:00,
2013-05-13 17:29:00,65.5,40.6,30.26,NW,304,2.0,9.0,40,0.00,,---,0.00,VWS V14.01,2013-05-13 21:29:00,
2013-05-13 17:30:00,65.6,40.7,30.26,NNW,332,0.0,9.0,40,0.00,,---,0.00,VWS V14.01,2013-05-13 21:30:00,
2013-05-13 17:31:00,65.8,40.8,30.26,NW,318,0.0,1.0,40,0.00,,---,0.00,VWS V14.01,2013-05-13 21:31:00,
2013-05-13 17:32:00,65.8,40.8,30.26,WSW,249,0.0,2.0,40,0.00,,---,0.00,VWS V14.01,2013-05-13 21:32:00,
2013-05-13 17:33:00,65.9,40.9,30.26,WSW,249,0.0,2.0,40,0.00,,---,0.00,VWS V14.01,2013-05-13 21:33:00,
2013-05-13 17:34:00,66.0,41.0,30.26,WSW,249,0.0,2.0,40,0.00,,---,0.00,VWS V14.01,2013-05-13 21:34:00,
2013-05-13 17:35:00,66.0,40.4,30.26,WNW,289,3.0,4.0,39,0.00,,---,0.00,VWS V14.01,2013-05-13 21:35:00,
2013-05-13 17:36:00,66.0,41.0,30.26,NW,317,1.0,5.0,40,0.00,,---,0.00,VWS V14.01,2013-05-13 21:36:00,
2013-05-13 17:37:00,65.9,41.6,30.26,WNW,301,4.0,5.0,41,0.00,,---,0.00,VWS V14.01,2013-05-13 21:37:00,
2013-05-13 17:38:00,66.0,41.7,30.26,WSW,257,2.0,5.0,41,0.00,,---,0.00,VWS V14.01,2013-05-13 21:38:00,
2013-05-13 17:39:00,66.1,42.4,30.26,WNW,292,1.0,5.0,42,0.00,,---,0.00,VWS V14.01,2013-05-13 21:39:00,
2013-05-13 17:40:00,66.1,41.1,30.26,WNW,291,6.0,6.0,40,0.00,,---,0.00,VWS V14.01,2013-05-13 21:40:00,
2013-05-13 17:41:00,66.1,40.5,30.26,NW,308,2.0,6.0,39,0.00,,---,0.00,VWS V14.01,2013-05-13 21:41:00,
2013-05-13 17:42:00,66.1,39.8,30.26,NW,322,0.0,6.0,38,0.00,,---,0.00,VWS V14.01,2013-05-13 21:42:00,
2013-05-13 17:43:00,66.0,39.7,30.26,NNE,26,0.0,6.0,38,0.00,,---,0.00,VWS V14.01,2013-05-13 21:43:00,
2013-05-13 17:44:00,66.0,39.7,30.26,NNE,26,0.0,6.0,38,0.00,,---,0.00,VWS V14.01,2013-05-13 21:44:00,
2013-05-13 17:45:00,66.0,39.7,30.26,North,11,0.0,6.0,38,0.00,,---,0.00,VWS V14.01,2013-05-13 21:45:00,
2013-05-13 17:46:00,65.9,38.9,30.26,North,11,0.0,6.0,37,0.00,,---,0.00,VWS V14.01,2013-05-13 21:46:00,
2013-05-13 17:47:00,66.0,39.7,30.26,NW,319,2.0,6.0,38,0.00,,---,0.00,VWS V14.01,2013-05-13 21:47:00,
2013-05-13 17:48:00,66.1,39.1,30.26,North,355,3.0,6.0,37,0.00,,---,0.00,VWS V14.01,2013-05-13 21:48:00,
2013-05-13 17:49:00,66.1,39.1,30.26,NNW,346,0.0,6.0,37,0.00,,---,0.00,VWS V14.01,2013-05-13 21:49:00,
2013-05-13 17:50:00,66.2,39.9,30.26,West,263,6.0,7.0,38,0.00,,---,0.00,VWS V14.01,2013-05-13 21:50:00,
2013-05-13 17:51:00,66.2,39.2,30.26,WNW,301,4.0,7.0,37,0.00,,---,0.00,VWS V14.01,2013-05-13 21:51:00,
2013-05-13 17:52:00,66.1,39.1,30.26,WNW,290,5.0,8.0,37,0.00,,---,0.00,VWS V14.01,2013-05-13 21:52:00,
2013-05-13 17:53:00,65.9,38.9,30.26,NW,314,2.0,8.0,37,0.00,,---,0.00,VWS V14.01,2013-05-13 21:53:00,
2013-05-13 17:54:00,65.8,38.8,30.26,NW,314,0.0,8.0,37,0.00,,---,0.00,VWS V14.01,2013-05-13 21:54:00,
2013-05-13 17:55:00,65.7,39.4,30.26,NW,314,0.0,8.0,38,0.00,,---,0.00,VWS V14.01,2013-05-13 21:55:00,
2013-05-13 17:56:00,65.7,39.4,30.26,NW,314,0.0,8.0,38,0.00,,---,0.00,VWS V14.01,2013-05-13 21:56:00,
2013-05-13 17:57:00,65.8,39.5,30.26,NW,314,0.0,8.0,38,0.00,,---,0.00,VWS V14.01,2013-05-13 21:57:00,
2013-05-13 17:58:00,65.9,39.6,30.26,NW,314,0.0,8.0,38,0.00,,---,0.00,VWS V14.01,2013-05-13 21:58:00,
2013-05-13 17:59:00,66.0,39.7,30.26,NNW,333,0.0,8.0,38,0.00,,---,0.00,VWS V14.01,2013-05-13 21:59:00,
2013-05-13 18:00:00,66.0,39.7,30.26,NNW,333,0.0,0.0,38,0.00,,---,0.00,VWS V14.01,2013-05-13 22:00:00,
2013-05-13 18:01:00,66.0,39.7,30.26,NNW,333,0.0,0.0,38,0.00,,---,0.00,VWS V14.01,2013-05-13 22:01:00,
2013-05-13 18:02:00,66.5,38.8,30.26,NNE,29,1.0,5.0,36,0.00,,---,0.00,VWS V14.01,2013-05-13 22:02:00,
2013-05-13 18:03:00,66.6,38.1,30.26,NNE,30,0.0,5.0,35,0.00,,---,0.00,VWS V14.01,2013-05-13 22:03:00,
2013-05-13 18:04:00,66.7,38.9,30.26,North,355,0.0,5.0,36,0.00,,---,0.00,VWS V14.01,2013-05-13 22:04:00,
2013-05-13 18:05:00,66.9,39.1,30.26,North,355,0.0,5.0,36,0.00,,---,0.00,VWS V14.01,2013-05-13 22:05:00,
2013-05-13 18:06:00,67.2,38.7,30.26,NNW,346,2.0,5.0,35,0.00,,---,0.00,VWS V14.01,2013-05-13 22:06:00,
2013-05-13 18:07:00,67.5,38.2,30.26,NW,309,3.0,5.0,34,0.00,,---,0.00,VWS V14.01,2013-05-13 22:07:00,
2013-05-13 18:08:00,67.6,38.3,30.26,NW,319,4.0,5.0,34,0.00,,---,0.00,VWS V14.01,2013-05-13 22:08:00,
2013-05-13 18:09:00,67.6,39.0,30.26,WNW,295,0.0,5.0,35,0.00,,---,0.00,VWS V14.01,2013-05-13 22:09:00,
2013-05-13 18:10:00,67.7,39.8,30.26,WNW,295,0.0,5.0,36,0.00,,---,0.00,VWS V14.01,2013-05-13 22:10:00,
2013-05-13 18:11:00,67.7,39.8,30.26,WNW,294,0.0,5.0,36,0.00,,---,0.00,VWS V14.01,2013-05-13 22:11:00,
2013-05-13 18:12:00,67.9,39.3,30.26,WNW,288,0.0,5.0,35,0.00,,---,0.00,VWS V14.01,2013-05-13 22:12:00,
2013-05-13 18:13:00,67.9,38.5,30.26,South,186,0.0,5.0,34,0.00,,---,0.00,VWS V14.01,2013-05-13 22:13:00,
2013-05-13 18:14:00,67.9,37.8,30.26,South,182,2.0,7.0,33,0.00,,---,0.00,VWS V14.01,2013-05-13 22:14:00,
2013-05-13 18:15:00,67.8,37.7,30.26,South,182,0.0,7.0,33,0.00,,---,0.00,VWS V14.01,2013-05-13 22:15:00,
2013-05-13 18:16:00,67.7,37.6,30.26,SSE,151,0.0,7.0,33,0.00,,---,0.00,VWS V14.01,2013-05-13 22:16:00,
2013-05-13 18:17:00,67.5,38.2,30.26,SSE,158,0.0,7.0,34,0.00,,---,0.00,VWS V14.01,2013-05-13 22:17:00,
2013-05-13 18:18:00,67.4,38.1,30.26,SSE,150,5.0,7.0,34,0.00,,---,0.00,VWS V14.01,2013-05-13 22:18:00,
2013-05-13 18:19:00,67.2,38.7,30.27,SSE,161,1.0,7.0,35,0.00,,---,0.00,VWS V14.01,2013-05-13 22:19:00,
2013-05-13 18:20:00,67.2,38.7,30.27,South,171,1.0,7.0,35,0.00,,---,0.00,VWS V14.01,2013-05-13 22:20:00,
2013-05-13 18:21:00,67.1,38.6,30.27,SSE,167,0.0,7.0,35,0.00,,---,0.00,VWS V14.01,2013-05-13 22:21:00,
2013-05-13 18:22:00,67.1,39.3,30.27,South,175,0.0,7.0,36,0.00,,---,0.00,VWS V14.01,2013-05-13 22:22:00,
2013-05-13 18:23:00,67.0,38.5,30.27,South,175,0.0,7.0,35,0.00,,---,0.00,VWS V14.01,2013-05-13 22:23:00,
2013-05-13 18:24:00,66.9,36.9,30.27,South,175,0.0,7.0,33,0.00,,---,0.00,VWS V14.01,2013-05-13 22:24:00,
2013-05-13 18:25:00,66.9,36.9,30.27,South,175,0.0,7.0,33,0.00,,---,0.00,VWS V14.01,2013-05-13 22:25:00,
2013-05-13 18:26:00,66.8,36.8,30.27,ESE,119,0.0,7.0,33,0.00,,---,0.00,VWS V14.01,2013-05-13 22:26:00,
2013-05-13 18:27:00,66.8,36.8,30.27,East,97,0.0,7.0,33,0.00,,---,0.00,VWS V14.01,2013-05-13 22:27:00,
2013-05-13 18:28:00,66.9,36.9,30.27,NE,43,0.0,7.0,33,0.00,,---,0.00,VWS V14.01,2013-05-13 22:28:00,
2013-05-13 18:29:00,67.0,37.0,30.27,ENE,78,0.0,7.0,33,0.00,,---,0.00,VWS V14.01,2013-05-13 22:29:00,
2013-05-13 18:30:00,67.1,37.1,30.27,NW,306,0.0,7.0,33,0.00,,---,0.00,VWS V14.01,2013-05-13 22:30:00,
2013-05-13 18:31:00,67.2,37.2,30.27,NW,306,0.0,1.0,33,0.00,,---,0.00,VWS V14.01,2013-05-13 22:31:00,
2013-05-13 18:32:00,67.3,38.0,30.27,NW,310,2.0,4.0,34,0.00,,---,0.00,VWS V14.01,2013-05-13 22:32:00,
2013-05-13 18:33:00,67.4,37.3,30.27,NW,310,0.0,4.0,33,0.00,,---,0.00,VWS V14.01,2013-05-13 22:33:00,
2013-05-13 18:34:00,67.5,37.4,30.27,East,94,0.0,4.0,33,0.00,,---,0.00,VWS V14.01,2013-05-13 22:34:00,
2013-05-13 18:35:00,67.7,36.8,30.27,ENE,74,0.0,4.0,32,0.00,,---,0.00,VWS V14.01,2013-05-13 22:35:00,
2013-05-13 18:36:00,67.9,37.0,30.27,NE,55,3.0,7.0,32,0.00,,---,0.00,VWS V14.01,2013-05-13 22:36:00,
2013-05-13 18:37:00,68.0,37.1,30.27,ESE,105,3.0,7.0,32,0.00,,---,0.00,VWS V14.01,2013-05-13 22:37:00,
2013-05-13 18:38:00,68.2,37.2,30.27,NE,48,0.0,7.0,32,0.00,,---,0.00,VWS V14.01,2013-05-13 22:38:00,
2013-05-13 18:39:00,68.3,37.3,30.27,ENE,76,0.0,7.0,32,0.00,,---,0.00,VWS V14.01,2013-05-13 22:39:00,
2013-05-13 18:40:00,68.4,37.4,30.27,ESE,102,1.0,7.0,32,0.00,,---,0.00,VWS V14.01,2013-05-13 22:40:00,
2013-05-13 18:41:00,68.4,36.6,30.27,SE,128,0.0,7.0,31,0.00,,---,0.00,VWS V14.01,2013-05-13 22:41:00,
2013-05-13 18:42:00,68.4,37.4,30.27,ESE,105,0.0,7.0,32,0.00,,---,0.00,VWS V14.01,2013-05-13 22:42:00,
2013-05-13 18:43:00,68.4,37.4,30.27,ESE,103,0.0,7.0,32,0.00,,---,0.00,VWS V14.01,2013-05-13 22:43:00,
2013-05-13 18:44:00,68.4,38.2,30.27,East,80,1.0,7.0,33,0.00,,---,0.00,VWS V14.01,2013-05-13 22:44:00,
2013-05-13 18:45:00,68.4,36.6,30.27,ENE,74,0.0,7.0,31,0.00,,---,0.00,VWS V14.01,2013-05-13 22:45:00,
2013-05-13 18:46:00,68.4,37.4,30.27,ENE,61,1.0,7.0,32,0.00,,---,0.00,VWS V14.01,2013-05-13 22:46:00,
2013-05-13 18:47:00,68.4,37.4,30.27,NE,56,0.0,7.0,32,0.00,,---,0.00,VWS V14.01,2013-05-13 22:47:00,
2013-05-13 18:48:00,68.5,37.5,30.27,ESE,121,0.0,7.0,32,0.00,,---,0.00,VWS V14.01,2013-05-13 22:48:00,
2013-05-13 18:49:00,68.5,37.5,30.27,ESE,116,0.0,7.0,32,0.00,,---,0.00,VWS V14.01,2013-05-13 22:49:00,
2013-05-13 18:50:00,68.5,37.5,30.27,ESE,119,0.0,7.0,32,0.00,,---,0.00,VWS V14.01,2013-05-13 22:50:00,
2013-05-13 18:51:00,68.5,37.5,30.27,SE,130,0.0,7.0,32,0.00,,---,0.00,VWS V14.01,2013-05-13 22:51:00,
2013-05-13 18:52:00,68.4,37.4,30.27,ESE,119,0.0,7.0,32,0.00,,---,0.00,VWS V14.01,2013-05-13 22:52:00,
2013-05-13 18:53:00,68.5,37.5,30.27,SE,140,0.0,7.0,32,0.00,,---,0.00,VWS V14.01,2013-05-13 22:53:00,
2013-05-13 18:54:00,68.5,37.5,30.27,SE,125,1.0,7.0,32,0.00,,---,0.00,VWS V14.01,2013-05-13 22:54:00,
2013-05-13 18:55:00,68.5,37.5,30.27,East,84,0.0,7.0,32,0.00,,---,0.00,VWS V14.01,2013-05-13 22:55:00,
2013-05-13 18:56:00,68.5,37.5,30.27,ESE,122,0.0,7.0,32,0.00,,---,0.00,VWS V14.01,2013-05-13 22:56:00,
2013-05-13 18:57:00,68.5,37.5,30.27,South,173,0.0,7.0,32,0.00,,---,0.00,VWS V14.01,2013-05-13 22:57:00,
2013-05-13 18:58:00,68.5,37.5,30.27,South,173,0.0,7.0,32,0.00,,---,0.00,VWS V14.01,2013-05-13 22:58:00,
2013-05-13 18:59:00,68.6,36.8,30.27,ESE,111,0.0,7.0,31,0.00,,---,0.00,VWS V14.01,2013-05-13 22:59:00,
2013-05-13 19:00:00,68.7,36.9,30.27,NE,46,0.0,7.0,31,0.00,,---,0.00,VWS V14.01,2013-05-13 23:00:00,
2013-05-13 19:01:00,68.8,37.0,30.27,ENE,66,1.0,2.0,31,0.00,,---,0.00,VWS V14.01,2013-05-13 23:01:00,
2013-05-13 19:02:00,68.8,37.8,30.27,ENE,67,0.0,2.0,32,0.00,,---,0.00,VWS V14.01,2013-05-13 23:02:00,
2013-05-13 19:03:00,68.9,37.8,30.27,East,83,0.0,2.0,32,0.00,,---,0.00,VWS V14.01,2013-05-13 23:03:00,
2013-05-13 19:04:00,68.9,38.6,30.27,East,86,0.0,2.0,33,0.00,,---,0.00,VWS V14.01,2013-05-13 23:04:00,
2013-05-13 19:05:00,69.1,38.8,30.26,ESE,106,0.0,2.0,33,0.00,,---,0.00,VWS V14.01,2013-05-13 23:05:00,
2013-05-13 19:06:00,69.2,38.1,30.26,ESE,122,0.0,4.0,32,0.00,,---,0.00,VWS V14.01,2013-05-13 23:06:00,
2013-05-13 19:07:00,69.3,38.2,30.26,NE,40,0.0,4.0,32,0.00,,---,0.00,VWS V14.01,2013-05-13 23:07:00,
2013-05-13 19:08:00,69.4,38.3,30.27,ESE,105,1.0,4.0,32,0.00,,---,0.00,VWS V14.01,2013-05-13 23:08:00,
2013-05-13 19:09:00,69.5,37.6,30.26,ESE,123,0.0,5.0,31,0.00,,---,0.00,VWS V14.01,2013-05-13 23:09:00,
2013-05-13 19:10:00,69.5,36.7,30.26,SSE,165,0.0,5.0,30,0.00,,---,0.00,VWS V14.01,2013-05-13 23:10:00,
2013-05-13 19:11:00,69.4,37.5,30.26,ENE,68,3.0,8.0,31,0.00,,---,0.00,VWS V14.01,2013-05-13 23:11:00,
2013-05-13 19:12:00,69.3,36.6,30.26,NE,52,0.0,8.0,30,0.00,,---,0.00,VWS V14.01,2013-05-13 23:12:00,
2013-05-13 19:13:00,69.1,36.4,30.26,NE,47,0.0,8.0,30,0.00,,---,0.00,VWS V14.01,2013-05-13 23:13:00,
2013-05-13 19:14:00,69.1,36.4,30.26,NE,44,0.0,8.0,30,0.00,,---,0.00,VWS V14.01,2013-05-13 23:14:00,
2013-05-13 19:15:00,69.0,36.3,30.26,NE,39,0.0,8.0,30,0.00,,---,0.00,VWS V14.01,2013-05-13 23:15:00,
2013-05-13 19:16:00,69.0,37.1,30.26,NE,48,0.0,8.0,31,0.00,,---,0.00,VWS V14.01,2013-05-13 23:16:00,
2013-05-13 19:17:00,69.0,37.9,30.26,NE,44,0.0,8.0,32,0.00,,---,0.00,VWS V14.01,2013-05-13 23:17:00,
2013-05-13 19:18:00,69.1,36.4,30.26,North,9,3.0,8.0,30,0.00,,---,0.00,VWS V14.01,2013-05-13 23:18:00,
2013-05-13 19:19:00,69.1,36.4,30.26,North,9,0.0,8.0,30,0.00,,---,0.00,VWS V14.01,2013-05-13 23:19:00,
2013-05-13 19:20:00,69.2,37.3,30.26,North,9,0.0,8.0,31,0.00,,---,0.00,VWS V14.01,2013-05-13 23:20:00,
2013-05-13 19:21:00,69.2,37.3,30.26,NE,34,4.0,8.0,31,0.00,,---,0.00,VWS V14.01,2013-05-13 23:21:00,
2013-05-13 19:22:00,69.3,35.7,30.26,NE,39,1.0,8.0,29,0.00,,---,0.00,VWS V14.01,2013-05-13 23:22:00,
2013-05-13 19:23:00,69.5,35.9,30.26,ENE,61,4.0,8.0,29,0.00,,---,0.00,VWS V14.01,2013-05-13 23:23:00,
2013-05-13 19:24:00,69.6,36.0,30.26,SSE,168,0.0,8.0,29,0.00,,---,0.00,VWS V14.01,2013-05-13 23:24:00,
2013-05-13 19:25:00,69.7,36.9,30.26,East,99,0.0,8.0,30,0.00,,---,0.00,VWS V14.01,2013-05-13 23:25:00,
2013-05-13 19:26:00,69.7,36.9,30.26,ESE,104,1.0,8.0,30,0.00,,---,0.00,VWS V14.01,2013-05-13 23:26:00,
2013-05-13 19:27:00,69.8,36.1,30.26,NE,46,2.0,8.0,29,0.00,,---,0.00,VWS V14.01,2013-05-13 23:27:00,
2013-05-13 19:28:00,69.8,35.3,30.26,ESE,111,0.0,8.0,28,0.00,,---,0.00,VWS V14.01,2013-05-13 23:28:00,
2013-05-13 19:29:00,69.9,35.3,30.26,East,96,0.0,8.0,28,0.00,,---,0.00,VWS V14.01,2013-05-13 23:29:00,
2013-05-13 19:30:00,69.7,36.0,30.26,SW,224,0.0,8.0,29,0.00,,---,0.00,VWS V14.01,2013-05-13 23:30:00,
2013-05-13 19:31:00,69.6,35.1,30.26,SSE,166,0.0,3.0,28,0.00,,---,0.00,VWS V14.01,2013-05-13 23:31:00,
2013-05-13 19:32:00,69.6,36.0,30.26,ENE,69,0.0,3.0,29,0.00,,---,0.00,VWS V14.01,2013-05-13 23:32:00,
2013-05-13 19:33:00,69.5,35.0,30.26,NE,49,0.0,7.0,28,0.00,,---,0.00,VWS V14.01,2013-05-13 23:33:00,
2013-05-13 19:34:00,69.5,35.9,30.26,ENE,63,3.0,7.0,29,0.00,,---,0.00,VWS V14.01,2013-05-13 23:34:00,
2013-05-13 19:35:00,69.5,35.0,30.26,ENE,69,0.0,7.0,28,0.00,,---,0.00,VWS V14.01,2013-05-13 23:35:00,
2013-05-13 19:36:00,69.5,35.0,30.26,ENE,74,0.0,7.0,28,0.00,,---,0.00,VWS V14.01,2013-05-13 23:36:00,
2013-05-13 19:37:00,69.5,35.0,30.26,East,95,0.0,7.0,28,0.00,,---,0.00,VWS V14.01,2013-05-13 23:37:00,
2013-05-13 19:38:00,69.5,35.9,30.26,South,186,0.0,7.0,29,0.00,,---,0.00,VWS V14.01,2013-05-13 23:38:00,
2013-05-13 19:39:00,69.6,35.1,30.26,South,179,0.0,7.0,28,0.00,,---,0.00,VWS V14.01,2013-05-13 23:39:00,
2013-05-13 19:40:00,69.6,36.0,30.26,East,93,0.0,7.0,29,0.00,,---,0.00,VWS V14.01,2013-05-13 23:40:00,
2013-05-13 19:41:00,69.7,36.0,30.26,East,93,0.0,7.0,29,0.00,,---,0.00,VWS V14.01,2013-05-13 23:41:00,
2013-05-13 19:42:00,69.7,36.0,30.26,NE,34,0.0,7.0,29,0.00,,---,0.00,VWS V14.01,2013-05-13 23:42:00,
2013-05-13 19:43:00,69.8,36.1,30.26,NE,34,0.0,7.0,29,0.00,,---,0.00,VWS V14.01,2013-05-13 23:43:00,
2013-05-13 19:44:00,69.9,36.2,30.26,NE,34,0.0,7.0,29,0.00,,---,0.00,VWS V14.01,2013-05-13 23:44:00,
2013-05-13 19:45:00,70.0,36.3,30.25,NE,34,0.0,7.0,29,0.00,,---,0.00,VWS V14.01,2013-05-13 23:45:00,
2013-05-13 19:46:00,70.1,36.4,30.25,NNE,28,0.0,7.0,29,0.00,,---,0.00,VWS V14.01,2013-05-13 23:46:00,
2013-05-13 19:47:00,70.2,36.5,30.25,North,5,0.0,7.0,29,0.00,,---,0.00,VWS V14.01,2013-05-13 23:47:00,
2013-05-13 19:48:00,70.4,36.7,30.25,North,5,0.0,7.0,29,0.00,,---,0.00,VWS V14.01,2013-05-13 23:48:00,
2013-05-13 19:49:00,70.5,37.6,30.25,NE,44,0.0,7.0,30,0.00,,---,0.00,VWS V14.01,2013-05-13 23:49:00,
2013-05-13 19:50:00,70.6,36.8,30.25,NE,51,0.0,7.0,29,0.00,,---,0.00,VWS V14.01,2013-05-13 23:50:00,
2013-05-13 19:51:00,70.7,36.0,30.25,NNE,24,0.0,7.0,28,0.00,,---,0.00,VWS V14.01,2013-05-13 23:51:00,
2013-05-13 19:52:00,70.8,36.1,30.25,NNE,22,0.0,7.0,28,0.00,,---,0.00,VWS V14.01,2013-05-13 23:52:00,
2013-05-13 19:53:00,70.8,36.1,30.25,NNE,23,0.0,7.0,28,0.00,,---,0.00,VWS V14.01,2013-05-13 23:53:00,
2013-05-13 19:54:00,70.8,36.1,30.25,NNE,23,0.0,7.0,28,0.00,,---,0.00,VWS V14.01,2013-05-13 23:54:00,
2013-05-13 19:55:00,70.9,37.1,30.25,NNE,24,0.0,7.0,29,0.00,,---,0.00,VWS V14.01,2013-05-13 23:55:00,
2013-05-13 19:56:00,70.9,37.1,30.25,South,186,1.0,7.0,29,0.00,,---,0.00,VWS V14.01,2013-05-13 23:56:00,
2013-05-13 19:57:00,70.9,37.1,30.24,ENE,76,0.0,7.0,29,0.00,,---,0.00,VWS V14.01,2013-05-13 23:57:00,
2013-05-13 19:58:00,70.9,36.2,30.24,ENE,63,0.0,7.0,28,0.00,,---,0.00,VWS V14.01,2013-05-13 23:58:00,
2013-05-13 19:59:00,70.9,36.2,30.24,SSE,163,0.0,7.0,28,0.00,,---,0.00,VWS V14.01,2013-05-13 23:59:00,
2013-05-13 20:00:00,70.8,37.0,30.24,SSE,159,0.0,7.0,29,0.00,,---,0.00,VWS V14.01,2013-05-14 00:00:00,
2013-05-13 20:01:00,70.6,35.9,30.25,SE,144,3.0,6.0,28,0.00,,---,0.00,VWS V14.01,2013-05-14 00:01:00,
2013-05-13 20:02:00,70.4,35.8,30.25,SSE,163,2.0,6.0,28,0.00,,---,0.00,VWS V14.01,2013-05-14 00:02:00,
2013-05-13 20:03:00,70.2,35.6,30.25,SE,137,3.0,6.0,28,0.00,,---,0.00,VWS V14.01,2013-05-14 00:03:00,
2013-05-13 20:04:00,69.9,35.3,30.24,SSE,158,0.0,6.0,28,0.00,,---,0.00,VWS V14.01,2013-05-14 00:04:00,
2013-05-13 20:05:00,69.8,35.3,30.24,SSE,159,0.0,6.0,28,0.00,,---,0.00,VWS V14.01,2013-05-14 00:05:00,
2013-05-13 20:06:00,69.7,35.2,30.24,SSE,159,0.0,6.0,28,0.00,,---,0.00,VWS V14.01,2013-05-14 00:06:00,
2013-05-13 20:07:00,69.8,35.3,30.24,NNW,340,0.0,6.0,28,0.00,,---,0.00,VWS V14.01,2013-05-14 00:07:00,
2013-05-13 20:08:00,69.9,35.3,30.24,NNW,338,0.0,6.0,28,0.00,,---,0.00,VWS V14.01,2013-05-14 00:08:00,
2013-05-13 20:09:00,70.0,36.3,30.24,NNW,338,0.0,6.0,29,0.00,,---,0.00,VWS V14.01,2013-05-14 00:09:00,
2013-05-13 20:10:00,70.2,36.5,30.24,NE,50,0.0,6.0,29,0.00,,---,0.00,VWS V14.01,2013-05-14 00:10:00,
2013-05-13 20:11:00,70.4,38.3,30.24,ENE,61,0.0,6.0,31,0.00,,---,0.00,VWS V14.01,2013-05-14 00:11:00,
2013-05-13 20:12:00,70.5,36.7,30.24,ENE,61,0.0,6.0,29,0.00,,---,0.00,VWS V14.01,2013-05-14 00:12:00,
2013-05-13 20:13:00,70.6,37.7,30.24,ENE,61,0.0,6.0,30,0.00,,---,0.00,VWS V14.01,2013-05-14 00:13:00,
2013-05-13 20:14:00,70.6,37.7,30.24,SSE,166,1.0,6.0,30,0.00,,---,0.00,VWS V14.01,2013-05-14 00:14:00,
2013-05-13 20:15:00,70.6,36.8,30.24,SSE,168,0.0,6.0,29,0.00,,---,0.00,VWS V14.01,2013-05-14 00:15:00,
2013-05-13 20:16:00,70.5,37.6,30.24,West,266,4.0,6.0,30,0.00,,---,0.00,VWS V14.01,2013-05-14 00:16:00,
2013-05-13 20:17:00,70.4,37.5,30.24,South,173,0.0,7.0,30,0.00,,---,0.00,VWS V14.01,2013-05-14 00:17:00,
2013-05-13 20:18:00,70.3,37.4,30.24,SSE,163,4.0,7.0,30,0.00,,---,0.00,VWS V14.01,2013-05-14 00:18:00,
2013-05-13 20:19:00,70.3,37.4,30.24,SSE,167,1.0,7.0,30,0.00,,---,0.00,VWS V14.01,2013-05-14 00:19:00,
2013-05-13 20:20:00,70.2,38.2,30.24,SSE,164,2.0,7.0,31,0.00,,---,0.00,VWS V14.01,2013-05-14 00:20:00,
2013-05-13 20:21:00,70.2,37.3,30.24,South,175,0.0,7.0,30,0.00,,---,0.00,VWS V14.01,2013-05-14 00:21:00,
2013-05-13 20:22:00,70.2,37.3,30.24,South,178,3.0,7.0,30,0.00,,---,0.00,VWS V14.01,2013-05-14 00:22:00,
2013-05-13 20:23:00,70.1,36.4,30.24,South,175,2.0,7.0,29,0.00,,---,0.00,VWS V14.01,2013-05-14 00:23:00,
2013-05-13 20:24:00,69.9,37.1,30.24,SSE,151,0.0,7.0,30,0.00,,---,0.00,VWS V14.01,2013-05-14 00:24:00,
2013-05-13 20:25:00,69.9,37.9,30.24,SSE,166,5.0,7.0,31,0.00,,---,0.00,VWS V14.01,2013-05-14 00:25:00,
2013-05-13 20:26:00,69.9,37.1,30.24,South,172,1.0,7.0,30,0.00,,---,0.00,VWS V14.01,2013-05-14 00:26:00,
2013-05-13 20:27:00,69.8,37.0,30.23,South,173,3.0,7.0,30,0.00,,---,0.00,VWS V14.01,2013-05-14 00:27:00,
2013-05-13 20:28:00,69.8,37.8,30.23,SSE,158,2.0,7.0,31,0.00,,---,0.00,VWS V14.01,2013-05-14 00:28:00,
2013-05-13 20:29:00,69.8,37.0,30.23,SSE,153,0.0,7.0,30,0.00,,---,0.00,VWS V14.01,2013-05-14 00:29:00,
2013-05-13 20:30:00,69.9,37.1,30.23,SE,138,0.0,7.0,30,0.00,,---,0.00,VWS V14.01,2013-05-14 00:30:00,
2013-05-13 20:31:00,70.0,38.0,30.23,SW,223,0.0,0.0,31,0.00,,---,0.00,VWS V14.01,2013-05-14 00:31:00,
2013-05-13 20:32:00,70.2,39.0,30.23,SW,223,0.0,4.0,32,0.00,,---,0.00,VWS V14.01,2013-05-14 00:32:00,
2013-05-13 20:33:00,70.4,37.5,30.24,ENE,72,0.0,4.0,30,0.00,,---,0.00,VWS V14.01,2013-05-14 00:33:00,
2013-05-13 20:34:00,70.6,37.7,30.24,ENE,65,1.0,7.0,30,0.00,,---,0.00,VWS V14.01,2013-05-14 00:34:00,
2013-05-13 20:35:00,70.8,37.9,30.23,SE,146,0.0,7.0,30,0.00,,---,0.00,VWS V14.01,2013-05-14 00:35:00,
2013-05-13 20:36:00,71.0,38.9,30.23,East,85,0.0,7.0,31,0.00,,---,0.00,VWS V14.01,2013-05-14 00:36:00,
2013-05-13 20:37:00,71.1,37.3,30.23,SE,146,1.0,7.0,29,0.00,,---,0.00,VWS V14.01,2013-05-14 00:37:00,
2013-05-13 20:38:00,71.1,38.1,30.23,SSE,163,0.0,7.0,30,0.00,,---,0.00,VWS V14.01,2013-05-14 00:38:00,
2013-05-13 20:39:00,71.0,37.2,30.23,South,173,4.0,7.0,29,0.00,,---,0.00,VWS V14.01,2013-05-14 00:39:00,
2013-05-13 20:40:00,70.8,37.0,30.23,South,173,0.0,7.0,29,0.00,,---,0.00,VWS V14.01,2013-05-14 00:40:00,
2013-05-13 20:41:00,70.7,37.8,30.23,SSE,148,0.0,7.0,30,0.00,,---,0.00,VWS V14.01,2013-05-14 00:41:00,
2013-05-13 20:42:00,70.7,36.9,30.23,ESE,115,0.0,7.0,29,0.00,,---,0.00,VWS V14.01,2013-05-14 00:42:00,
2013-05-13 20:43:00,70.7,36.9,30.23,WNW,296,0.0,7.0,29,0.00,,---,0.00,VWS V14.01,2013-05-14 00:43:00,
2013-05-13 20:44:00,70.8,37.0,30.23,SSW,196,3.0,7.0,29,0.00,,---,0.00,VWS V14.01,2013-05-14 00:44:00,
2013-05-13 20:45:00,71.0,37.2,30.23,SE,140,0.0,7.0,29,0.00,,---,0.00,VWS V14.01,2013-05-14 00:45:00,
2013-05-13 20:46:00,71.0,37.2,30.22,SE,144,0.0,7.0,29,0.00,,---,0.00,VWS V14.01,2013-05-14 00:46:00,
2013-05-13 20:47:00,71.1,36.4,30.23,South,183,0.0,7.0,28,0.00,,---,0.00,VWS V14.01,2013-05-14 00:47:00,
2013-05-13 20:48:00,71.2,37.3,30.23,ENE,64,5.0,7.0,29,0.00,,---,0.00,VWS V14.01,2013-05-14 00:48:00,
2013-05-13 20:49:00,71.3,36.5,30.22,NE,55,1.0,7.0,28,0.00,,---,0.00,VWS V14.01,2013-05-14 00:49:00,
2013-05-13 20:50:00,71.2,35.5,30.22,East,80,3.0,7.0,27,0.00,,---,0.00,VWS V14.01,2013-05-14 00:50:00,
2013-05-13 20:51:00,71.2,36.5,30.22,ENE,67,0.0,7.0,28,0.00,,---,0.00,VWS V14.01,2013-05-14 00:51:00,
2013-05-13 20:52:00,71.2,36.5,30.22,NE,53,0.0,7.0,28,0.00,,---,0.00,VWS V14.01,2013-05-14 00:52:00,
2013-05-13 20:53:00,71.1,36.4,30.22,NE,44,0.0,7.0,28,0.00,,---,0.00,VWS V14.01,2013-05-14 00:53:00,
2013-05-13 20:54:00,71.1,36.4,30.22,NE,36,0.0,7.0,28,0.00,,---,0.00,VWS V14.01,2013-05-14 00:54:00,
2013-05-13 20:55:00,71.1,36.4,30.22,NE,35,0.0,7.0,28,0.00,,---,0.00,VWS V14.01,2013-05-14 00:55:00,
2013-05-13 20:56:00,71.1,36.4,30.22,NW,326,3.0,7.0,28,0.00,,---,0.00,VWS V14.01,2013-05-14 00:56:00,
2013-05-13 20:57:00,71.2,36.5,30.22,NW,305,0.0,7.0,28,0.00,,---,0.00,VWS V14.01,2013-05-14 00:57:00,
2013-05-13 20:58:00,71.2,37.3,30.22,NW,305,0.0,7.0,29,0.00,,---,0.00,VWS V14.01,2013-05-14 00:58:00,
2013-05-13 20:59:00,71.3,36.5,30.22,NW,305,0.0,7.0,28,0.00,,---,0.00,VWS V14.01,2013-05-14 00:59:00,
2013-05-13 21:00:00,71.4,35.7,30.22,NW,305,0.0,7.0,27,0.00,,---,0.00,VWS V14.01,2013-05-14 01:00:00,
2013-05-13 21:01:00,71.5,35.8,30.22,North,9,1.0,3.0,27,0.00,,---,0.00,VWS V14.01,2013-05-14 01:01:00,
2013-05-13 21:02:00,71.5,35.8,30.21,North,9,0.0,3.0,27,0.00,,---,0.00,VWS V14.01,2013-05-14 01:02:00,
2013-05-13 21:03:00,71.5,36.7,30.21,North,9,0.0,3.0,28,0.00,,---,0.00,VWS V14.01,2013-05-14 01:03:00,
2013-05-13 21:04:00,71.6,36.8,30.22,North,9,1.0,3.0,28,0.00,,---,0.00,VWS V14.01,2013-05-14 01:04:00,
2013-05-13 21:05:00,71.7,36.9,30.22,ENE,76,0.0,5.0,28,0.00,,---,0.00,VWS V14.01,2013-05-14 01:05:00,
2013-05-13 21:06:00,71.8,37.0,30.21,NE,55,3.0,5.0,28,0.00,,---,0.00,VWS V14.01,2013-05-14 01:06:00,
2013-05-13 21:07:00,71.9,36.1,30.21,ENE,74,4.0,6.0,27,0.00,,---,0.00,VWS V14.01,2013-05-14 01:07:00,
2013-05-13 21:08:00,71.9,36.1,30.21,NE,53,0.0,6.0,27,0.00,,---,0.00,VWS V14.01,2013-05-14 01:08:00,
2013-05-13 21:09:00,71.9,37.1,30.21,NNW,329,2.0,6.0,28,0.00,,---,0.00,VWS V14.01,2013-05-14 01:09:00,
2013-05-13 21:10:00,71.9,36.1,30.21,NNW,347,4.0,6.0,27,0.00,,---,0.00,VWS V14.01,2013-05-14 01:10:00,
2013-05-13 21:11:00,71.8,35.1,30.21,WNW,290,3.0,6.0,26,0.00,,---,0.00,VWS V14.01,2013-05-14 01:11:00,
2013-05-13 21:12:00,71.8,37.0,30.21,NNW,332,0.0,6.0,28,0.00,,---,0.00,VWS V14.01,2013-05-14 01:12:00,
2013-05-13 21:13:00,71.8,37.0,30.21,NE,56,6.0,9.0,28,0.00,,---,0.00,VWS V14.01,2013-05-14 01:13:00,
2013-05-13 21:14:00,71.9,36.1,30.21,NE,53,2.0,11.0,27,0.00,,---,0.00,VWS V14.01,2013-05-14 01:14:00,
2013-05-13 21:15:00,71.9,36.1,30.20,NE,53,0.0,11.0,27,0.00,,---,0.00,VWS V14.01,2013-05-14 01:15:00,
2013-05-13 21:16:00,71.8,36.0,30.21,North,360,3.0,11.0,27,0.00,,---,0.00,VWS V14.01,2013-05-14 01:16:00,
2013-05-13 21:17:00,71.8,36.0,30.20,NNW,346,1.0,11.0,27,0.00,,---,0.00,VWS V14.01,2013-05-14 01:17:00,
2013-05-13 21:18:00,71.8,36.0,30.20,North,355,0.0,11.0,27,0.00,,---,0.00,VWS V14.01,2013-05-14 01:18:00,
2013-05-13 21:19:00,71.8,36.0,30.20,North,350,0.0,11.0,27,0.00,,---,0.00,VWS V14.01,2013-05-14 01:19:00,
2013-05-13 21:20:00,71.9,37.1,30.20,North,350,0.0,11.0,28,0.00,,---,0.00,VWS V14.01,2013-05-14 01:20:00,
2013-05-13 21:21:00,72.0,37.1,30.20,ENE,69,1.0,11.0,28,0.00,,---,0.00,VWS V14.01,2013-05-14 01:21:00,
2013-05-13 21:22:00,72.1,37.2,30.20,NNE,19,3.0,11.0,28,0.00,,---,0.00,VWS V14.01,2013-05-14 01:22:00,
2013-05-13 21:23:00,72.2,36.4,30.20,NNE,18,0.0,11.0,27,0.00,,---,0.00,VWS V14.01,2013-05-14 01:23:00,
2013-05-13 21:24:00,72.2,36.4,30.20,ENE,61,3.0,11.0,27,0.00,,---,0.00,VWS V14.01,2013-05-14 01:24:00,
2013-05-13 21:25:00,72.3,36.5,30.20,NE,40,5.0,11.0,27,0.00,,---,0.00,VWS V14.01,2013-05-14 01:25:00,
2013-05-13 21:26:00,72.3,36.5,30.20,NE,37,0.0,11.0,27,0.00,,---,0.00,VWS V14.01,2013-05-14 01:26:00,
2013-05-13 21:27:00,72.4,36.6,30.20,NE,49,3.0,11.0,27,0.00,,---,0.00,VWS V14.01,2013-05-14 01:27:00,
2013-05-13 21:28:00,72.5,36.7,30.20,ENE,60,5.0,11.0,27,0.00,,---,0.00,VWS V14.01,2013-05-14 01:28:00,
2013-05-13 21:29:00,72.5,37.6,30.20,SE,137,0.0,11.0,28,0.00,,---,0.00,VWS V14.01,2013-05-14 01:29:00,
2013-05-13 21:30:00,72.5,36.7,30.20,ENE,61,1.0,11.0,27,0.00,,---,0.00,VWS V14.01,2013-05-14 01:30:00,
2013-05-13 21:31:00,72.6,36.7,30.20,ENE,71,9.0,9.0,27,0.00,,---,0.00,VWS V14.01,2013-05-14 01:31:00,
2013-05-13 21:32:00,72.5,36.7,30.20,East,87,6.0,9.0,27,0.00,,---,0.00,VWS V14.01,2013-05-14 01:32:00,
2013-05-13 21:33:00,72.5,36.7,30.19,SSW,201,6.0,9.0,27,0.00,,---,0.00,VWS V14.01,2013-05-14 01:33:00,
2013-05-13 21:34:00,72.3,37.4,30.19,SSW,192,0.0,9.0,28,0.00,,---,0.00,VWS V14.01,2013-05-14 01:34:00,
2013-05-13 21:35:00,72.2,36.4,30.19,ESE,107,0.0,9.0,27,0.00,,---,0.00,VWS V14.01,2013-05-14 01:35:00,
2013-05-13 21:36:00,72.1,37.2,30.19,SE,130,4.0,9.0,28,0.00,,---,0.00,VWS V14.01,2013-05-14 01:36:00,
2013-05-13 21:37:00,72.1,37.2,30.19,ESE,105,0.0,9.0,28,0.00,,---,0.00,VWS V14.01,2013-05-14 01:37:00,
2013-05-13 21:38:00,72.1,38.1,30.19,East,93,1.0,9.0,29,0.00,,---,0.00,VWS V14.01,2013-05-14 01:38:00,
2013-05-13 21:39:00,72.1,38.1,30.19,ENE,63,1.0,9.0,29,0.00,,---,0.00,VWS V14.01,2013-05-14 01:39:00,
2013-05-13 21:40:00,72.3,38.3,30.19,SSW,192,0.0,9.0,29,0.00,,---,0.00,VWS V14.01,2013-05-14 01:40:00,
2013-05-13 21:41:00,72.4,37.5,30.19,SSW,192,0.0,9.0,28,0.00,,---,0.00,VWS V14.01,2013-05-14 01:41:00,
2013-05-13 21:42:00,72.4,37.5,30.19,SSE,153,4.0,9.0,28,0.00,,---,0.00,VWS V14.01,2013-05-14 01:42:00,
2013-05-13 21:43:00,72.3,37.4,30.19,East,90,0.0,9.0,28,0.00,,---,0.00,VWS V14.01,2013-05-14 01:43:00,
2013-05-13 21:44:00,72.3,38.3,30.19,ENE,62,0.0,9.0,29,0.00,,---,0.00,VWS V14.01,2013-05-14 01:44:00,
2013-05-13 21:45:00,72.3,37.4,30.19,ENE,62,0.0,9.0,28,0.00,,---,0.00,VWS V14.01,2013-05-14 01:45:00,
2013-05-13 21:46:00,72.4,37.5,30.19,SE,126,0.0,9.0,28,0.00,,---,0.00,VWS V14.01,2013-05-14 01:46:00,
2013-05-13 21:47:00,72.4,37.5,30.19,SE,132,0.0,9.0,28,0.00,,---,0.00,VWS V14.01,2013-05-14 01:47:00,
2013-05-13 21:48:00,72.4,38.4,30.18,SE,132,0.0,9.0,29,0.00,,---,0.00,VWS V14.01,2013-05-14 01:48:00,
2013-05-13 21:49:00,72.4,38.4,30.18,SE,132,0.0,9.0,29,0.00,,---,0.00,VWS V14.01,2013-05-14 01:49:00,
2013-05-13 21:50:00,72.4,38.4,30.18,ENE,78,7.0,9.0,29,0.00,,---,0.00,VWS V14.01,2013-05-14 01:50:00,
2013-05-13 21:51:00,72.4,37.5,30.18,East,80,6.0,10.0,28,0.00,,---,0.00,VWS V14.01,2013-05-14 01:51:00,
2013-05-13 21:52:00,72.4,37.5,30.18,ENE,77,0.0,10.0,28,0.00,,---,0.00,VWS V14.01,2013-05-14 01:52:00,
2013-05-13 21:53:00,72.4,39.2,30.18,ESE,105,0.0,10.0,30,0.00,,---,0.00,VWS V14.01,2013-05-14 01:53:00,
2013-05-13 21:54:00,72.4,38.4,30.18,SE,139,5.0,10.0,29,0.00,,---,0.00,VWS V14.01,2013-05-14 01:54:00,
2013-05-13 21:55:00,72.4,39.2,30.18,ENE,63,0.0,10.0,30,0.00,,---,0.00,VWS V14.01,2013-05-14 01:55:00,
2013-05-13 21:56:00,72.5,39.3,30.19,NE,38,2.0,10.0,30,0.00,,---,0.00,VWS V14.01,2013-05-14 01:56:00,
2013-05-13 21:57:00,72.7,39.5,30.19,South,184,4.0,10.0,30,0.00,,---,0.00,VWS V14.01,2013-05-14 01:57:00,
2013-05-13 21:58:00,72.8,39.6,30.19,ESE,104,0.0,10.0,30,0.00,,---,0.00,VWS V14.01,2013-05-14 01:58:00,
2013-05-13 21:59:00,73.0,38.9,30.19,NE,53,0.0,10.0,29,0.00,,---,0.00,VWS V14.01,2013-05-14 01:59:00,
2013-05-13 22:00:00,73.0,38.9,30.19,ENE,70,0.0,10.0,29,0.00,,---,0.00,VWS V14.01,2013-05-14 02:00:00,
2013-05-13 22:01:00,73.1,39.0,30.19,NE,44,5.0,7.0,29,0.00,,---,0.00,VWS V14.01,2013-05-14 02:01:00,
2013-05-13 22:02:00,73.1,39.0,30.18,ENE,71,4.0,10.0,29,0.00,,---,0.00,VWS V14.01,2013-05-14 02:02:00,
2013-05-13 22:03:00,73.1,39.0,30.18,NE,48,4.0,10.0,29,0.00,,---,0.00,VWS V14.01,2013-05-14 02:03:00,
2013-05-13 22:04:00,73.2,39.9,30.18,NE,36,4.0,10.0,30,0.00,,---,0.00,VWS V14.01,2013-05-14 02:04:00,
2013-05-13 22:05:00,73.3,39.2,30.18,NE,53,0.0,10.0,29,0.00,,---,0.00,VWS V14.01,2013-05-14 02:05:00,
2013-05-13 22:06:00,73.3,39.2,30.18,NNW,344,0.0,10.0,29,0.00,,---,0.00,VWS V14.01,2013-05-14 02:06:00,
2013-05-13 22:07:00,73.5,40.2,30.18,North,355,2.0,10.0,30,0.00,,---,0.00,VWS V14.01,2013-05-14 02:07:00,
2013-05-13 22:08:00,73.6,40.3,30.18,NE,54,3.0,10.0,30,0.00,,---,0.00,VWS V14.01,2013-05-14 02:08:00,
2013-05-13 22:09:00,73.8,39.6,30.18,NNE,19,1.0,10.0,29,0.00,,---,0.00,VWS V14.01,2013-05-14 02:09:00,
2013-05-13 22:10:00,73.9,38.8,30.18,NNE,28,0.0,10.0,28,0.00,,---,0.00,VWS V14.01,2013-05-14 02:10:00,
2013-05-13 22:11:00,74.0,38.9,30.18,NE,39,3.0,10.0,28,0.00,,---,0.00,VWS V14.01,2013-05-14 02:11:00,
2013-05-13 22:12:00,74.0,38.9,30.18,NE,47,0.0,10.0,28,0.00,,---,0.00,VWS V14.01,2013-05-14 02:12:00,
2013-05-13 22:13:00,74.0,38.9,30.18,NE,41,3.0,10.0,28,0.00,,---,0.00,VWS V14.01,2013-05-14 02:13:00,
2013-05-13 22:14:00,74.0,38.9,30.18,North,11,4.0,10.0,28,0.00,,---,0.00,VWS V14.01,2013-05-14 02:14:00,
2013-05-13 22:15:00,73.9,37.8,30.18,North,355,0.0,10.0,27,0.00,,---,0.00,VWS V14.01,2013-05-14 02:15:00,
2013-05-13 22:16:00,73.9,37.8,30.18,North,355,0.0,10.0,27,0.00,,---,0.00,VWS V14.01,2013-05-14 02:16:00,
2013-05-13 22:17:00,73.9,38.8,30.18,North,355,0.0,10.0,28,0.00,,---,0.00,VWS V14.01,2013-05-14 02:17:00,
2013-05-13 22:18:00,73.9,37.8,30.18,NE,52,5.0,10.0,27,0.00,,---,0.00,VWS V14.01,2013-05-14 02:18:00,
2013-05-13 22:19:00,73.9,37.8,30.18,North,5,2.0,10.0,27,0.00,,---,0.00,VWS V14.01,2013-05-14 02:19:00,
2013-05-13 22:20:00,73.9,38.8,30.18,North,10,4.0,10.0,28,0.00,,---,0.00,VWS V14.01,2013-05-14 02:20:00,
2013-05-13 22:21:00,74.0,39.8,30.18,North,5,3.0,10.0,29,0.00,,---,0.00,VWS V14.01,2013-05-14 02:21:00,
2013-05-13 22:22:00,73.8,37.8,30.18,NNE,17,5.0,10.0,27,0.00,,---,0.00,VWS V14.01,2013-05-14 02:22:00,
2013-05-13 22:23:00,73.7,39.5,30.18,NNE,31,1.0,10.0,29,0.00,,---,0.00,VWS V14.01,2013-05-14 02:23:00,
2013-05-13 22:24:00,73.8,38.7,30.18,NNE,15,0.0,10.0,28,0.00,,---,0.00,VWS V14.01,2013-05-14 02:24:00,
2013-05-13 22:25:00,73.8,38.7,30.18,ENE,59,0.0,10.0,28,0.00,,---,0.00,VWS V14.01,2013-05-14 02:25:00,
2013-05-13 22:26:00,73.8,37.8,30.18,NNE,26,0.0,10.0,27,0.00,,---,0.00,VWS V14.01,2013-05-14 02:26:00,
2013-05-13 22:27:00,73.8,38.7,30.18,NNE,26,2.0,10.0,28,0.00,,---,0.00,VWS V14.01,2013-05-14 02:27:00,
2013-05-13 22:28:00,73.8,37.8,30.18,NE,54,0.0,10.0,27,0.00,,---,0.00,VWS V14.01,2013-05-14 02:28:00,
2013-05-13 22:29:00,73.8,37.8,30.18,ENE,59,0.0,10.0,27,0.00,,---,0.00,VWS V14.01,2013-05-14 02:29:00,
2013-05-13 22:30:00,73.8,37.8,30.18,ENE,65,0.0,10.0,27,0.00,,---,0.00,VWS V14.01,2013-05-14 02:30:00,
2013-05-13 22:31:00,73.8,37.8,30.18,ENE,65,0.0,0.0,27,0.00,,---,0.00,VWS V14.01,2013-05-14 02:31:00,
2013-05-13 22:32:00,73.8,38.7,30.17,ESE,104,0.0,0.0,28,0.00,,---,0.00,VWS V14.01,2013-05-14 02:32:00,
2013-05-13 22:33:00,73.8,39.6,30.17,SSE,147,0.0,1.0,29,0.00,,---,0.00,VWS V14.01,2013-05-14 02:33:00,
2013-05-13 22:34:00,73.6,37.6,30.17,SSE,147,0.0,1.0,27,0.00,,---,0.00,VWS V14.01,2013-05-14 02:34:00,
2013-05-13 22:35:00,73.5,37.5,30.17,SSE,147,0.0,1.0,27,0.00,,---,0.00,VWS V14.01,2013-05-14 02:35:00,
2013-05-13 22:36:00,73.4,38.3,30.17,SSE,147,0.0,1.0,28,0.00,,---,0.00,VWS V14.01,2013-05-14 02:36:00,
2013-05-13 22:37:00,73.3,38.3,30.17,SSE,147,0.0,1.0,28,0.00,,---,0.00,VWS V14.01,2013-05-14 02:37:00,
2013-05-13 22:38:00,73.2,37.2,30.17,SSE,147,0.0,1.0,27,0.00,,---,0.00,VWS V14.01,2013-05-14 02:38:00,
2013-05-13 22:39:00,73.2,38.2,30.17,SSE,147,0.0,1.0,28,0.00,,---,0.00,VWS V14.01,2013-05-14 02:39:00,
2013-05-13 22:40:00,73.1,38.1,30.17,ENE,65,0.0,6.0,28,0.00,,---,0.00,VWS V14.01,2013-05-14 02:40:00,
2013-05-13 22:41:00,73.2,38.2,30.17,NE,44,0.0,6.0,28,0.00,,---,0.00,VWS V14.01,2013-05-14 02:41:00,
2013-05-13 22:42:00,73.3,38.3,30.17,NE,43,0.0,6.0,28,0.00,,---,0.00,VWS V14.01,2013-05-14 02:42:00,
2013-05-13 22:43:00,73.4,38.3,30.17,NE,54,5.0,6.0,28,0.00,,---,0.00,VWS V14.01,2013-05-14 02:43:00,
2013-05-13 22:44:00,73.5,39.3,30.17,NE,45,7.0,7.0,29,0.00,,---,0.00,VWS V14.01,2013-05-14 02:44:00,
2013-05-13 22:45:00,73.7,39.5,30.17,NE,51,0.0,7.0,29,0.00,,---,0.00,VWS V14.01,2013-05-14 02:45:00,
2013-05-13 22:46:00,73.8,38.7,30.17,ENE,58,0.0,7.0,28,0.00,,---,0.00,VWS V14.01,2013-05-14 02:46:00,
2013-05-13 22:47:00,74.0,38.9,30.17,NE,48,4.0,7.0,28,0.00,,---,0.00,VWS V14.01,2013-05-14 02:47:00,
2013-05-13 22:48:00,74.1,39.0,30.17,NE,46,5.0,7.0,28,0.00,,---,0.00,VWS V14.01,2013-05-14 02:48:00,
2013-05-13 22:49:00,74.1,38.0,30.17,East,84,3.0,7.0,27,0.00,,---,0.00,VWS V14.01,2013-05-14 02:49:00,
2013-05-13 22:50:00,74.0,38.9,30.17,East,84,3.0,7.0,28,0.00,,---,0.00,VWS V14.01,2013-05-14 02:50:00,
2013-05-13 22:51:00,74.0,38.9,30.17,ENE,65,0.0,7.0,28,0.00,,---,0.00,VWS V14.01,2013-05-14 02:51:00,
2013-05-13 22:52:00,74.0,38.9,30.17,NE,54,5.0,8.0,28,0.00,,---,0.00,VWS V14.01,2013-05-14 02:52:00,
2013-05-13 22:53:00,74.0,39.8,30.17,NE,44,7.0,8.0,29,0.00,,---,0.00,VWS V14.01,2013-05-14 02:53:00,
2013-05-13 22:54:00,74.0,38.9,30.17,North,5,3.0,8.0,28,0.00,,---,0.00,VWS V14.01,2013-05-14 02:54:00,
2013-05-13 22:55:00,73.9,37.8,30.17,North,5,1.0,8.0,27,0.00,,---,0.00,VWS V14.01,2013-05-14 02:55:00,
2013-05-13 22:56:00,73.9,37.8,30.17,NNE,13,3.0,8.0,27,0.00,,---,0.00,VWS V14.01,2013-05-14 02:56:00,
2013-05-13 22:57:00,73.9,37.8,30.17,North,5,0.0,8.0,27,0.00,,---,0.00,VWS V14.01,2013-05-14 02:57:00,
2013-05-13 22:58:00,73.9,37.8,30.17,North,5,0.0,8.0,27,0.00,,---,0.00,VWS V14.01,2013-05-14 02:58:00,
2013-05-13 22:59:00,73.8,37.8,30.17,North,5,1.0,8.0,27,0.00,,---,0.00,VWS V14.01,2013-05-14 02:59:00,
2013-05-13 23:00:00,73.8,39.6,30.17,NNE,30,3.0,8.0,29,0.00,,---,0.00,VWS V14.01,2013-05-14 03:00:00,
2013-05-13 23:01:00,73.9,39.7,30.17,NNE,15,0.0,5.0,29,0.00,,---,0.00,VWS V14.01,2013-05-14 03:01:00,
2013-05-13 23:02:00,74.0,38.9,30.17,NNE,15,4.0,7.0,28,0.00,,---,0.00,VWS V14.01,2013-05-14 03:02:00,
2013-05-13 23:03:00,74.1,39.0,30.17,NE,46,5.0,7.0,28,0.00,,---,0.00,VWS V14.01,2013-05-14 03:03:00,
2013-05-13 23:04:00,74.2,39.0,30.17,NE,37,0.0,7.0,28,0.00,,---,0.00,VWS V14.01,2013-05-14 03:04:00,
2013-05-13 23:05:00,74.3,39.1,30.17,NE,39,9.0,10.0,28,0.00,,---,0.00,VWS V14.01,2013-05-14 03:05:00,
2013-05-13 23:06:00,74.3,39.1,30.17,East,83,6.0,11.0,28,0.00,,---,0.00,VWS V14.01,2013-05-14 03:06:00,
2013-05-13 23:07:00,74.2,39.0,30.17,NNE,24,5.0,11.0,28,0.00,,---,0.00,VWS V14.01,2013-05-14 03:07:00,
2013-05-13 23:08:00,74.1,38.0,30.17,North,355,4.0,11.0,27,0.00,,---,0.00,VWS V14.01,2013-05-14 03:08:00,
2013-05-13 23:09:00,74.1,39.0,30.17,North,355,0.0,11.0,28,0.00,,---,0.00,VWS V14.01,2013-05-14 03:09:00,
2013-05-13 23:10:00,74.1,39.0,30.17,North,355,1.0,11.0,28,0.00,,---,0.00,VWS V14.01,2013-05-14 03:10:00,
2013-05-13 23:11:00,74.2,39.0,30.17,ENE,69,0.0,11.0,28,0.00,,---,0.00,VWS V14.01,2013-05-14 03:11:00,
2013-05-13 23:12:00,74.2,39.0,30.17,ESE,114,0.0,11.0,28,0.00,,---,0.00,VWS V14.01,2013-05-14 03:12:00,
2013-05-13 23:13:00,74.2,39.0,30.16,NE,53,0.0,11.0,28,0.00,,---,0.00,VWS V14.01,2013-05-14 03:13:00,
2013-05-13 23:14:00,74.2,39.0,30.17,ENE,78,0.0,11.0,28,0.00,,---,0.00,VWS V14.01,2013-05-14 03:14:00,
2013-05-13 23:15:00,74.2,39.0,30.17,NE,35,0.0,11.0,28,0.00,,---,0.00,VWS V14.01,2013-05-14 03:15:00,
2013-05-13 23:16:00,74.2,39.0,30.17,NE,40,0.0,11.0,28,0.00,,---,0.00,VWS V14.01,2013-05-14 03:16:00,
2013-05-13 23:17:00,74.2,39.0,30.17,ENE,72,1.0,11.0,28,0.00,,---,0.00,VWS V14.01,2013-05-14 03:17:00,
2013-05-13 23:18:00,74.3,39.1,30.17,NE,52,6.0,11.0,28,0.00,,---,0.00,VWS V14.01,2013-05-14 03:18:00,
2013-05-13 23:19:00,74.5,39.3,30.17,North,355,0.0,11.0,28,0.00,,---,0.00,VWS V14.01,2013-05-14 03:19:00,
2013-05-13 23:20:00,74.6,40.3,30.17,NE,52,0.0,11.0,29,0.00,,---,0.00,VWS V14.01,2013-05-14 03:20:00,
2013-05-13 23:21:00,74.8,39.5,30.17,NE,44,7.0,11.0,28,0.00,,---,0.00,VWS V14.01,2013-05-14 03:21:00,
2013-05-13 23:22:00,75.0,39.7,30.17,NE,44,5.0,11.0,28,0.00,,---,0.00,VWS V14.01,2013-05-14 03:22:00,
2013-05-13 23:23:00,75.1,39.8,30.16,NE,47,5.0,11.0,28,0.00,,---,0.00,VWS V14.01,2013-05-14 03:23:00,
2013-05-13 23:24:00,75.1,39.8,30.16,North,5,3.0,11.0,28,0.00,,---,0.00,VWS V14.01,2013-05-14 03:24:00,
2013-05-13 23:25:00,75.0,38.8,30.17,East,86,0.0,11.0,27,0.00,,---,0.00,VWS V14.01,2013-05-14 03:25:00,
2013-05-13 23:26:00,75.0,39.7,30.17,NW,321,1.0,11.0,28,0.00,,---,0.00,VWS V14.01,2013-05-14 03:26:00,
2013-05-13 23:27:00,74.9,38.7,30.16,North,5,3.0,11.0,27,0.00,,---,0.00,VWS V14.01,2013-05-14 03:27:00,
2013-05-13 23:28:00,74.7,38.5,30.16,North,5,0.0,11.0,27,0.00,,---,0.00,VWS V14.01,2013-05-14 03:28:00,
2013-05-13 23:29:00,74.6,38.5,30.16,North,5,0.0,11.0,27,0.00,,---,0.00,VWS V14.01,2013-05-14 03:29:00,
2013-05-13 23:30:00,74.4,38.3,30.16,North,9,0.0,11.0,27,0.00,,---,0.00,VWS V14.01,2013-05-14 03:30:00,
2013-05-13 23:31:00,74.4,39.2,30.16,NNE,18,3.0,5.0,28,0.00,,---,0.00,VWS V14.01,2013-05-14 03:31:00,
2013-05-13 23:32:00,74.3,40.0,30.16,NNE,30,4.0,5.0,29,0.00,,---,0.00,VWS V14.01,2013-05-14 03:32:00,
2013-05-13 23:33:00,74.4,40.1,30.16,North,5,2.0,5.0,29,0.00,,---,0.00,VWS V14.01,2013-05-14 03:33:00,
2013-05-13 23:34:00,74.4,39.2,30.16,NNE,13,0.0,6.0,28,0.00,,---,0.00,VWS V14.01,2013-05-14 03:34:00,
2013-05-13 23:35:00,74.5,39.3,30.16,ESE,103,1.0,6.0,28,0.00,,---,0.00,VWS V14.01,2013-05-14 03:35:00,
2013-05-13 23:36:00,74.6,40.3,30.16,NNE,22,1.0,6.0,29,0.00,,---,0.00,VWS V14.01,2013-05-14 03:36:00,
2013-05-13 23:37:00,74.8,40.5,30.16,NE,46,0.0,6.0,29,0.00,,---,0.00,VWS V14.01,2013-05-14 03:37:00,
2013-05-13 23:38:00,75.0,40.6,30.16,ENE,57,2.0,6.0,29,0.00,,---,0.00,VWS V14.01,2013-05-14 03:38:00,
2013-05-13 23:39:00,75.1,40.7,30.16,North,355,0.0,6.0,29,0.00,,---,0.00,VWS V14.01,2013-05-14 03:39:00,
2013-05-13 23:40:00,75.1,39.8,30.16,North,355,2.0,7.0,28,0.00,,---,0.00,VWS V14.01,2013-05-14 03:40:00,
2013-05-13 23:41:00,74.9,39.6,30.16,NNW,340,5.0,7.0,28,0.00,,---,0.00,VWS V14.01,2013-05-14 03:41:00,
2013-05-13 23:42:00,74.7,39.5,30.16,NNW,346,5.0,8.0,28,0.00,,---,0.00,VWS V14.01,2013-05-14 03:42:00,
2013-05-13 23:43:00,74.5,39.3,30.16,NW,321,1.0,8.0,28,0.00,,---,0.00,VWS V14.01,2013-05-14 03:43:00,
2013-05-13 23:44:00,74.3,39.1,30.16,WNW,303,3.0,8.0,28,0.00,,---,0.00,VWS V14.01,2013-05-14 03:44:00,
2013-05-13 23:45:00,74.2,39.0,30.16,NNW,338,0.0,8.0,28,0.00,,---,0.00,VWS V14.01,2013-05-14 03:45:00,
2013-05-13 23:46:00,74.2,39.0,30.16,NNW,339,0.0,8.0,28,0.00,,---,0.00,VWS V14.01,2013-05-14 03:46:00,
2013-05-13 23:47:00,74.1,39.8,30.16,North,351,0.0,8.0,29,0.00,,---,0.00,VWS V14.01,2013-05-14 03:47:00,
2013-05-13 23:48:00,74.2,39.0,30.16,North,9,0.0,8.0,28,0.00,,---,0.00,VWS V14.01,2013-05-14 03:48:00,
2013-05-13 23:49:00,74.3,39.1,30.16,NNE,28,0.0,8.0,28,0.00,,---,0.00,VWS V14.01,2013-05-14 03:49:00,
2013-05-13 23:50:00,74.5,39.3,30.16,ENE,59,5.0,8.0,28,0.00,,---,0.00,VWS V14.01,2013-05-14 03:50:00,
2013-05-13 23:51:00,74.6,40.3,30.16,NNE,25,6.0,10.0,29,0.00,,---,0.00,VWS V14.01,2013-05-14 03:51:00,
2013-05-13 23:52:00,74.8,40.5,30.16,NNW,342,8.0,10.0,29,0.00,,---,0.00,VWS V14.01,2013-05-14 03:52:00,
2013-05-13 23:53:00,74.7,40.4,30.16,NNW,348,0.0,11.0,29,0.00,,---,0.00,VWS V14.01,2013-05-14 03:53:00,
2013-05-13 23:54:00,74.8,40.5,30.16,NNW,333,5.0,11.0,29,0.00,,---,0.00,VWS V14.01,2013-05-14 03:54:00,
2013-05-13 23:55:00,74.7,39.5,30.16,NNW,333,0.0,11.0,28,0.00,,---,0.00,VWS V14.01,2013-05-14 03:55:00,
2013-05-13 23:56:00,74.7,39.5,30.16,NNW,333,0.0,11.0,28,0.00,,---,0.00,VWS V14.01,2013-05-14 03:56:00,
2013-05-13 23:57:00,74.7,39.5,30.16,ENE,71,0.0,11.0,28,0.00,,---,0.00,VWS V14.01,2013-05-14 03:57:00,
2013-05-13 23:58:00,74.8,39.5,30.16,North,5,2.0,11.0,28,0.00,,---,0.00,VWS V14.01,2013-05-14 03:58:00,
2013-05-13 23:59:00,74.9,40.5,30.16,North,360,6.0,11.0,29,0.00,,---,0.00,VWS V14.01,2013-05-14 03:59:00,